[[{"header":{"parameterUnit":"m.s-1","parameterCategory":1,"la1":31.0,"la2":29.5877,"lo1":-88.7671,"lo2":-86.6584,"dy":0.0162,"dx":0.0185,"nx":115,"ny":88,"refTime":"2023-04-01T06:00:00:Z","depth":0,"parameterNumber":2,"parameterNumberName":"U-component_of_WINDS"},"data":[0.0,0.0,0.0,0.0,0.0,0.0,0.0,0.0,0.0,0.0,0.0,0.0,0.0,0.0,0.0,0.0,0.0,0.0,0.0,0.0,0.0,0.0,0.0,0.0,0.0,0.0,0.0,0.0,0.0,0.0,0.0,0.0,0.0,0.0,0.0,0.0,0.0,0.0,0.0,0.0,0.0,0.0,0.0,0.0,0.0,0.0,0.0,0.0,0.0,0.0,0.0,0.0,0.0,0.0,0.0,0.0,0.0,0.0,0.0,0.0,0.0,0.0,0.0,0.0,0.0,0.0,0.0,0.0,0.0,0.0,0.0,0.0,0.0,0.0,0.0,0.0,0.0,0.0,0.0,0.0,0.0,0.0,0.0,0.0,0.0,0.0,0.0,0.0,0.0,0.0,0.0,0.0,0.0,0.0,0.0,0.0,0.0,0.0,0.0,0.0,0.0,0.0,0.0,0.0,0.0,0.0,0.0,0.0,0.0,0.0,0.0,0.0,0.0,0.0,0.0,0.0,0.0,0.0,0.0,0.0,0.0,0.0,0.0,0.0,0.0,0.0,0.0,0.0,0.0,0.0,0.0,0.0,0.0,0.0,0.0,0.0,0.0,0.0,0.0,0.0,0.0,0.0,0.0,0.0,0.0,0.0,0.0,0.0,0.0,0.0,0.0,0.0,0.0,0.0,0.0,0.0,0.0,0.0,0.0,0.0,0.0,0.0,0.0,0.0,0.0,0.0,0.0,0.0,0.0,0.0,0.0,0.0,0.0,0.0,0.0,0.0,0.0,0.0,0.0,0.0,0.0,0.0,0.0,0.0,0.0,0.0,0.0,0.0,0.0,0.0,0.0,0.0,0.0,0.0,0.0,0.0,0.0,0.0,0.0,0.0,0.0,0.0,0.0,0.0,0.0,0.0,0.0,0.0,0.0,0.0,0.0,0.0,0.0,0.0,0.0,0.0,0.0,0.0,0.0,0.0,0.0,0.0,0.0,0.0,0.0,0.0,0.0,0.0,0.0,0.0,0.0,0.0,0.0,0.0,0.0,0.0,0.0,0.0,0.0,0.0,0.0,0.0,0.0,0.0,0.0,0.0,0.0,0.0,0.0,0.0,0.0,0.0,0.0,0.0,0.0,0.0,0.0,0.0,0.0,0.0,0.0,0.0,0.0,0.0,0.0,0.0,0.0,0.0,0.0,0.0,0.0,0.0,0.0,0.0,0.0,0.0,0.0,0.0,0.0,0.0,0.0,0.0,0.0,0.0,0.0,0.0,0.0,0.0,0.0,0.0,0.0,0.0,0.0,0.0,0.0,0.0,0.0,0.0,0.0,0.0,0.0,0.0,0.0,0.0,0.0,0.0,0.0,0.0,0.0,0.0,0.0,0.0,0.0,0.0,0.0,0.0,0.0,0.0,0.0,0.0,0.0,0.0,0.0,0.0,0.0,0.0,0.0,0.0,0.0,0.0,0.0,0.0,0.0,0.0,0.0,0.0,0.0,0.0,0.0,0.0,0.0,0.0,0.0,0.0,0.0,0.0,0.0,0.0,0.0,0.0,0.0,0.0,0.0,0.0,0.0,0.0,0.0,0.0,0.0,0.0,0.0,0.0,0.0,0.0,0.0,0.0,0.0,0.0,0.0,0.0,0.0,0.0,0.0,0.0,0.0,0.0,0.0,0.0,0.0,0.0,0.0,0.0,0.0,0.0,0.0,0.0,0.0,0.0,0.0,0.0,0.0,0.0,0.0,0.0,0.0,0.0,0.0,0.0,0.0,0.0,0.0,0.0,0.0,0.0,0.0,0.0,0.0,0.0,0.0,0.0,0.0,0.0,0.0,0.0,0.0,0.0,0.0,0.0,0.0,0.0,0.0,0.0,0.0,0.0,0.0,0.0,0.0,0.0,0.0,0.0,0.0,0.0,0.0,0.0,0.0,0.0,0.0,0.0,0.0,0.0,0.0,0.0,0.0,0.0,0.0,0.0,0.0,0.0,0.0,0.0,0.0,0.0,0.0,0.0,0.0,0.0,0.0,0.0,0.0,0.0,0.0,0.0,0.0,0.0,0.0,0.0,0.0,0.0,0.0,0.0,0.0,0.0,0.0,0.0,0.0,0.0,0.0,0.0,0.0,0.0,0.0,0.0,0.0,0.0,0.0,0.0,0.0,0.0,0.0,0.0,0.0,0.0,0.0,0.0,0.0,0.0,0.0,0.0,0.0,0.0,0.0,0.0,0.0,0.0,0.0,0.0,0.0,0.0,0.0,0.0,0.0,0.0,0.0,0.0,0.0,0.0,0.0,0.0,0.0,0.0,0.0,0.0,0.0,0.0,0.0,0.0,0.0,0.0,0.0,0.0,0.0,0.0,0.0,0.0,0.0,0.0,0.0,0.0,0.0,0.0,0.0,0.0,0.0,0.0,0.0,0.0,0.0,0.0,0.0,0.0,0.0,0.0,0.0,0.0,0.0,0.0,0.0,0.0,0.0,0.0,0.0,0.0,0.0,0.0,0.0,0.0,0.0,0.0,0.0,0.0,0.0,0.0,0.0,0.0,0.0,0.0,0.0,0.0,0.0,0.0,0.0,0.0,0.0,0.0,0.0,0.0,0.0,0.0,0.0,0.0,0.0,0.0,0.0,0.0,0.0,0.0,0.0,0.0,0.0,0.0,0.0,0.0,0.0,0.0,0.0,0.0,0.0,0.0,0.0,0.0,0.0,0.0,0.0,0.0,0.0,0.0,0.0,0.0,0.0,0.0,0.0,0.0,0.0,0.0,0.0,0.0,0.0,0.0,0.0,0.0,0.0,0.0,0.0,0.0,0.0,0.0,0.0,0.0,0.0,0.0,0.0,0.0,0.0,0.0,0.0,0.0,0.0,0.0,0.0,0.0,0.0,0.0,0.0,0.0,0.0,0.0,0.0,0.0,0.0,0.0,0.0,0.0,0.0,0.0,0.0,0.0,0.0,0.0,0.0,0.0,0.0,0.0,0.0,0.0,0.0,0.0,0.0,0.0,0.0,0.0,0.0,0.0,0.0,0.0,0.0,0.0,0.0,0.0,0.0,0.0,0.0,0.0,0.0,0.0,0.0,0.0,0.0,0.0,0.0,0.0,0.0,0.0,0.0,0.0,0.0,0.0,0.0,0.0,0.0,0.0,0.0,0.0,0.0,0.0,0.0,0.0,0.0,0.0,0.0,0.0,0.0,0.0,0.0,0.0,0.0,0.0,0.0,0.0,0.0,0.0,0.0,0.0,0.0,0.0,0.0,0.0,0.0,0.0,0.0,0.0,0.0,0.0,0.0,0.0,0.0,0.0,0.0,0.0,0.0,0.0,0.0,0.0,0.0,0.0,0.0,0.0,0.0,0.0,0.0,0.0,0.0,0.0,0.0,0.0,0.0,0.0,0.0,0.0,0.0,0.0,0.0,0.0,0.0,0.0,0.0,0.0,0.0,0.0,0.0,0.0,0.0,0.0,0.0,0.0,0.0,0.0,0.0,0.0,0.0,0.0,0.0,0.0,0.0,0.0,0.0,0.0,0.0,0.0,0.0,0.0,0.0,0.0,0.0,0.0,0.0,0.0,0.0,0.0,0.0,0.0,0.0,0.0,0.0,0.0,0.0,0.0,0.0,0.0,0.0,0.0,0.0,0.0,0.0,0.0,0.0,0.0,0.0,0.0,0.0,0.0,0.0,0.0,0.0,0.0,0.0,0.0,0.0,0.0,0.0,0.0,0.0,0.0,0.0,0.0,0.0,0.0,0.0,0.0,0.0,0.0,0.0,0.0,0.0,0.0,0.0,0.0,0.0,0.0,0.0,0.0,0.0,0.0,0.0,0.0,0.0,0.0,0.0,0.0,0.0,0.0,0.0,0.0,0.0,0.0,0.0,0.0,0.0,0.0,0.0,0.0,0.0,0.0,0.0,0.0,0.0,0.0,0.0,0.0,0.0,0.0,0.0,0.0,0.0,0.0,0.0,0.0,0.0,0.0,0.0,0.0,0.0,0.0,0.0,0.0,0.0,0.0,0.0,0.0,0.0,0.0,0.0,0.0,0.0,0.0,0.0,0.0,0.0,0.0,0.0,0.0,0.0,0.0,0.0,0.0,0.0,0.0,0.0,0.0,0.0,0.0,0.0,0.0,0.0,0.0,0.0,0.0,0.0,0.0,0.0,0.0,0.0,0.0,0.0,0.0,0.0,0.0,0.0,0.0,0.0,0.0,0.0,0.0,0.0,0.0,0.0,0.0,0.0,0.0,0.0,0.0,0.0,0.0,0.0,0.0,0.0,0.0,-6.504,0.0,0.0,0.0,0.0,0.0,0.0,0.0,0.0,0.0,0.0,0.0,0.0,0.0,0.0,0.0,0.0,0.0,0.0,0.0,0.0,0.0,0.0,0.0,0.0,0.0,0.0,0.0,0.0,0.0,0.0,0.0,0.0,0.0,0.0,0.0,0.0,0.0,0.0,0.0,0.0,0.0,0.0,0.0,0.0,0.0,0.0,0.0,0.0,0.0,0.0,0.0,0.0,0.0,0.0,0.0,0.0,0.0,0.0,0.0,0.0,0.0,0.0,0.0,0.0,0.0,0.0,0.0,0.0,0.0,0.0,0.0,0.0,0.0,0.0,0.0,0.0,0.0,0.0,0.0,0.0,0.0,0.0,0.0,0.0,0.0,0.0,0.0,0.0,0.0,0.0,0.0,0.0,0.0,0.0,0.0,0.0,0.0,0.0,0.0,0.0,0.0,0.0,0.0,0.0,0.0,0.0,0.0,0.0,0.0,0.0,-6.5621,-6.5656,-6.5203,-6.4958,-6.4958,0.0,0.0,0.0,0.0,0.0,0.0,0.0,0.0,0.0,0.0,0.0,0.0,0.0,0.0,0.0,0.0,0.0,0.0,0.0,0.0,0.0,0.0,0.0,0.0,0.0,0.0,0.0,0.0,0.0,0.0,0.0,0.0,0.0,0.0,0.0,0.0,0.0,0.0,0.0,0.0,0.0,0.0,0.0,0.0,0.0,0.0,0.0,0.0,0.0,0.0,0.0,0.0,0.0,0.0,0.0,0.0,0.0,0.0,0.0,0.0,0.0,0.0,0.0,0.0,0.0,0.0,0.0,0.0,0.0,0.0,0.0,0.0,0.0,0.0,0.0,0.0,0.0,0.0,0.0,0.0,0.0,0.0,0.0,0.0,0.0,0.0,0.0,0.0,0.0,0.0,0.0,0.0,0.0,0.0,0.0,0.0,0.0,0.0,0.0,0.0,0.0,0.0,0.0,0.0,0.0,0.0,0.0,0.0,0.0,0.0,0.0,0.0,-6.514,-6.4781,-6.4763,0.0,0.0,0.0,0.0,0.0,0.0,0.0,0.0,0.0,0.0,0.0,0.0,0.0,0.0,0.0,0.0,0.0,0.0,0.0,0.0,0.0,0.0,0.0,0.0,0.0,0.0,0.0,0.0,0.0,0.0,0.0,0.0,0.0,0.0,0.0,0.0,0.0,0.0,0.0,0.0,0.0,0.0,0.0,0.0,0.0,0.0,0.0,0.0,0.0,0.0,0.0,0.0,0.0,0.0,0.0,0.0,0.0,0.0,0.0,0.0,0.0,0.0,0.0,0.0,0.0,0.0,0.0,0.0,0.0,0.0,0.0,0.0,0.0,0.0,0.0,0.0,0.0,0.0,0.0,0.0,0.0,0.0,0.0,0.0,0.0,0.0,0.0,0.0,0.0,0.0,0.0,0.0,0.0,0.0,0.0,0.0,0.0,0.0,0.0,0.0,0.0,0.0,0.0,0.0,0.0,0.0,0.0,0.0,0.0,0.0,-6.4747,-6.4728,-6.4577,0.0,-6.4364,0.0,0.0,0.0,0.0,0.0,0.0,0.0,0.0,0.0,0.0,0.0,0.0,0.0,0.0,0.0,0.0,0.0,0.0,0.0,0.0,0.0,0.0,0.0,0.0,0.0,0.0,0.0,0.0,0.0,0.0,0.0,0.0,0.0,0.0,0.0,0.0,0.0,0.0,0.0,0.0,0.0,0.0,0.0,0.0,0.0,0.0,0.0,0.0,0.0,0.0,0.0,0.0,0.0,0.0,0.0,0.0,0.0,0.0,0.0,0.0,0.0,0.0,0.0,0.0,0.0,0.0,0.0,0.0,0.0,0.0,0.0,0.0,0.0,0.0,0.0,0.0,0.0,0.0,0.0,0.0,0.0,0.0,0.0,0.0,0.0,0.0,0.0,0.0,0.0,0.0,0.0,0.0,0.0,0.0,0.0,0.0,0.0,0.0,0.0,0.0,0.0,0.0,0.0,0.0,0.0,0.0,0.0,0.0,0.0,0.0,-6.4577,-6.4463,-6.4366,-6.4324,0.0,0.0,0.0,0.0,0.0,0.0,0.0,0.0,0.0,0.0,0.0,0.0,0.0,0.0,0.0,0.0,0.0,0.0,0.0,0.0,0.0,0.0,0.0,0.0,0.0,0.0,0.0,0.0,0.0,0.0,0.0,0.0,0.0,0.0,0.0,0.0,0.0,0.0,0.0,0.0,0.0,0.0,0.0,0.0,0.0,0.0,0.0,0.0,0.0,0.0,0.0,0.0,0.0,0.0,0.0,0.0,0.0,0.0,0.0,0.0,0.0,0.0,0.0,0.0,0.0,0.0,0.0,0.0,0.0,0.0,0.0,0.0,0.0,0.0,0.0,0.0,0.0,0.0,0.0,0.0,0.0,0.0,0.0,0.0,0.0,0.0,0.0,0.0,0.0,0.0,0.0,0.0,0.0,0.0,0.0,0.0,0.0,0.0,0.0,0.0,0.0,0.0,0.0,0.0,0.0,0.0,0.0,0.0,0.0,0.0,-6.5613,-6.4783,-6.4685,-6.4437,-6.4284,-6.4284,0.0,0.0,0.0,0.0,0.0,0.0,0.0,0.0,0.0,0.0,0.0,0.0,0.0,0.0,0.0,0.0,0.0,0.0,0.0,0.0,0.0,0.0,0.0,0.0,0.0,0.0,0.0,0.0,0.0,0.0,0.0,0.0,0.0,0.0,0.0,0.0,0.0,0.0,0.0,0.0,0.0,0.0,0.0,0.0,0.0,0.0,0.0,0.0,0.0,0.0,0.0,0.0,0.0,0.0,0.0,0.0,0.0,0.0,0.0,0.0,0.0,0.0,0.0,0.0,0.0,0.0,0.0,0.0,0.0,0.0,0.0,0.0,0.0,0.0,0.0,0.0,0.0,0.0,0.0,0.0,0.0,0.0,0.0,0.0,0.0,0.0,0.0,0.0,0.0,0.0,0.0,0.0,0.0,0.0,0.0,0.0,0.0,0.0,0.0,0.0,0.0,0.0,0.0,0.0,0.0,0.0,0.0,0.0,-6.6783,-6.5919,-6.5448,-6.5411,-6.4697,-6.4284,0.0,0.0,0.0,0.0,0.0,0.0,0.0,0.0,0.0,0.0,0.0,0.0,0.0,0.0,0.0,0.0,0.0,0.0,0.0,0.0,0.0,0.0,0.0,0.0,0.0,0.0,0.0,0.0,0.0,0.0,0.0,0.0,0.0,0.0,0.0,0.0,0.0,0.0,0.0,0.0,0.0,0.0,0.0,0.0,0.0,0.0,0.0,0.0,0.0,0.0,0.0,0.0,0.0,0.0,0.0,0.0,0.0,0.0,0.0,0.0,0.0,0.0,0.0,0.0,0.0,0.0,0.0,0.0,0.0,0.0,0.0,0.0,0.0,0.0,0.0,0.0,0.0,0.0,0.0,0.0,0.0,0.0,0.0,0.0,0.0,0.0,0.0,0.0,0.0,0.0,0.0,0.0,0.0,0.0,0.0,0.0,0.0,0.0,0.0,0.0,0.0,0.0,0.0,0.0,0.0,0.0,0.0,0.0,0.0,-6.6746,-6.5448,-6.4735,-6.4697,-6.4455,-6.4284,0.0,0.0,0.0,0.0,0.0,0.0,0.0,0.0,0.0,0.0,0.0,0.0,0.0,0.0,0.0,0.0,0.0,0.0,0.0,0.0,0.0,0.0,0.0,0.0,0.0,0.0,0.0,0.0,0.0,0.0,0.0,0.0,0.0,0.0,0.0,0.0,0.0,0.0,0.0,0.0,0.0,0.0,0.0,0.0,0.0,0.0,0.0,0.0,0.0,0.0,0.0,0.0,0.0,0.0,0.0,0.0,0.0,0.0,0.0,0.0,0.0,0.0,0.0,0.0,0.0,0.0,0.0,0.0,0.0,0.0,0.0,0.0,0.0,0.0,0.0,0.0,0.0,0.0,0.0,0.0,0.0,0.0,0.0,0.0,0.0,0.0,0.0,0.0,0.0,0.0,0.0,0.0,0.0,0.0,0.0,0.0,0.0,0.0,0.0,0.0,0.0,0.0,0.0,0.0,0.0,0.0,0.0,0.0,0.0,-6.6349,0.0,-6.4417,-6.466,-6.4356,-6.4244,0.0,0.0,0.0,0.0,0.0,0.0,0.0,0.0,0.0,0.0,0.0,0.0,0.0,0.0,0.0,0.0,0.0,0.0,0.0,0.0,0.0,0.0,0.0,0.0,0.0,0.0,0.0,0.0,0.0,0.0,0.0,0.0,0.0,0.0,0.0,0.0,0.0,0.0,0.0,0.0,0.0,0.0,0.0,0.0,0.0,0.0,0.0,0.0,0.0,0.0,0.0,0.0,0.0,0.0,0.0,0.0,0.0,0.0,0.0,0.0,0.0,0.0,0.0,0.0,0.0,0.0,0.0,0.0,0.0,0.0,0.0,0.0,0.0,0.0,0.0,0.0,0.0,0.0,0.0,0.0,0.0,0.0,0.0,0.0,0.0,0.0,0.0,0.0,0.0,0.0,0.0,0.0,0.0,0.0,0.0,0.0,0.0,0.0,0.0,0.0,0.0,0.0,0.0,0.0,0.0,0.0,0.0,0.0,-6.6312,-6.5523,-6.4697,-6.466,-6.5411,-6.4558,-6.4083,0.0,0.0,0.0,0.0,0.0,0.0,0.0,0.0,0.0,0.0,0.0,0.0,0.0,0.0,0.0,0.0,0.0,0.0,0.0,0.0,0.0,0.0,0.0,0.0,0.0,0.0,0.0,0.0,0.0,0.0,0.0,0.0,0.0,0.0,0.0,0.0,0.0,0.0,0.0,0.0,0.0,0.0,0.0,0.0,0.0,0.0,0.0,0.0,0.0,0.0,0.0,0.0,0.0,0.0,0.0,0.0,0.0,0.0,0.0,0.0,0.0,0.0,0.0,0.0,0.0,0.0,0.0,0.0,0.0,0.0,0.0,0.0,0.0,0.0,0.0,0.0,0.0,0.0,0.0,0.0,0.0,0.0,0.0,0.0,0.0,0.0,0.0,0.0,0.0,0.0,0.0,0.0,0.0,0.0,0.0,0.0,0.0,0.0,0.0,0.0,0.0,0.0,0.0,0.0,0.0,0.0,0.0,0.0,0.0,-6.4697,-6.4434,-6.4356,-6.452,-6.4254,-6.4079,0.0,0.0,0.0,0.0,0.0,0.0,0.0,0.0,0.0,0.0,0.0,0.0,0.0,0.0,0.0,0.0,0.0,0.0,0.0,0.0,0.0,0.0,0.0,0.0,0.0,0.0,0.0,0.0,0.0,0.0,0.0,0.0,0.0,0.0,0.0,0.0,0.0,0.0,0.0,0.0,0.0,0.0,0.0,0.0,0.0,0.0,0.0,0.0,0.0,0.0,0.0,0.0,0.0,0.0,0.0,0.0,0.0,0.0,0.0,0.0,0.0,0.0,0.0,0.0,0.0,0.0,0.0,0.0,0.0,0.0,0.0,0.0,0.0,0.0,0.0,0.0,0.0,0.0,0.0,0.0,0.0,0.0,0.0,0.0,0.0,0.0,0.0,0.0,0.0,0.0,0.0,0.0,0.0,0.0,0.0,0.0,0.0,0.0,0.0,0.0,0.0,0.0,0.0,0.0,0.0,0.0,0.0,0.0,0.0,-6.4037,-6.4203,-6.4244,-6.4083,-6.4037,-6.3931,-6.3786,0.0,0.0,0.0,0.0,0.0,0.0,0.0,0.0,0.0,0.0,0.0,0.0,0.0,0.0,0.0,0.0,0.0,0.0,0.0,0.0,0.0,0.0,0.0,0.0,0.0,0.0,0.0,0.0,0.0,0.0,0.0,0.0,0.0,0.0,0.0,0.0,0.0,0.0,0.0,0.0,0.0,0.0,0.0,0.0,0.0,0.0,0.0,0.0,0.0,0.0,0.0,0.0,0.0,0.0,0.0,0.0,0.0,0.0,0.0,0.0,0.0,0.0,0.0,0.0,0.0,0.0,0.0,0.0,0.0,0.0,0.0,0.0,0.0,0.0,0.0,0.0,0.0,0.0,0.0,0.0,0.0,0.0,0.0,0.0,0.0,0.0,0.0,0.0,0.0,0.0,0.0,0.0,0.0,0.0,0.0,0.0,0.0,0.0,0.0,0.0,0.0,0.0,0.0,0.0,0.0,0.0,0.0,0.0,-6.3579,-6.3979,-6.4183,-6.4042,-6.3867,-6.3691,0.0,0.0,0.0,0.0,0.0,0.0,0.0,0.0,0.0,0.0,0.0,0.0,0.0,0.0,0.0,0.0,0.0,0.0,0.0,0.0,0.0,0.0,0.0,0.0,0.0,0.0,0.0,0.0,0.0,0.0,0.0,0.0,0.0,0.0,0.0,0.0,0.0,0.0,0.0,0.0,0.0,0.0,0.0,0.0,0.0,0.0,0.0,0.0,0.0,0.0,0.0,0.0,0.0,0.0,0.0,0.0,0.0,0.0,0.0,0.0,0.0,0.0,0.0,0.0,0.0,0.0,0.0,0.0,0.0,0.0,0.0,0.0,0.0,0.0,0.0,0.0,0.0,0.0,0.0,0.0,0.0,0.0,0.0,0.0,0.0,0.0,0.0,0.0,0.0,0.0,0.0,0.0,0.0,0.0,0.0,0.0,0.0,0.0,0.0,0.0,0.0,0.0,0.0,0.0,0.0,0.0,0.0,0.0,0.0,-6.3215,-6.3354,-6.3482,-6.3565,-6.3405,-6.3312,0.0,0.0,0.0,0.0,0.0,0.0,0.0,0.0,0.0,0.0,0.0,0.0,0.0,0.0,0.0,0.0,0.0,0.0,0.0,0.0,0.0,0.0,0.0,0.0,0.0,0.0,0.0,0.0,0.0,0.0,0.0,0.0,0.0,0.0,0.0,0.0,0.0,0.0,0.0,0.0,0.0,0.0,0.0,0.0,0.0,0.0,0.0,0.0,0.0,0.0,0.0,0.0,0.0,0.0,0.0,0.0,0.0,0.0,0.0,0.0,0.0,0.0,0.0,0.0,0.0,0.0,0.0,0.0,0.0,0.0,0.0,0.0,0.0,0.0,0.0,0.0,0.0,0.0,0.0,0.0,0.0,0.0,0.0,0.0,0.0,0.0,0.0,0.0,0.0,0.0,0.0,0.0,0.0,0.0,0.0,0.0,0.0,0.0,0.0,0.0,0.0,0.0,0.0,0.0,0.0,0.0,0.0,0.0,-6.2659,-6.2328,-6.2573,-6.2634,-6.2463,-6.2818,-6.3002,0.0,0.0,0.0,0.0,0.0,0.0,0.0,0.0,0.0,0.0,0.0,0.0,0.0,0.0,0.0,0.0,0.0,0.0,0.0,0.0,0.0,0.0,0.0,0.0,0.0,0.0,0.0,0.0,0.0,0.0,0.0,0.0,0.0,0.0,0.0,0.0,0.0,0.0,0.0,0.0,0.0,0.0,0.0,0.0,0.0,0.0,0.0,0.0,0.0,0.0,0.0,0.0,0.0,0.0,0.0,0.0,0.0,0.0,0.0,0.0,0.0,0.0,0.0,0.0,0.0,0.0,0.0,0.0,0.0,0.0,0.0,0.0,0.0,0.0,0.0,0.0,0.0,0.0,0.0,0.0,0.0,0.0,0.0,0.0,0.0,0.0,0.0,0.0,0.0,0.0,0.0,0.0,0.0,0.0,0.0,0.0,0.0,0.0,0.0,0.0,0.0,0.0,0.0,0.0,0.0,0.0,0.0,0.0,-6.2016,-6.1324,-6.1875,-6.1885,-6.136,-6.2237,-6.2679,0.0,0.0,0.0,0.0,0.0,0.0,0.0,0.0,0.0,0.0,0.0,0.0,0.0,0.0,0.0,0.0,0.0,0.0,0.0,0.0,0.0,0.0,0.0,0.0,0.0,0.0,0.0,0.0,0.0,0.0,0.0,0.0,0.0,0.0,0.0,0.0,0.0,0.0,0.0,0.0,0.0,0.0,0.0,0.0,0.0,0.0,0.0,0.0,0.0,0.0,0.0,0.0,0.0,0.0,0.0,0.0,0.0,0.0,0.0,0.0,0.0,0.0,0.0,0.0,0.0,0.0,0.0,0.0,0.0,0.0,0.0,0.0,0.0,0.0,0.0,0.0,0.0,0.0,0.0,0.0,0.0,0.0,0.0,0.0,0.0,0.0,0.0,0.0,0.0,0.0,0.0,0.0,0.0,0.0,0.0,0.0,0.0,0.0,0.0,0.0,0.0,0.0,0.0,0.0,0.0,0.0,0.0,0.0,-6.2014,-6.1833,-6.1987,-6.1987,-6.1833,-6.2139,-6.2381,0.0,0.0,0.0,0.0,0.0,0.0,0.0,0.0,0.0,0.0,0.0,0.0,0.0,0.0,0.0,0.0,0.0,0.0,0.0,0.0,0.0,0.0,0.0,0.0,0.0,0.0,0.0,0.0,0.0,0.0,0.0,0.0,0.0,0.0,0.0,0.0,0.0,0.0,0.0,0.0,0.0,0.0,0.0,0.0,0.0,0.0,0.0,0.0,-6.1386,0.0,0.0,0.0,0.0,0.0,0.0,0.0,0.0,0.0,0.0,0.0,0.0,0.0,0.0,0.0,0.0,0.0,0.0,0.0,0.0,0.0,0.0,0.0,0.0,0.0,0.0,0.0,0.0,0.0,0.0,0.0,0.0,0.0,0.0,0.0,0.0,0.0,0.0,0.0,0.0,0.0,0.0,0.0,0.0,0.0,0.0,0.0,0.0,0.0,0.0,0.0,0.0,0.0,0.0,0.0,0.0,0.0,0.0,0.0,-6.1604,-6.1243,-6.1687,-6.1715,-6.1389,-6.1851,-6.2141,0.0,0.0,0.0,0.0,0.0,0.0,0.0,0.0,0.0,0.0,0.0,0.0,0.0,0.0,0.0,0.0,0.0,0.0,0.0,0.0,0.0,0.0,0.0,0.0,0.0,0.0,0.0,0.0,0.0,0.0,0.0,0.0,0.0,0.0,0.0,0.0,0.0,0.0,0.0,0.0,0.0,0.0,0.0,0.0,0.0,0.0,0.0,0.0,0.0,0.0,0.0,0.0,0.0,0.0,0.0,0.0,0.0,0.0,0.0,0.0,0.0,0.0,0.0,0.0,0.0,0.0,0.0,0.0,0.0,0.0,0.0,0.0,0.0,0.0,0.0,0.0,0.0,0.0,0.0,0.0,0.0,0.0,0.0,0.0,0.0,0.0,0.0,0.0,0.0,0.0,0.0,0.0,0.0,0.0,0.0,0.0,0.0,0.0,0.0,0.0,0.0,0.0,0.0,0.0,0.0,0.0,0.0,-6.1595,-6.1299,-6.0652,-6.1376,-6.1432,-6.0782,-6.1506,-6.1923,-6.1923,0.0,0.0,0.0,0.0,0.0,0.0,0.0,0.0,0.0,0.0,0.0,0.0,0.0,0.0,0.0,0.0,0.0,0.0,0.0,0.0,0.0,0.0,0.0,0.0,0.0,0.0,0.0,0.0,0.0,0.0,0.0,0.0,0.0,0.0,0.0,0.0,0.0,0.0,-6.0614,-6.0609,0.0,0.0,0.0,0.0,0.0,0.0,0.0,0.0,-6.0578,0.0,0.0,0.0,0.0,0.0,0.0,0.0,0.0,0.0,0.0,0.0,0.0,0.0,0.0,0.0,0.0,0.0,0.0,0.0,0.0,0.0,0.0,0.0,0.0,0.0,0.0,0.0,0.0,0.0,0.0,0.0,0.0,0.0,0.0,0.0,0.0,0.0,0.0,0.0,0.0,0.0,0.0,0.0,0.0,0.0,0.0,0.0,0.0,0.0,0.0,0.0,0.0,0.0,0.0,0.0,0.0,-6.1357,-6.1501,-6.1551,-6.1407,-6.1551,-6.1579,-6.1436,-6.1608,-6.168,-6.1708,0.0,0.0,0.0,0.0,0.0,0.0,0.0,0.0,0.0,0.0,0.0,0.0,0.0,0.0,0.0,0.0,0.0,0.0,0.0,0.0,0.0,0.0,0.0,0.0,0.0,0.0,0.0,0.0,0.0,0.0,0.0,0.0,0.0,0.0,0.0,0.0,0.0,0.0,0.0,-6.0609,-6.0609,0.0,0.0,0.0,0.0,0.0,0.0,0.0,0.0,-6.064,0.0,0.0,0.0,0.0,0.0,0.0,0.0,0.0,0.0,0.0,0.0,0.0,0.0,0.0,0.0,0.0,0.0,0.0,0.0,0.0,0.0,0.0,0.0,0.0,0.0,0.0,0.0,0.0,0.0,0.0,0.0,0.0,0.0,0.0,0.0,0.0,0.0,0.0,0.0,0.0,0.0,0.0,0.0,0.0,0.0,0.0,0.0,0.0,0.0,0.0,0.0,0.0,0.0,0.0,0.0,-6.1283,-6.1211,-6.1176,-6.1176,-6.1299,-6.1328,-6.1364,-6.1386,-6.1444,0.0,0.0,0.0,0.0,0.0,0.0,0.0,0.0,0.0,0.0,0.0,0.0,0.0,0.0,0.0,0.0,0.0,0.0,0.0,0.0,0.0,0.0,0.0,0.0,0.0,0.0,0.0,0.0,0.0,0.0,0.0,0.0,0.0,0.0,0.0,0.0,0.0,0.0,0.0,0.0,-6.0329,-6.0329,-6.0329,0.0,0.0,0.0,0.0,0.0,0.0,-6.0297,-6.0329,0.0,0.0,0.0,0.0,0.0,0.0,0.0,0.0,0.0,0.0,0.0,0.0,0.0,0.0,0.0,0.0,0.0,0.0,0.0,0.0,0.0,0.0,0.0,0.0,0.0,0.0,0.0,0.0,0.0,0.0,0.0,0.0,0.0,0.0,0.0,0.0,0.0,0.0,0.0,0.0,0.0,0.0,0.0,0.0,0.0,0.0,0.0,0.0,0.0,0.0,0.0,0.0,0.0,0.0,0.0,-6.1165,-6.0908,-6.0782,-6.0818,-6.0944,-6.1004,-6.1004,-6.1093,-6.1182,0.0,0.0,0.0,0.0,0.0,0.0,0.0,0.0,0.0,0.0,0.0,0.0,0.0,0.0,0.0,0.0,0.0,0.0,0.0,0.0,0.0,0.0,0.0,0.0,0.0,0.0,0.0,0.0,0.0,0.0,0.0,0.0,0.0,0.0,0.0,0.0,0.0,0.0,0.0,0.0,0.0,-6.0036,-5.9896,-6.0001,0.0,0.0,0.0,0.0,-5.9896,-5.9861,0.0,0.0,0.0,0.0,0.0,0.0,0.0,0.0,0.0,0.0,0.0,0.0,0.0,0.0,0.0,0.0,0.0,0.0,0.0,0.0,0.0,0.0,0.0,0.0,0.0,0.0,0.0,0.0,0.0,0.0,0.0,0.0,0.0,0.0,0.0,0.0,0.0,0.0,0.0,0.0,0.0,0.0,0.0,0.0,0.0,0.0,0.0,0.0,0.0,0.0,0.0,0.0,0.0,0.0,0.0,0.0,-6.1165,-6.0908,-6.0782,-6.0782,-6.0696,-6.064,-6.064,-6.0671,-6.0671,0.0,0.0,0.0,0.0,0.0,0.0,0.0,0.0,0.0,0.0,0.0,0.0,0.0,0.0,0.0,0.0,0.0,0.0,0.0,0.0,0.0,0.0,0.0,0.0,0.0,0.0,0.0,0.0,0.0,0.0,0.0,0.0,0.0,0.0,0.0,0.0,0.0,0.0,0.0,0.0,0.0,-5.9861,-5.9229,-5.9685,-5.9615,0.0,0.0,-5.9124,-5.9124,-5.9124,0.0,0.0,0.0,0.0,0.0,0.0,0.0,0.0,0.0,0.0,0.0,0.0,0.0,0.0,0.0,0.0,0.0,0.0,0.0,0.0,0.0,0.0,0.0,0.0,0.0,0.0,0.0,0.0,0.0,0.0,0.0,0.0,0.0,0.0,0.0,0.0,0.0,0.0,0.0,0.0,0.0,0.0,0.0,0.0,0.0,0.0,0.0,0.0,0.0,0.0,0.0,0.0,0.0,0.0,0.0,-6.2017,-6.0894,-6.0671,-6.0578,-6.0578,-6.0516,-6.0489,-6.0489,-6.0878,-6.1125,0.0,0.0,0.0,0.0,0.0,0.0,0.0,0.0,0.0,0.0,0.0,0.0,0.0,0.0,0.0,0.0,0.0,0.0,0.0,0.0,0.0,0.0,0.0,0.0,0.0,0.0,0.0,0.0,0.0,0.0,0.0,0.0,0.0,0.0,0.0,0.0,0.0,0.0,0.0,0.0,0.0,0.0,-5.9124,-5.9299,0.0,0.0,0.0,-5.9018,-5.9018,0.0,0.0,0.0,0.0,0.0,0.0,0.0,0.0,0.0,0.0,0.0,0.0,0.0,0.0,0.0,0.0,0.0,0.0,0.0,0.0,0.0,0.0,0.0,0.0,0.0,0.0,0.0,0.0,0.0,0.0,0.0,0.0,0.0,0.0,0.0,0.0,0.0,0.0,0.0,0.0,0.0,0.0,0.0,0.0,0.0,0.0,0.0,0.0,0.0,0.0,0.0,0.0,0.0,0.0,0.0,0.0,0.0,-6.1211,-6.0846,-6.0783,-6.096,-6.0928,-6.0896,-6.0896,-6.1424,0.0,0.0,0.0,0.0,0.0,0.0,0.0,0.0,0.0,0.0,0.0,0.0,0.0,0.0,0.0,0.0,0.0,0.0,0.0,0.0,0.0,0.0,0.0,0.0,0.0,0.0,0.0,-6.1581,0.0,0.0,0.0,0.0,0.0,0.0,0.0,0.0,0.0,0.0,0.0,0.0,0.0,0.0,-5.9826,-5.9124,-5.9159,-5.8948,0.0,0.0,-5.9018,-5.9018,-5.9475,-5.9896,0.0,0.0,0.0,0.0,0.0,0.0,0.0,0.0,0.0,0.0,0.0,0.0,0.0,0.0,0.0,0.0,0.0,0.0,0.0,0.0,0.0,0.0,0.0,0.0,0.0,0.0,0.0,0.0,0.0,0.0,0.0,0.0,0.0,0.0,0.0,0.0,0.0,0.0,0.0,0.0,0.0,0.0,0.0,0.0,0.0,0.0,0.0,0.0,0.0,0.0,0.0,0.0,0.0,0.0,0.0,-6.2701,-6.187,-6.1774,-6.2511,-6.2347,-6.2281,-6.2281,-6.2317,-6.2352,0.0,0.0,0.0,0.0,0.0,0.0,0.0,0.0,0.0,0.0,0.0,0.0,0.0,0.0,0.0,0.0,0.0,0.0,0.0,0.0,0.0,0.0,0.0,0.0,0.0,0.0,0.0,0.0,0.0,0.0,0.0,0.0,0.0,0.0,0.0,0.0,0.0,0.0,0.0,0.0,0.0,-5.9826,-5.9124,-5.958,-5.9475,0.0,0.0,-5.9018,-5.9018,-5.9053,-5.9334,-6.0001,0.0,0.0,0.0,0.0,0.0,0.0,0.0,0.0,0.0,0.0,0.0,0.0,0.0,0.0,0.0,0.0,0.0,0.0,0.0,0.0,0.0,0.0,0.0,0.0,0.0,0.0,0.0,0.0,0.0,0.0,0.0,0.0,0.0,0.0,0.0,0.0,0.0,0.0,0.0,0.0,0.0,0.0,0.0,0.0,0.0,0.0,0.0,0.0,0.0,0.0,0.0,0.0,0.0,-6.2717,-6.2587,-6.224,-6.2207,-6.2488,-6.2422,-6.2422,-6.2422,-6.2845,-6.3126,0.0,0.0,0.0,0.0,0.0,0.0,0.0,0.0,0.0,0.0,0.0,0.0,0.0,0.0,0.0,0.0,0.0,0.0,0.0,0.0,0.0,0.0,0.0,0.0,0.0,0.0,0.0,0.0,-6.13,-6.0563,-6.0563,0.0,0.0,0.0,0.0,0.0,0.0,0.0,0.0,0.0,0.0,-5.9539,-5.8736,-5.8875,0.0,0.0,-5.8272,-5.8825,-5.8825,-5.9306,-5.9756,-6.0036,-6.0072,0.0,0.0,0.0,0.0,0.0,0.0,0.0,0.0,0.0,0.0,0.0,0.0,0.0,0.0,0.0,0.0,0.0,0.0,0.0,0.0,0.0,0.0,0.0,0.0,0.0,0.0,0.0,0.0,0.0,0.0,0.0,0.0,0.0,0.0,0.0,0.0,0.0,0.0,0.0,0.0,0.0,0.0,0.0,0.0,0.0,0.0,0.0,0.0,0.0,0.0,0.0,0.0,-6.3014,-6.3091,-6.288,-6.288,-6.3091,-6.3091,-6.3091,-6.3091,-6.3653,-6.3934,0.0,0.0,0.0,0.0,0.0,0.0,0.0,0.0,0.0,0.0,0.0,0.0,0.0,0.0,0.0,0.0,0.0,0.0,0.0,0.0,0.0,0.0,0.0,0.0,0.0,0.0,0.0,0.0,-6.1338,-6.0256,-5.9981,0.0,0.0,0.0,0.0,0.0,0.0,0.0,0.0,0.0,0.0,-5.9211,-5.8656,-5.8619,-5.8446,-5.7892,-5.8405,-5.8851,-5.8785,-5.9369,-5.9748,-5.9748,0.0,0.0,0.0,0.0,0.0,0.0,0.0,0.0,0.0,0.0,0.0,0.0,0.0,0.0,0.0,0.0,0.0,0.0,0.0,0.0,0.0,0.0,0.0,0.0,0.0,0.0,0.0,0.0,0.0,0.0,-6.9412,0.0,0.0,0.0,0.0,0.0,0.0,0.0,0.0,0.0,0.0,0.0,0.0,0.0,0.0,0.0,0.0,0.0,0.0,0.0,0.0,0.0,0.0,-6.3934,-6.4636,-6.3934,-6.3898,-6.4601,-6.4636,-6.4636,-6.4636,-6.4671,-6.4636,-6.4636,0.0,0.0,0.0,0.0,0.0,0.0,0.0,0.0,0.0,0.0,0.0,0.0,0.0,0.0,0.0,0.0,0.0,0.0,0.0,0.0,0.0,0.0,0.0,0.0,0.0,0.0,-6.3477,-6.201,-6.0621,0.0,0.0,0.0,0.0,0.0,0.0,0.0,0.0,0.0,0.0,-5.9149,-5.9012,-5.8978,-5.9114,-5.9114,-5.8943,-5.9114,-5.9217,-5.9012,-5.8978,-5.9012,0.0,0.0,0.0,0.0,0.0,0.0,0.0,0.0,0.0,0.0,0.0,0.0,0.0,0.0,0.0,0.0,0.0,0.0,0.0,0.0,0.0,0.0,0.0,0.0,0.0,0.0,0.0,-6.9376,-6.9376,0.0,0.0,0.0,0.0,0.0,0.0,0.0,0.0,0.0,0.0,0.0,-6.8749,-6.8503,0.0,0.0,0.0,0.0,0.0,0.0,0.0,0.0,0.0,0.0,0.0,0.0,-6.446,-6.4636,-6.446,-6.446,-6.4706,-6.4706,-6.4706,-6.4672,-6.4568,-6.4463,-6.4358,0.0,0.0,0.0,0.0,0.0,0.0,0.0,0.0,0.0,0.0,0.0,0.0,0.0,0.0,0.0,0.0,0.0,0.0,0.0,0.0,0.0,0.0,0.0,0.0,0.0,-6.2924,0.0,0.0,0.0,0.0,0.0,0.0,0.0,0.0,0.0,0.0,0.0,-5.8875,-5.8806,-5.8736,-5.8632,-5.8666,-5.8736,-5.8736,0.0,0.0,0.0,0.0,0.0,0.0,0.0,0.0,0.0,0.0,0.0,0.0,0.0,0.0,-5.685,-5.4895,-5.4758,-5.5238,-5.6199,0.0,0.0,0.0,0.0,0.0,0.0,0.0,0.0,0.0,0.0,0.0,0.0,0.0,0.0,-6.9376,0.0,-6.9376,0.0,0.0,0.0,0.0,0.0,0.0,0.0,0.0,-6.9376,-6.9095,-6.8603,-6.8357,-6.7936,0.0,-6.769,-6.6883,0.0,0.0,0.0,0.0,0.0,0.0,0.0,0.0,-6.4706,-6.4706,-6.4706,-6.4706,-6.4706,-6.4706,-6.4672,-6.4602,-6.4428,-6.4287,-6.418,-6.3937,-6.3797,0.0,0.0,0.0,0.0,0.0,0.0,0.0,0.0,0.0,0.0,0.0,0.0,0.0,0.0,0.0,0.0,0.0,0.0,0.0,0.0,0.0,0.0,0.0,-6.2509,0.0,0.0,0.0,0.0,0.0,0.0,0.0,0.0,0.0,-5.8806,-5.8526,-5.8315,-5.8419,-5.8097,-5.7918,-5.8063,0.0,0.0,0.0,0.0,0.0,0.0,0.0,-5.8315,-5.8597,-5.8632,-5.8597,-5.8526,-5.8385,-5.8004,-5.7219,0.0,0.0,-5.4839,-5.4633,-5.5007,-5.5962,-5.5758,-5.5553,-5.6065,-5.569,-5.5111,0.0,0.0,0.0,0.0,0.0,0.0,0.0,0.0,-6.9376,-6.9376,0.0,-6.9376,0.0,0.0,0.0,0.0,0.0,-6.9376,0.0,0.0,-6.9376,-6.9412,-6.9307,-6.8568,-6.8217,-6.8147,-6.7409,-6.6672,-6.5935,-6.6637,0.0,0.0,0.0,0.0,0.0,0.0,-6.4672,-6.4672,-6.4672,-6.4672,-6.4672,-6.4672,-6.4602,-6.4393,-6.4251,-6.4215,-6.418,-6.3449,-6.3031,-6.2997,-6.2405,0.0,0.0,0.0,0.0,0.0,0.0,0.0,0.0,0.0,0.0,0.0,0.0,0.0,0.0,0.0,0.0,0.0,0.0,0.0,0.0,-6.3555,0.0,0.0,0.0,0.0,0.0,0.0,0.0,0.0,0.0,0.0,-5.8455,-5.7991,-5.7735,-5.8099,0.0,0.0,0.0,0.0,-5.7514,-5.7327,-5.7808,-5.8133,-5.7918,-5.7881,-5.7881,-5.7918,0.0,0.0,-5.7625,-5.7439,-5.7167,-5.6642,-5.6469,-5.6127,-5.5849,-5.5822,-5.5926,-5.6028,-5.6028,-5.6029,-5.5994,-5.5924,-5.5513,-6.8849,0.0,0.0,0.0,0.0,-6.9376,-6.9376,-6.9376,-6.9376,-6.9376,-6.9376,-6.9376,0.0,0.0,0.0,0.0,0.0,0.0,-6.9376,-6.9376,-6.9376,-6.9095,-6.8533,-6.8322,-6.7901,-6.7374,-6.769,-6.7164,-6.597,-6.6637,-6.6216,-6.4741,0.0,0.0,0.0,0.0,-6.4637,-6.4498,-6.4463,-6.4428,-6.4358,-6.4358,-6.4251,-6.4073,-6.4001,-6.3892,-6.3783,-6.3541,-6.3437,-6.3437,-6.323,0.0,0.0,0.0,0.0,0.0,0.0,0.0,0.0,0.0,0.0,0.0,0.0,0.0,0.0,0.0,0.0,0.0,0.0,0.0,-6.4073,-6.3055,-6.201,0.0,0.0,0.0,0.0,0.0,0.0,0.0,0.0,0.0,-5.8027,-5.7918,-5.7735,0.0,0.0,-5.7063,-5.6911,-5.7176,-5.7364,-5.7327,-5.7439,0.0,-5.7881,-5.7662,-5.7588,-5.7845,-5.7662,-5.7439,-5.7402,-5.7327,-5.7335,-5.7465,-5.7468,-5.7367,-5.7236,-5.6428,-5.6024,-5.643,-5.6566,-5.6566,-5.6566,-5.653,-5.6258,-6.9095,-6.8744,-6.92,-6.9376,-6.9376,-6.9376,-6.9376,-6.9376,-6.9376,-6.9376,-6.9376,-6.9376,-6.9376,-6.9376,-6.9376,0.0,0.0,0.0,-6.9376,-6.9376,-6.9376,-6.913,-6.8673,-6.8673,-6.8428,-6.7971,-6.8112,-6.7585,-6.6321,-6.6497,-6.5935,-6.4776,0.0,0.0,-6.4706,-6.4706,-6.4602,-6.4393,-6.4393,-6.4358,-6.418,-6.4037,-6.3892,-6.3783,-6.36,-6.3489,-6.3343,-6.3068,-6.2896,-6.2859,-6.2547,-6.241,0.0,0.0,0.0,0.0,0.0,0.0,0.0,0.0,0.0,0.0,0.0,-6.371,-6.382,0.0,0.0,0.0,-6.3783,-6.3572,-6.3004,-6.2407,0.0,0.0,0.0,0.0,0.0,0.0,0.0,-5.8097,-5.7588,-5.7402,-5.7808,-5.7772,-5.7588,-5.7327,-5.7025,-5.6719,-5.6519,0.0,-5.7063,-5.7063,-5.7327,-5.7625,-5.7845,-5.7698,-5.7625,-5.7845,-5.7551,-5.7364,-5.7402,-5.7214,-5.7252,-5.7625,-5.7698,-5.7698,-5.7881,-5.7171,-5.6697,-5.7137,-5.7239,-5.7239,-5.7239,-5.7239,-5.7002,-6.9376,-6.9376,-6.9376,-6.9376,-6.9376,-6.9376,-6.9376,-6.9376,-6.9376,-6.9376,-6.9376,-6.9376,-6.9376,-6.9376,-6.9376,0.0,-6.9376,-6.9376,-6.9376,-6.9376,-6.934,-6.9377,-6.9376,-6.9342,-6.927,-6.927,-6.8533,-6.776,-6.6883,-6.6216,-6.5514,-6.4672,-6.4637,-6.4672,-6.4672,-6.4672,-6.4568,-6.4358,-6.4323,-6.4252,-6.4109,-6.3747,-6.3563,-6.3563,-6.3189,-6.3,-6.2966,-6.2279,-6.1869,-6.1869,-6.1071,-6.0659,-6.0842,0.0,0.0,0.0,0.0,0.0,0.0,0.0,0.0,0.0,0.0,0.0,0.0,0.0,0.0,0.0,-6.3152,0.0,-6.1571,-6.1616,0.0,0.0,0.0,-5.91,-5.8239,-5.7845,-5.7698,-5.7881,0.0,0.0,-5.7735,-5.7514,-5.7252,-5.7214,-5.6603,-5.6205,-5.6165,-5.648,-5.668,-5.6719,-5.7364,-5.7808,-5.7735,-5.7735,-5.7735,-5.7662,-5.7514,-5.7364,-5.7439,-5.7139,-5.7025,-5.7551,-5.7476,-5.7476,-5.7845,-5.7814,-5.7881,-5.7848,-5.7848,-5.7848,-5.7814,-5.7814,-5.7611,-6.9376,-6.9376,-6.9376,-6.9376,-6.9376,-6.9376,-6.9376,-6.9376,-6.9376,-6.9376,-6.9376,-6.9376,-6.9376,-6.9376,-6.9376,-6.9376,-6.9376,-6.9376,-6.9376,-6.934,-6.8779,-6.8814,-6.934,-6.8779,-6.8498,-6.8463,-6.8287,-6.7515,-6.6181,-6.597,-6.5338,-6.4287,-6.4252,-6.4358,-6.4672,-6.4393,-6.4181,-6.4002,-6.3712,-6.3454,-6.3302,-6.3189,-6.3152,-6.3117,-6.2885,-6.2847,-6.3,-6.2676,-6.2574,-6.2692,-6.2518,-6.234,-6.2259,-6.251,0.0,0.0,0.0,0.0,0.0,0.0,0.0,0.0,0.0,-6.211,-6.2076,0.0,-6.1602,0.0,-6.1642,-6.1461,-6.1303,-6.0685,0.0,0.0,-5.8855,-5.8375,-5.8024,-5.7881,-5.7845,-5.7881,-5.7214,-5.6872,-5.7402,-5.7101,-5.6752,-5.6408,-5.6757,-5.6911,-5.6603,-5.6603,-5.668,-5.6719,-5.7101,-5.7327,-5.7101,-5.7252,-5.7252,-5.6603,-5.6949,-5.7214,-5.6949,-5.7063,-5.7289,-5.7735,-5.7808,-5.7808,-5.7845,-5.7881,-5.7881,-5.7881,-5.7881,-5.7881,-5.7881,-5.7881,-5.7814,-6.9376,-6.9376,-6.9376,-6.9376,-6.9376,-6.9376,-6.9376,-6.9376,-6.9376,-6.9376,-6.9376,-6.9376,-6.9376,-6.9376,-6.9376,-6.9376,-6.9376,-6.9024,-6.8812,-6.8669,-6.7896,-6.7754,-6.8103,-6.7646,-6.7436,-6.7436,-6.7086,-6.6492,-6.5687,-6.5617,-6.5301,-6.4667,-6.4945,-6.5227,-6.5371,-6.4422,-6.3785,-6.3637,-6.334,-6.3114,-6.3,-6.2923,-6.2847,-6.2847,-6.2688,-6.2576,-6.2581,-6.2576,-6.2576,-6.2581,-6.2547,-6.2464,-6.2229,-6.2302,-6.1862,0.0,0.0,0.0,0.0,0.0,0.0,0.0,0.0,0.0,0.0,0.0,-6.0811,-6.06,-6.0555,-6.0388,-5.9898,-5.9276,-5.8729,-5.8186,-5.7786,-5.7476,-5.7364,-5.7214,-5.7176,-5.7327,-5.6641,-5.6369,-5.6949,-5.668,-5.6441,-5.6369,-5.6911,-5.7025,-5.633,-5.629,-5.6441,-5.6447,-5.6757,-5.7025,-5.6949,-5.7139,-5.7139,-5.6757,-5.6713,-5.6719,-5.668,-5.6719,-5.6911,-5.7289,-5.7364,-5.7439,-5.7588,-5.7625,-5.7698,-5.7845,-5.7881,-5.7881,-5.7881,-5.7881,-5.7881,-6.9376,-6.9376,-6.9376,-6.9376,-6.9376,-6.9376,-6.9376,-6.9376,-6.9376,-6.9376,-6.9376,-6.9376,-6.9376,-6.9376,-6.9376,-6.9376,-6.934,-6.8637,-6.8248,-6.8031,-6.7223,-6.687,-6.6793,-6.6688,-6.6653,-6.6619,-6.592,-6.5538,-6.5468,-6.5468,-6.5432,-6.5395,-6.6021,-6.6294,-6.615,-6.4568,-6.3652,-6.3463,-6.3273,-6.3196,-6.3196,-6.3037,-6.2892,-6.2785,-6.2629,-6.2364,-6.211,-6.2223,-6.215,-6.1957,-6.1957,-6.1837,-6.1588,-6.1506,-6.1136,0.0,-6.0936,0.0,0.0,0.0,0.0,0.0,0.0,0.0,0.0,-6.0633,-6.012,-5.9716,-5.9863,-5.9507,-5.8453,-5.8115,-5.7694,-5.7044,-5.6978,-5.6978,-5.6978,-5.6665,-5.6586,-5.6939,-5.6235,-5.6067,-5.6816,-5.6586,-5.6507,-5.681,-5.7194,-5.7077,-5.6027,-5.6155,-5.6441,-5.6395,-5.6665,-5.7066,-5.7381,-5.7506,-5.7506,-5.732,-5.7077,-5.6593,-5.6762,-5.6645,-5.6573,-5.6752,-5.6911,-5.7025,-5.7327,-5.7402,-5.7514,-5.7845,-5.7881,-5.7881,-5.7881,-5.7881,-5.7881,-6.9376,-6.9376,-6.9376,-6.9376,-6.9376,-6.9376,-6.9376,-6.9376,-6.9376,-6.9376,-6.9376,-6.9376,-6.9376,-6.9376,-6.9376,-6.9376,-6.9376,-6.9087,-6.8905,-6.8833,-6.7878,-6.7768,-6.8218,-6.7661,-6.7417,-6.7382,-6.7243,-6.6823,-6.6234,-6.6162,-6.6014,-6.5714,-6.5852,-6.5654,-6.5186,0.0,0.0,0.0,-6.4295,-6.4295,-6.4295,-6.4254,-6.3943,-6.3368,-6.3134,0.0,-6.2336,-6.183,-6.1628,-6.175,-6.175,0.0,0.0,0.0,0.0,0.0,0.0,0.0,0.0,0.0,0.0,0.0,-5.9946,-5.999,-5.999,-5.9892,-5.9804,-5.9716,-5.9762,-5.9545,-5.9156,-5.9043,-5.8889,-5.8448,-5.8396,-5.8389,-5.8389,-5.8276,-5.8349,-5.8389,-5.7953,-5.7707,-5.7806,-5.783,-5.7707,-5.751,-5.779,-5.779,-5.7326,-5.7265,-5.7615,-5.8217,-5.7806,-5.7625,-5.7953,-5.8323,-5.8257,-5.7863,-5.8389,-5.8283,-5.7357,-5.7614,-5.7658,-5.7306,-5.7439,-5.7658,-5.7735,-5.7772,-5.7735,-5.7881,-5.7881,-5.7881,-5.7881,-5.7881,-5.7881,-6.9339,0.0,-6.9264,-6.9264,0.0,-6.9264,-6.9302,-6.9376,-6.9376,-6.9376,-6.9376,-6.9376,-6.9376,-6.9376,-6.9376,-6.9376,-6.9376,-6.8805,-6.8518,-6.8448,-6.7492,-6.7243,-6.7591,-6.7096,-6.6919,-6.6919,-6.6806,-6.6522,-6.5994,-6.6374,-6.6393,-6.6048,-6.646,-6.6508,-6.6187,-6.6106,-6.5529,-6.4613,-6.4613,-6.4613,-6.4613,-6.4613,-6.4444,-6.4072,-6.3917,0.0,0.0,0.0,0.0,0.0,0.0,0.0,0.0,0.0,0.0,-6.0249,-6.0109,-6.0033,-6.0033,-5.9848,-5.9673,-5.9673,-5.9673,-5.9673,-5.9673,-5.9673,-5.9673,-5.9673,-5.9393,-5.908,-5.8938,-5.8665,-5.8391,-5.824,-5.8215,-5.8215,-5.8215,-5.8174,-5.8298,-5.8462,-5.8257,-5.8133,-5.8347,-5.8298,-5.8207,-5.7999,-5.8289,-5.8626,-5.8691,-5.8199,-5.8026,-5.8543,-5.8454,-5.8331,-5.8502,-5.8705,-5.8812,-5.8454,-5.8738,-5.8694,-5.8009,-5.8303,-5.8386,-5.772,-5.7592,-5.753,-5.7319,-5.7289,-5.7364,-5.7551,-5.7772,-5.7881,-5.7881,-5.7881,-5.7845,-6.9302,-6.9153,-6.9115,-6.9078,-6.904,-6.9002,-6.9078,-6.919,0.0,0.0,0.0,-6.9376,-6.9376,-6.9339,-6.9339,-6.9302,-6.9229,-6.8378,-6.7987,-6.7917,-6.7173,-6.6783,-6.6786,-6.656,-6.6519,-6.6485,-6.629,-6.6062,-6.5906,-6.6558,-6.6713,-6.6587,-6.7168,-6.751,-6.7428,-6.7222,-6.6445,-6.5053,-6.4986,-6.4986,-6.4986,-6.4986,-6.4918,-6.4783,-6.4783,-6.4503,-6.3826,-6.4128,-6.3618,-6.2164,-6.2481,-6.2065,-6.0597,-6.0531,-6.0293,-5.9793,-5.9846,-5.9846,-5.9749,-5.9943,-6.0073,-6.0073,-6.0073,-5.9976,-5.9749,-5.9673,-5.9673,-5.9673,-5.9122,-5.8799,-5.8766,-5.8324,-5.7968,-5.7935,-5.7968,-5.801,-5.801,-5.7968,-5.817,-5.84,-5.8381,-5.8358,-5.8724,-5.8674,-5.8558,-5.8591,-5.8823,-5.9259,-5.9721,-5.9201,-5.8707,-5.8814,-5.9045,-5.9168,-5.9175,-5.9323,-5.9257,-5.9193,-5.916,-5.9028,-5.8855,-5.8984,-5.8847,-5.8302,-5.7853,-5.7674,-5.7271,-5.7292,-5.7192,-5.736,-5.7662,-5.7881,-5.7808,-5.7845,-5.7808,-6.9376,-6.9339,-6.9153,-6.8967,-6.8743,-6.8551,-6.8397,-6.8353,-6.9043,-6.9376,-6.9376,-6.9376,-6.9302,-6.9153,-6.9153,-6.9005,-6.8781,-6.8486,-6.8335,-6.8335,-6.8038,-6.7851,-6.7851,-6.7689,-6.757,-6.757,-6.737,-6.7249,-6.7208,-6.7311,-6.7379,-6.7339,-6.7441,-6.7394,-6.7222,-6.7014,-6.6711,-6.6508,-6.6508,-6.6508,-6.6508,-6.6508,-6.6203,-6.5561,-6.5527,-6.5181,-6.4491,-6.3793,-6.3302,-6.303,-6.2694,-6.2004,-6.0866,-6.1077,-6.0816,-5.9858,-6.0299,-6.0364,-5.9814,-6.0818,-6.153,-6.153,-6.1498,-6.1012,-5.9846,-5.9673,-5.9673,-5.9716,-5.9652,-5.9511,-5.9555,-5.9457,-5.936,-5.936,-5.9393,-5.9425,-5.9328,-5.9328,-5.9371,-5.9426,-5.9469,-5.9447,-5.948,-5.9469,-5.9469,-5.9491,-5.9512,-5.974,-6.003,-6.0436,-6.0454,-6.0168,-6.0125,-6.0168,-6.0121,-6.0505,-6.0448,-6.021,-6.0439,-6.0341,-5.9721,-5.9908,-5.9891,-5.9388,-5.9371,-5.9261,-5.8736,-5.8643,-5.8369,-5.8005,-5.791,-5.7876,-5.7584,-5.7698,-5.7845,-6.8967,-6.8854,-6.8778,-6.8663,-6.8551,-6.8551,-6.8513,-6.8435,-6.8705,-6.8854,-6.8892,-6.8967,-6.8967,-6.8892,-6.8778,-6.8628,-6.8513,-6.8319,-6.8241,-6.8241,-6.8123,-6.8083,-6.8083,-6.7919,-6.7799,-6.7799,-6.7597,-6.7469,-6.7346,-6.7346,-6.7229,-6.7105,-6.7105,-6.7063,-6.7014,-6.6854,-6.6812,-6.6812,-6.6812,-6.6812,-6.6812,-6.6812,-6.6643,-6.6305,-6.6305,-6.601,-6.5463,-6.5261,-6.459,-6.3452,-6.3496,-6.2814,-6.1446,-6.1483,-6.1398,-6.0882,-6.1141,-6.1206,-6.0882,-6.1433,-6.1789,-6.1789,-6.1789,-6.1562,-6.0915,-6.085,-6.085,-6.085,-6.085,-6.0688,-6.0332,-6.0299,-6.0137,-5.9749,-5.9673,-5.9673,-5.9673,-5.9673,-5.9804,-6.0022,-5.9979,-6.0022,-6.0206,-6.012,-6.0076,-6.0109,-6.0066,-6.0152,-6.0239,-6.0496,-6.0666,-6.042,-6.0378,-6.0378,-6.0378,-6.0548,-6.0623,-6.042,-6.0919,-6.1036,-6.0705,-6.1039,-6.1104,-6.0617,-6.0454,-6.0073,-5.9439,-5.9266,-5.893,-5.8395,-5.838,-5.8241,-5.7867,-5.7772,-5.7881,-6.8628,-6.8474,-6.8435,-6.8358,-6.828,-6.8397,-6.8435,-6.8435,-6.8319,-6.8241,-6.828,-6.8474,-6.8551,-6.8474,-6.8319,-6.8241,-6.8162,-6.8039,-6.7959,-6.7999,-6.7999,-6.7959,-6.7959,-6.7759,-6.7638,-6.7638,-6.7435,-6.7229,-6.7139,-6.7097,-6.698,-6.6812,-6.6812,-6.6812,-6.6812,-6.6812,-6.6812,-6.6812,-6.6812,-6.6812,-6.6812,-6.6812,-6.6812,-6.6812,-6.6812,-6.6643,-6.6268,-6.643,-6.5741,-6.4287,-6.4221,-6.358,-6.234,-6.2094,-6.1983,-6.1854,-6.1951,-6.2145,-6.2275,-6.2145,-6.2113,-6.2307,-6.2307,-6.2307,-6.2307,-6.2307,-6.2145,-6.1886,-6.1757,-6.1562,-6.1109,-6.085,-6.0558,-6.004,-5.9781,-5.9673,-5.9673,-5.9673,-5.9816,-6.012,-6.0109,-6.0152,-6.0335,-6.0335,-6.0206,-6.0195,-6.0206,-6.0249,-6.0292,-6.0368,-6.0368,-6.0378,-6.0378,-6.0378,-6.0378,-6.042,-6.042,-6.0378,-6.0886,-6.1103,-6.1235,-6.1709,-6.1975,-6.1402,-6.1071,-6.0695,-6.0091,-5.9929,-5.9626,-5.9098,-5.9047,-5.9028,-5.8623,-5.8524,-5.822,-6.8705,-6.8667,-6.8474,-6.8162,-6.7879,-6.7719,-6.7678,-6.7678,-6.7799,-6.7879,-6.7885,-6.8078,-6.8078,-6.7919,-6.7845,-6.7759,-6.7597,-6.7557,-6.7591,-6.7557,-6.7591,-6.7557,-6.7516,-6.7346,-6.7263,-6.7222,-6.698,-6.6896,-6.6854,-6.6854,-6.6812,-6.6812,-6.6812,-6.6812,-6.6812,-6.6812,-6.6812,-6.6812,-6.6812,-6.6812,-6.6812,-6.6812,-6.6812,-6.6812,-6.6812,-6.677,-6.6686,-6.5922,-6.5625,-6.5734,-6.4662,-6.3863,-6.344,-6.3023,-6.2502,-6.1919,-6.2437,-6.3084,-6.3667,-6.3182,-6.3084,-6.3732,-6.3732,-6.3732,-6.3732,-6.3764,-6.3214,-6.2242,-6.1854,-6.1854,-6.1692,-6.1206,-6.085,-6.0623,-6.0137,-5.9673,-5.9716,-5.9673,-5.9716,-5.976,-5.9804,-5.976,-5.9848,-5.9848,-5.9804,-5.9848,-5.9848,-5.9892,-6.0066,-6.0109,-6.0195,-6.0292,-6.0378,-6.0378,-6.042,-6.0378,-6.0463,-6.0463,-6.0835,-6.1086,-6.1136,-6.1301,-6.148,-6.1669,-6.1662,-6.144,-6.1161,-6.1086,-6.0777,-6.0063,-5.9903,-5.9911,-5.9877,-5.9742,-5.9336,-6.8513,-6.8513,-6.8435,-6.8241,-6.7965,-6.8004,-6.8004,-6.8039,-6.7965,-6.7999,-6.7959,-6.7839,-6.7759,-6.7799,-6.7591,-6.7387,-6.7346,-6.7304,-6.7188,-6.7105,-6.7263,-6.7229,-6.7063,-6.698,-6.6972,-6.6972,-6.6854,-6.6812,-6.6812,-6.6812,-6.6812,-6.6812,-6.6812,-6.6812,-6.6812,-6.6812,-6.6812,-6.6812,-6.6812,-6.6812,-6.6812,-6.6812,-6.6812,-6.6812,-6.6812,-6.6812,-6.677,-6.643,-6.6086,-6.5702,-6.5111,-6.4558,-6.3896,-6.3631,-6.3441,-6.3149,-6.3376,-6.37,-6.3991,-6.3732,-6.37,-6.3991,-6.4024,-6.4024,-6.4024,-6.4024,-6.3732,-6.3246,-6.3117,-6.2955,-6.2502,-6.2178,-6.1692,-6.0979,-6.0526,-6.0246,-5.9968,-5.9804,-5.976,-5.9892,-5.9804,-5.9716,-5.9673,-5.9673,-5.9673,-5.9673,-5.9749,-5.9869,-5.9924,-5.9848,-5.9892,-6.0022,-6.0239,-6.042,-6.0548,-6.0685,-6.0727,-6.0811,-6.1136,-6.1383,-6.1342,-6.1702,-6.1951,-6.175,-6.183,-6.1843,-6.1541,-6.152,-6.1391,-6.0873,-6.0317,-6.008,-6.008,-6.008,-5.9742,-6.8512,-6.8517,-6.8384,-6.8241,-6.8236,-6.828,-6.8319,-6.8319,-6.8197,-6.8044,-6.7965,-6.7719,-6.7638,-6.7678,-6.7428,-6.7263,-6.7263,-6.7222,-6.7097,-6.6896,-6.7056,-6.7014,-6.6812,-6.6812,-6.6812,-6.6812,-6.6812,-6.6812,-6.6812,-6.6812,-6.6812,-6.6812,-6.6812,-6.6812,-6.6812,-6.6812,-6.6812,-6.6812,-6.6812,-6.6812,-6.6812,-6.6812,-6.6812,-6.6812,-6.6812,-6.6812,-6.6812,-6.6686,-6.6354,-6.579,-6.5559,-6.5111,-6.4458,-6.4412,-6.4319,-6.4179,-6.4071,-6.4024,-6.4024,-6.4024,-6.4024,-6.4024,-6.4024,-6.4024,-6.4024,-6.4024,-6.4024,-6.3991,-6.4024,-6.37,-6.3311,-6.302,-6.2404,-6.1498,-6.1239,-6.0939,-6.0618,-6.0388,-6.0311,-6.026,-6.0161,-6.0052,-6.0184,-6.0391,-6.0587,-6.0816,-6.0772,-6.0707,-6.075,-6.0903,-6.0903,-6.087,-6.1215,-6.1103,-6.0807,-6.076,-6.0894,-6.102,-6.1219,-6.1417,-6.1424,-6.1743,-6.1984,-6.1499,-6.1864,-6.1991,-6.1736,-6.1656,-6.177,-6.1548,-6.1052,-6.057,-6.0695,-6.0565,-6.0565,-6.8898,-6.8835,-6.8349,-6.8305,-6.8392,-6.8266,-6.8118,-6.8256,-6.8187,-6.8033,-6.7942,-6.7834,-6.7713,-6.7585,-6.751,-6.751,-6.7469,-6.7304,-6.718,-6.7139,-6.6938,-6.6812,-6.6812,-6.6812,-6.6812,-6.6812,-6.6812,-6.6812,-6.6812,-6.6812,-6.6812,-6.6812,-6.6812,-6.6812,-6.6812,-6.6812,-6.6812,-6.688,-6.6846,-6.6846,-6.6846,-6.6846,-6.6812,-6.6812,-6.6812,-6.6812,-6.677,-6.6354,-6.6302,-6.6686,-6.5945,-6.5414,-6.5369,-6.5324,-6.5099,-6.4656,-6.4226,-6.4024,-6.4024,-6.4024,-6.4024,-6.4024,-6.4024,-6.4024,-6.4024,-6.4024,-6.4024,-6.4024,-6.4024,-6.3959,-6.3829,-6.3344,-6.2923,-6.2663,-6.2113,-6.1757,-6.1705,-6.1543,-6.1368,-6.0959,-6.0797,-6.0899,-6.1339,-6.1815,-6.224,-6.268,-6.2997,-6.2964,-6.2951,-6.3145,-6.3145,-6.3273,-6.3291,-6.294,-6.107,-6.1132,-6.1108,-6.1267,-6.1675,-6.1326,-6.091,-6.0793,-6.111,-6.1277,-6.1583,-6.1788,-6.1743,-6.1797,-6.1957,-6.1908,-6.1755,-6.1474,-6.143,-6.1562,-6.1495,-6.9612,-6.9577,-6.9385,-6.9248,-6.9241,-6.9288,-6.9323,-6.9288,-6.9288,-6.9248,-6.9097,-6.8563,-6.8275,-6.8193,-6.7715,-6.7428,-6.7304,-6.7387,-6.7304,-6.718,-6.7097,-6.7056,-6.7056,-6.6896,-6.6812,-6.6812,-6.6812,-6.6812,-6.6812,-6.6812,-6.6812,-6.6812,-6.6812,-6.6812,-6.6812,-6.6812,-6.7015,-6.7421,-6.7083,-6.7015,-6.7387,-6.7049,-6.6812,-6.6812,-6.6812,-6.6812,-6.6812,-6.6643,-6.6718,-6.706,-6.6744,-6.6634,-6.6684,-6.6034,-6.5207,-6.4384,-6.4118,-6.4024,-6.4024,-6.4024,-6.4024,-6.4024,-6.4024,-6.4024,-6.4024,-6.4024,-6.4024,-6.4024,-6.4024,-6.4024,-6.3991,-6.3764,-6.3408,-6.2955,-6.2663,-6.2385,-6.2087,-6.1912,-6.1737,-6.1678,-6.1601,-6.1658,-6.2091,-6.2355,-6.2672,-6.3173,-6.3325,-6.3401,-6.3368,-6.3282,-6.3348,-6.3325,-6.3378,-6.3169,-6.2514,-6.2562,-6.2773,-6.2773,-6.2924,-6.3016,-6.2791,-6.2649,-6.2966,-6.234,-6.2199,-6.204,-6.2185,-6.1958,-6.2085,-6.187,-6.175,-6.1911,-6.211,-6.1911,-6.183,-7.0229,-7.0106,-6.9982,-6.9898,-6.978,-6.9898,-6.9906,-6.983,-6.9666,-6.9487,-6.9301,-6.861,-6.8186,-6.8076,-6.7674,-6.7387,-6.7222,-6.7346,-6.7346,-6.718,-6.7097,-6.7056,-6.7056,-6.6896,-6.6812,-6.6812,-6.6812,-6.6812,-6.6812,-6.6812,-6.6812,-6.6812,-6.6812,-6.6812,-6.6812,-6.6812,-6.7083,-6.7387,-6.7049,-6.7049,-6.7421,-6.7083,-6.6812,-6.6812,-6.6812,-6.6812,-6.6812,-6.6812,-6.7023,-6.7329,-6.7218,-6.7288,-6.7535,-6.6707,-6.5867,-6.5255,-6.4893,-6.4704,-6.4639,-6.4477,-6.4347,-6.4268,-6.4121,-6.4024,-6.4024,-6.4024,-6.4024,-6.4024,-6.4024,-6.4024,-6.4024,-6.4024,-6.3797,-6.3344,-6.3246,-6.3131,-6.2815,-6.2658,-6.2528,-6.2393,-6.2191,-6.2326,-6.279,-6.321,-6.3649,-6.4128,-6.4281,-6.4324,-6.4281,-6.4108,-6.3902,-6.3935,-6.4132,-6.4241,-6.3978,-6.4108,-6.3681,-6.3581,-6.36,-6.3978,-6.4246,-6.4329,-6.4169,-6.3508,-6.3056,-6.2788,-6.2487,-6.2219,-6.2018,-6.1769,-6.1709,-6.183,-6.1991,-6.2104,-6.1944,-7.066,-7.0437,-6.9932,-6.9951,-7.0104,-6.9935,-6.979,-6.9756,-6.9142,-6.899,-6.8863,-6.8001,-6.7823,-6.7433,-6.755,-6.738,-6.718,-6.718,-6.718,-6.718,-6.6972,-6.6854,-6.6854,-6.6812,-6.6812,-6.6812,-6.6812,-6.6812,-6.6812,-6.6812,-6.6812,-6.6812,-6.6812,-6.6812,-6.6812,-6.6812,-6.6846,-6.6948,-6.6914,-6.688,-6.6846,-6.688,-6.6812,-6.6812,-6.6812,-6.6812,-6.6812,-6.6812,-6.7108,-6.7683,-6.7244,-6.7176,-6.7719,-6.7351,-6.7114,-6.7169,-6.6576,-6.6128,-6.5983,-6.5432,-6.5075,-6.4947,-6.4477,-6.4218,-6.4185,-6.4121,-6.4088,-6.4024,-6.4024,-6.4024,-6.4024,-6.4024,-6.3991,-6.3991,-6.3894,-6.3829,-6.3862,-6.3926,-6.37,-6.308,-6.2757,-6.2888,-6.3571,-6.42,-6.4804,-6.5444,-6.5861,-6.599,-6.5837,-6.5674,-6.5918,-6.5831,-6.538,-6.5039,-6.5304,-6.547,-6.4684,-6.4062,-6.4048,-6.4176,-6.4555,-6.4673,-6.4741,-6.4262,-6.3817,-6.3508,-6.3131,-6.2837,-6.2589,-6.2421,-6.2179,-6.1823,-6.183,-6.1944,-6.179,-7.1593,-7.1474,-7.1138,-7.1051,-7.1061,-7.091,-7.0778,-7.0744,-7.0551,-7.0439,-7.026,-6.9659,-6.9049,-6.8463,-6.8031,-6.7455,-6.6964,-6.6896,-6.7014,-6.7139,-6.7097,-6.7056,-6.7056,-6.6854,-6.6812,-6.6812,-6.6812,-6.6812,-6.6812,-6.6812,-6.6812,-6.6812,-6.6812,-6.6812,-6.6812,-6.6812,-6.7015,-6.7455,-6.7049,-6.7049,-6.7455,-6.7049,-6.6812,-6.6812,-6.6812,-6.6812,-6.6812,-6.6812,-6.7184,-6.7861,-6.7692,-6.7766,-6.8125,-6.8526,-6.834,-6.7678,-6.7347,-6.6959,-6.6674,-6.6463,-6.6109,-6.5837,-6.5546,-6.5189,-6.4801,-6.4704,-6.4509,-6.4153,-6.4024,-6.4024,-6.4024,-6.4024,-6.4024,-6.4024,-6.4024,-6.4024,-6.4024,-6.4024,-6.3926,-6.3732,-6.358,-6.3812,-6.4231,-6.4716,-6.5005,-6.5514,-6.5867,-6.6032,-6.6032,-6.5911,-6.5911,-6.5867,-6.5692,-6.557,-6.5614,-6.5736,-6.539,-6.4967,-6.491,-6.482,-6.5091,-6.5252,-6.5245,-6.5127,-6.4681,-6.427,-6.3859,-6.3564,-6.335,-6.2885,-6.2461,-6.2179,-6.1857,-6.175,-6.1709,-7.2373,-7.2331,-7.2081,-7.196,-7.196,-7.182,-7.1678,-7.1478,-7.0934,-7.0643,-7.0341,-6.9654,-6.9079,-6.8707,-6.8402,-6.7929,-6.7286,-6.7218,-6.7167,-6.709,-6.7056,-6.7157,-6.7327,-6.6998,-6.6812,-6.6812,-6.6812,-6.6812,-6.6812,-6.6812,-6.6812,-6.6812,-6.6812,-6.6812,-6.6812,-6.6812,-6.7083,-6.7387,-6.7049,-6.7049,-6.7286,-6.7049,-6.6812,-6.6812,-6.6812,-6.6812,-6.6812,-6.6812,-6.7151,-6.7827,-6.8166,-6.8398,-6.865,-6.9099,-6.9207,-6.8877,-6.85,-6.83,-6.7984,-6.7549,-6.7162,-6.6793,-6.6355,-6.5934,-6.5513,-6.5416,-6.5125,-6.4542,-6.4412,-6.4283,-6.4088,-6.4024,-6.4024,-6.4024,-6.4024,-6.4024,-6.4024,-6.4024,-6.4024,-6.3959,-6.3959,-6.4179,-6.4426,-6.4793,-6.4897,-6.5246,-6.5514,-6.5603,-6.5559,-6.5425,-6.547,-6.5559,-6.5559,-6.5526,-6.5658,-6.579,-6.5955,-6.5908,-6.5928,-6.5914,-6.6042,-6.6137,-6.6205,-6.6036,-6.5732,-6.532,-6.4941,-6.4529,-6.424,-6.3559,-6.2851,-6.2461,-6.2139,-6.1897,-6.179,-7.3005,-7.3005,-7.2686,-7.2602,-7.2559,-7.2517,-7.2296,-7.1789,-7.055,-6.9816,-6.9335,-6.8852,-6.8301,-6.8335,-6.891,-6.8707,-6.8064,-6.7963,-6.7793,-6.7387,-6.7218,-6.743,-6.7701,-6.7252,-6.6948,-6.6812,-6.6812,-6.6812,-6.6812,-6.6812,-6.6812,-6.6812,-6.6812,-6.6812,-6.6812,-6.6812,-6.6846,-6.6914,-6.6846,-6.6846,-6.688,-6.6846,-6.6812,-6.6812,-6.6812,-6.688,-6.6981,-6.7015,-6.7218,-6.7827,-6.8436,-6.8808,-6.8992,-6.9245,-6.959,-7.008,-6.9963,-6.9789,-6.9486,-6.8785,-6.817,-6.7993,-6.7102,-6.621,-6.6291,-6.6177,-6.5805,-6.5027,-6.493,-6.4656,-6.4185,-6.4024,-6.4024,-6.4024,-6.4085,-6.4118,-6.4024,-6.4024,-6.4085,-6.4024,-6.4024,-6.4085,-6.4286,-6.4656,-6.4885,-6.5111,-6.5246,-6.5291,-6.5246,-6.5156,-6.5033,-6.5111,-6.5246,-6.5291,-6.5348,-6.5526,-6.5692,-6.5999,-6.6129,-6.6335,-6.6507,-6.6643,-6.6728,-6.6635,-6.6534,-6.6229,-6.5925,-6.5403,-6.4761,-6.3951,-6.337,-6.2845,-6.2314,-6.1891,-6.1628,-7.3211,-7.3211,-7.297,-7.2887,-7.2846,-7.2686,-7.2432,-7.2108,-7.1012,-7.0558,-7.0595,-7.0013,-6.9485,-6.9586,-6.9755,-6.9485,-6.891,-6.8774,-6.9079,-6.918,-6.8707,-6.8233,-6.7963,-6.7692,-6.732,-6.6914,-6.6846,-6.6812,-6.6812,-6.6812,-6.6812,-6.6812,-6.6812,-6.6812,-6.6812,-6.6812,-6.6812,-6.6812,-6.6812,-6.6812,-6.6812,-6.6812,-6.6812,-6.6812,-6.6812,-6.7083,-6.7523,-6.7624,-6.7387,-6.7151,-6.7827,-6.8233,-6.8292,-6.8803,-6.9379,-6.994,-7.0142,-7.015,-7.0163,-6.9896,-6.9609,-6.9277,-6.8437,-6.8013,-6.741,-6.707,-6.6339,-6.5384,-6.5027,-6.4721,-6.4185,-6.4024,-6.4024,-6.4071,-6.4272,-6.4365,-6.4132,-6.4319,-6.4379,-6.4085,-6.4024,-6.4038,-6.4132,-6.4272,-6.4504,-6.4748,-6.5021,-6.5156,-6.5066,-6.5111,-6.5111,-6.4885,-6.4885,-6.493,-6.5021,-6.5201,-6.547,-6.5824,-6.6086,-6.6345,-6.6516,-6.6728,-6.677,-6.6779,-6.6669,-6.6466,-6.6339,-6.5993,-6.5222,-6.4478,-6.3863,-6.3303,-6.2111,-6.1424,-6.1219,-7.3577,-7.3577,-7.3456,-7.3415,-7.3375,-7.3135,-7.2714,-7.1966,-7.0984,-7.0542,-7.0512,-7.0056,-6.9891,-7.0195,-7.05,-7.0229,-6.962,-6.9553,-6.962,-6.962,-6.9553,-6.9113,-6.8504,-6.8132,-6.7658,-6.7252,-6.6948,-6.6846,-6.6812,-6.6812,-6.6812,-6.6812,-6.6812,-6.6812,-6.6812,-6.6812,-6.6812,-6.6812,-6.6812,-6.6812,-6.6812,-6.6812,-6.6812,-6.6812,-6.6846,-6.7151,-6.776,-6.759,-6.7133,-6.6727,-6.692,-6.7257,-6.7594,-6.7998,-6.856,-6.9088,-6.9559,-6.9827,-6.9783,-6.9802,-6.986,-6.9622,-6.914,-6.865,-6.8291,-6.7883,-6.7068,-6.6193,-6.5708,-6.5157,-6.4574,-6.4185,-6.4024,-6.4038,-6.4426,-6.4472,-6.4071,-6.4226,-6.4272,-6.4118,-6.4024,-6.4038,-6.4085,-6.4132,-6.424,-6.4518,-6.4885,-6.4976,-6.4976,-6.5066,-6.5111,-6.493,-6.4748,-6.4793,-6.4976,-6.5156,-6.5246,-6.5559,-6.5999,-6.6268,-6.6482,-6.677,-6.6812,-6.6812,-6.6812,-6.6779,-6.6576,-6.6373,-6.5933,-6.5222,-6.4478,-6.3417,-6.2248,-6.1185,-6.1011,-7.401,-7.401,-7.401,-7.39,-7.3751,-7.3557,-7.2667,-7.1572,-7.0533,-6.9985,-6.9739,-6.9412,-6.9789,-7.0331,-7.0939,-7.0906,-7.0297,-7.0297,-6.9958,-6.9925,-6.9958,-6.9958,-6.9417,-6.8538,-6.8064,-6.7726,-6.7151,-6.688,-6.6812,-6.6812,-6.6812,-6.6812,-6.6812,-6.6812,-6.6812,-6.6812,-6.6812,-6.6812,-6.6812,-6.6812,-6.6812,-6.6812,-6.6812,-6.6846,-6.7049,-6.7286,-6.759,-6.7387,-6.6846,-6.6359,-6.6249,-6.6637,-6.7131,-6.7154,-6.7335,-6.7666,-6.8448,-6.8769,-6.8699,-6.8833,-6.9053,-6.913,-6.8536,-6.8338,-6.8471,-6.8192,-6.7586,-6.6971,-6.6517,-6.5643,-6.4833,-6.4315,-6.4056,-6.4038,-6.4379,-6.4333,-6.4165,-6.4071,-6.4038,-6.3991,-6.4024,-6.4085,-6.4193,-6.4254,-6.4254,-6.4518,-6.4839,-6.493,-6.493,-6.493,-6.5066,-6.5111,-6.493,-6.4748,-6.493,-6.5111,-6.5156,-6.5291,-6.5834,-6.6182,-6.644,-6.6643,-6.677,-6.6812,-6.6812,-6.6812,-6.6779,-6.6542,-6.6271,-6.5595,-6.4613,-6.3515,-6.2407,-6.1484,-6.0978,-7.401,-7.401,-7.401,-7.3427,-7.2699,-7.2514,-7.1816,-7.0677,-7.0092,-7.0004,-7.0311,-7.01,-7.0331,-7.1041,-7.121,-7.121,-7.1041,-7.1007,-7.0939,-7.0906,-7.0939,-7.1007,-7.05,-6.9451,-6.8538,-6.7929,-6.7184,-6.6846,-6.6812,-6.6812,-6.6812,-6.6812,-6.6812,-6.6812,-6.6812,-6.6812,-6.6812,-6.6812,-6.6812,-6.6812,-6.6812,-6.6812,-6.6812,-6.6846,-6.7286,-6.7658,-6.7827,-6.776,-6.7615,-6.7395,-6.7015,-6.6803,-6.6785,-6.657,-6.6644,-6.699,-6.711,-6.7385,-6.7711,-6.7823,-6.7936,-6.8068,-6.7695,-6.7456,-6.8012,-6.7655,-6.7376,-6.7068,-6.6517,-6.5659,-6.4622,-6.4153,-6.4024,-6.4071,-6.4085,-6.4165,-6.4118,-6.4319,-6.4286,-6.4085,-6.4024,-6.4024,-6.4038,-6.4085,-6.4226,-6.4518,-6.4748,-6.493,-6.493,-6.493,-6.5021,-6.5156,-6.4839,-6.4564,-6.4504,-6.4735,-6.4839,-6.5066,-6.557,-6.6095,-6.6311,-6.6643,-6.677,-6.6812,-6.6812,-6.6812,-6.6812,-6.6609,-6.6305,-6.5493,-6.4674,-6.3441,-6.2357,-6.1518,-6.0778,-7.401,-7.3975,-7.3471,-7.2888,-7.2191,-7.1567,-7.0978,-7.0265,-6.9738,-6.997,-7.0463,-7.0338,-7.0601,-7.1278,-7.1312,-7.1312,-7.1312,-7.1312,-7.1312,-7.1278,-7.1278,-7.1312,-7.1109,-7.0195,-6.918,-6.8402,-6.732,-6.688,-6.6812,-6.6812,-6.6812,-6.6812,-6.6812,-6.6812,-6.6812,-6.6812,-6.6812,-6.6812,-6.6812,-6.6812,-6.6812,-6.6812,-6.6812,-6.6846,-6.7218,-6.7523,-6.7861,-6.7895,-6.7895,-6.7793,-6.7523,-6.699,-6.655,-6.6225,-6.6155,-6.5979,-6.6443,-6.6265,-6.6508,-6.6682,-6.7039,-6.7208,-6.6817,-6.6966,-6.7131,-6.6939,-6.6923,-6.7036,-6.6761,-6.6027,-6.497,-6.4215,-6.4056,-6.4024,-6.4024,-6.4153,-6.4427,-6.4421,-6.4319,-6.4071,-6.4024,-6.4218,-6.4283,-6.4315,-6.4347,-6.4695,-6.4643,-6.4872,-6.5201,-6.5201,-6.5156,-6.5111,-6.4702,-6.4412,-6.4132,-6.4179,-6.4412,-6.4748,-6.5303,-6.579,-6.6139,-6.644,-6.677,-6.6812,-6.6812,-6.6812,-6.6779,-6.6576,-6.6237,-6.5561,-6.4626,-6.334,-6.2266,-6.1509,-6.0699,-7.3795,-7.3685,-7.2788,-7.2166,-7.1573,-7.0683,-7.012,-6.9769,-6.9629,-6.9968,-7.0435,-7.0351,-7.0804,-7.121,-7.1312,-7.1312,-7.1312,-7.1312,-7.1312,-7.1312,-7.1312,-7.1312,-7.1109,-7.0466,-6.9823,-6.9113,-6.7793,-6.7083,-6.688,-6.6812,-6.6812,-6.6812,-6.6812,-6.6812,-6.6812,-6.6812,-6.6812,-6.6812,-6.6812,-6.6812,-6.6812,-6.6812,-6.6812,-6.6846,-6.688,-6.7421,-6.7929,-6.8064,-6.7963,-6.8064,-6.7963,-6.7275,-6.6513,-6.6052,-6.5746,-6.4963,-6.5717,-6.5627,-6.523,-6.5463,-6.5931,-6.6395,-6.6029,-6.6078,-6.6302,-6.6208,-6.6339,-6.6582,-6.6549,-6.6137,-6.5676,-6.4616,-6.4121,-6.4185,-6.4218,-6.4509,-6.4898,-6.4671,-6.4542,-6.4477,-6.4704,-6.493,-6.493,-6.493,-6.493,-6.4848,-6.4803,-6.4813,-6.5144,-6.5336,-6.5201,-6.5156,-6.4793,-6.4365,-6.4085,-6.4024,-6.4179,-6.4458,-6.4988,-6.5392,-6.5878,-6.6225,-6.6558,-6.677,-6.6812,-6.6812,-6.6643,-6.6305,-6.5899,-6.5459,-6.4525,-6.3194,-6.2248,-6.1501,-6.067,-7.2757,-7.2718,-7.238,-7.118,-6.9686,-6.9707,-6.932,-6.8871,-6.9567,-7.0202,-7.0469,-7.0893,-7.1007,-7.121,-7.1278,-7.1278,-7.1109,-7.1041,-7.1109,-7.1142,-7.1142,-7.1109,-7.0906,-7.05,-7.006,-6.9654,-6.8538,-6.7557,-6.7015,-6.6812,-6.6812,-6.6812,-6.6812,-6.6812,-6.6812,-6.6812,-6.6812,-6.6812,-6.6812,-6.6812,-6.6812,-6.6812,-6.6812,-6.6812,-6.6812,-6.7421,-6.8301,-6.8233,-6.8199,-6.8741,-6.8233,-6.7514,-6.677,-6.6311,-6.5911,-6.5558,-6.5441,-6.5351,-6.4666,-6.446,-6.446,-6.4474,-6.4557,-6.4768,-6.5155,-6.5302,-6.5659,-6.6015,-6.5901,-6.5365,-6.5123,-6.4749,-6.4445,-6.4639,-6.4978,-6.5157,-6.5675,-6.5772,-6.5708,-6.574,-6.5772,-6.5708,-6.5675,-6.561,-6.5513,-6.5319,-6.5041,-6.4962,-6.5148,-6.5153,-6.5021,-6.4976,-6.4976,-6.4472,-6.4085,-6.4024,-6.4071,-6.4179,-6.461,-6.4988,-6.5437,-6.5922,-6.6225,-6.6516,-6.6728,-6.6812,-6.6542,-6.6102,-6.5527,-6.5053,-6.4052,-6.298,-6.2007,-6.1102,-6.0647,-7.1599,-7.1524,-7.0977,-6.9952,-6.8843,-6.8451,-6.831,-6.8201,-6.8716,-6.9335,-6.9708,-7.0036,-7.0161,-7.0161,-7.0161,-7.0161,-7.0195,-7.0161,-7.0161,-7.0161,-7.0161,-7.0161,-7.0297,-7.0128,-6.9925,-6.9654,-6.9147,-6.8368,-6.7421,-6.6981,-6.688,-6.6812,-6.6812,-6.6812,-6.6812,-6.6812,-6.6812,-6.6812,-6.6812,-6.6812,-6.6812,-6.6812,-6.6812,-6.6812,-6.6812,-6.7218,-6.7726,-6.8571,-6.8233,-6.8064,-6.8301,-6.7827,-6.71,-6.6635,-6.6426,-6.6324,-6.6389,-6.5969,-6.5171,-6.4887,-6.4775,-6.4088,-6.4024,-6.4153,-6.438,-6.4574,-6.5091,-6.5948,-6.6064,-6.5837,-6.6483,-6.5784,-6.5606,-6.5577,-6.577,-6.6128,-6.6518,-6.6614,-6.6809,-6.6873,-6.642,-6.629,-6.6517,-6.6388,-6.6193,-6.5837,-6.54,-6.5248,-6.5166,-6.5076,-6.497,-6.4793,-6.4793,-6.4426,-6.4085,-6.4024,-6.4024,-6.4085,-6.4319,-6.4702,-6.5078,-6.557,-6.5965,-6.6268,-6.6482,-6.6686,-6.6373,-6.5933,-6.5256,-6.4505,-6.3391,-6.2333,-6.1467,-6.0769,-6.0388,-7.0401,-7.0366,-6.9497,-6.8863,-6.8254,-6.7664,-6.759,-6.7904,-6.8132,-6.8605,-6.9045,-6.9147,-6.918,-6.9113,-6.9147,-6.9147,-6.9079,-6.918,-6.9214,-6.9248,-6.9248,-6.9147,-6.9282,-6.9519,-6.9688,-6.9316,-6.9147,-6.9079,-6.7963,-6.7354,-6.7015,-6.6846,-6.6812,-6.6812,-6.6812,-6.6812,-6.6812,-6.6812,-6.6812,-6.6812,-6.6812,-6.6812,-6.6812,-6.6812,-6.6812,-6.6914,-6.7387,-6.8132,-6.8098,-6.7827,-6.7996,-6.8199,-6.7117,-6.6948,-6.7217,-6.7588,-6.7959,-6.7176,-6.6226,-6.5718,-6.5111,-6.4135,-6.4024,-6.4024,-6.4056,-6.425,-6.4781,-6.6172,-6.6159,-6.6291,-6.7036,-6.7033,-6.6613,-6.6517,-6.6647,-6.7035,-6.7248,-6.7424,-6.7553,-6.7392,-6.6906,-6.6906,-6.7197,-6.7197,-6.7003,-6.6614,-6.6193,-6.5529,-6.5422,-6.5278,-6.5108,-6.4754,-6.4518,-6.4319,-6.4085,-6.4024,-6.4024,-6.4024,-6.4179,-6.4472,-6.4885,-6.5258,-6.5658,-6.6009,-6.6311,-6.6415,-6.607,-6.5628,-6.4884,-6.3958,-6.2771,-6.1836,-6.1219,-6.0811,-6.0473,-6.9474,-6.9434,-6.8885,-6.8186,-6.7494,-6.7616,-6.7836,-6.7929,-6.8504,-6.8977,-6.891,-6.9011,-6.8977,-6.8944,-6.8944,-6.9011,-6.9011,-6.8876,-6.8808,-6.8774,-6.8842,-6.8842,-6.9011,-6.9147,-6.918,-6.8944,-6.8571,-6.8132,-6.7827,-6.7692,-6.7387,-6.6981,-6.688,-6.6812,-6.6812,-6.6812,-6.6812,-6.6812,-6.6812,-6.6812,-6.6812,-6.6812,-6.6812,-6.6812,-6.6846,-6.7049,-6.7455,-6.7963,-6.7861,-6.7793,-6.7861,-6.7658,-6.7083,-6.7455,-6.8166,-6.8331,-6.7913,-6.6901,-6.6239,-6.6054,-6.5526,-6.4504,-6.4056,-6.4024,-6.4024,-6.4088,-6.4622,-6.595,-6.5643,-6.6048,-6.7021,-6.6761,-6.6631,-6.6907,-6.7313,-6.7606,-6.7895,-6.7813,-6.7974,-6.8007,-6.7521,-6.7683,-6.791,-6.7877,-6.7813,-6.7392,-6.6906,-6.621,-6.5625,-6.5455,-6.5022,-6.4635,-6.4379,-6.4179,-6.4071,-6.4024,-6.4024,-6.4024,-6.4085,-6.4319,-6.4564,-6.493,-6.5348,-6.5746,-6.6052,-6.606,-6.5639,-6.5087,-6.441,-6.3579,-6.2676,-6.1869,-6.1185,-6.0853,-6.0548,-6.8233,-6.807,-6.7905,-6.7486,-6.704,-6.7227,-6.7286,-6.7354,-6.7658,-6.7793,-6.7793,-6.7793,-6.7827,-6.7895,-6.7793,-6.7793,-6.7827,-6.7861,-6.7827,-6.7861,-6.7895,-6.7861,-6.7861,-6.8199,-6.8436,-6.8436,-6.8504,-6.8402,-6.7996,-6.7523,-6.7218,-6.7387,-6.7015,-6.6812,-6.6812,-6.6812,-6.6812,-6.6812,-6.6812,-6.6812,-6.6812,-6.6812,-6.6812,-6.6812,-6.6812,-6.7015,-6.7286,-6.7726,-6.7624,-6.7523,-6.759,-6.7557,-6.7049,-6.7151,-6.759,-6.8301,-6.8432,-6.8194,-6.7908,-6.7176,-6.6119,-6.5111,-6.4439,-6.4024,-6.4024,-6.4088,-6.4606,-6.5967,-6.5837,-6.6323,-6.7458,-6.7753,-6.7916,-6.8095,-6.7948,-6.816,-6.8321,-6.8186,-6.8169,-6.8201,-6.8201,-6.8201,-6.8201,-6.8136,-6.8039,-6.7813,-6.7392,-6.6858,-6.6145,-6.5625,-6.5038,-6.4291,-6.4226,-6.4132,-6.4038,-6.4024,-6.4024,-6.4024,-6.4024,-6.4132,-6.4272,-6.4564,-6.4988,-6.5481,-6.5878,-6.5731,-6.5268,-6.4816,-6.4377,-6.3586,-6.2689,-6.197,-6.1285,-6.0783,-6.0433,-6.7304,-6.7097,-6.7097,-6.7014,-6.6812,-6.6812,-6.6846,-6.6846,-6.688,-6.6846,-6.6812,-6.688,-6.688,-6.6846,-6.6914,-6.6981,-6.688,-6.6812,-6.6812,-6.6812,-6.6812,-6.6914,-6.7117,-6.7455,-6.7624,-6.7624,-6.7996,-6.8098,-6.7793,-6.732,-6.7151,-6.759,-6.7015,-6.6846,-6.6812,-6.6812,-6.6812,-6.6812,-6.6812,-6.6812,-6.6812,-6.6812,-6.6812,-6.6812,-6.6812,-6.6812,-6.6914,-6.7252,-6.7252,-6.7117,-6.7286,-6.7252,-6.6914,-6.6914,-6.7286,-6.7895,-6.8282,-6.8736,-6.8551,-6.8032,-6.7063,-6.5895,-6.4807,-6.4024,-6.4024,-6.4056,-6.4606,-6.5999,-6.6064,-6.6776,-6.783,-6.8485,-6.847,-6.8486,-6.8552,-6.8716,-6.8748,-6.8401,-6.8201,-6.8201,-6.8201,-6.8201,-6.8201,-6.8201,-6.8169,-6.8104,-6.778,-6.7327,-6.655,-6.574,-6.501,-6.4215,-6.4118,-6.4085,-6.4071,-6.4024,-6.4024,-6.4024,-6.4024,-6.4024,-6.4132,-6.4319,-6.461,-6.5111,-6.557,-6.5464,-6.506,-6.4705,-6.4309,-6.3316,-6.2453,-6.197,-6.1418,-6.0972,-6.0663,-6.7056,-6.6812,-6.6812,-6.6812,-6.6812,-6.6812,-6.6812,-6.6812,-6.6812,-6.6812,-6.6812,-6.6812,-6.6812,-6.6812,-6.6812,-6.6812,-6.6812,-6.6812,-6.6812,-6.6812,-6.6812,-6.6812,-6.6914,-6.6948,-6.6981,-6.6981,-6.7286,-6.7557,-6.759,-6.7151,-6.6914,-6.6846,-6.688,-6.6846,-6.6812,-6.6812,-6.6812,-6.6812,-6.6812,-6.6812,-6.6812,-6.6812,-6.6812,-6.6812,-6.6812,-6.6812,-6.6812,-6.6948,-6.6981,-6.6812,-6.6981,-6.7049,-6.6846,-6.6812,-6.7184,-6.7624,-6.7996,-6.8461,-6.857,-6.8059,-6.7043,-6.5862,-6.4807,-6.4024,-6.4024,-6.4024,-6.4736,-6.5772,-6.5967,-6.6744,-6.7618,-6.8251,-6.8401,-6.855,-6.86,-6.855,-6.855,-6.8401,-6.8201,-6.8201,-6.8201,-6.8201,-6.8201,-6.8201,-6.8201,-6.8169,-6.778,-6.7327,-6.642,-6.5578,-6.4866,-6.425,-6.4056,-6.4024,-6.4024,-6.4024,-6.4024,-6.4024,-6.4024,-6.4024,-6.4024,-6.4226,-6.4365,-6.4702,-6.509,-6.4995,-6.491,-6.4598,-6.4076,-6.2972,-6.2352,-6.2427,-6.2098,-6.1644,-6.1446,-6.7022,-6.6812,-6.6812,-6.6812,-6.6812,-6.6812,-6.6812,-6.6812,-6.6812,-6.6812,-6.6812,-6.6812,-6.6812,-6.6812,-6.6812,-6.6812,-6.6812,-6.6812,-6.6812,-6.6812,-6.6812,-6.6812,-6.6812,-6.6812,-6.6846,-6.6812,-6.6846,-6.688,-6.7117,-6.6981,-6.688,-6.6812,-6.6846,-6.6812,-6.6812,-6.6812,-6.6812,-6.6812,-6.6812,-6.6812,-6.6812,-6.6812,-6.6812,-6.6812,-6.6812,-6.6812,-6.6812,-6.6812,-6.6812,-6.6812,-6.6812,-6.6812,-6.6812,-6.6812,-6.6981,-6.732,-6.759,-6.7996,-6.8138,-6.7646,-6.6721,-6.5384,-6.4482,-6.4024,-6.4024,-6.4024,-6.4445,-6.5189,-6.5869,-6.655,-6.7327,-6.796,-6.8301,-6.8451,-6.8501,-6.8401,-6.8351,-6.8301,-6.8201,-6.8201,-6.8201,-6.8201,-6.8201,-6.8201,-6.8201,-6.8169,-6.7748,-6.7262,-6.6355,-6.5578,-6.4898,-6.4283,-6.4088,-6.4024,-6.4024,-6.4024,-6.4024,-6.4024,-6.4024,-6.4024,-6.4024,-6.4024,-6.4179,-6.4472,-6.4636,-6.4683,-6.4641,-6.4514,-6.4044,-6.3485,-6.3357,-6.3497,-6.3012,-6.2332,-6.1995,-6.6938,-6.6812,-6.6812,-6.6812,-6.6812,-6.6812,-6.6812,-6.6812,-6.6812,-6.6812,-6.6812,-6.6812,-6.6812,-6.6812,-6.6812,-6.6812,-6.6812,-6.6812,-6.6812,-6.6812,-6.6812,-6.6812,-6.6812,-6.6812,-6.6812,-6.6812,-6.6812,-6.6846,-6.688,-6.7049,-6.7015,-6.6948,-6.7015,-6.7083,-6.6812,-6.6812,-6.6812,-6.6812,-6.6812,-6.6812,-6.6812,-6.6812,-6.6812,-6.6812,-6.6812,-6.6812,-6.6812,-6.6812,-6.6812,-6.6812,-6.6812,-6.6812,-6.6812,-6.6812,-6.6812,-6.6981,-6.7218,-6.7514,-6.7334,-6.7033,-6.6256,-6.499,-6.4337,-6.4071,-6.4024,-6.4024,-6.438,-6.4963,-6.5546,-6.6161,-6.6971,-6.7636,-6.8057,-6.8239,-6.8319,-6.8301,-6.8351,-6.8301,-6.8251,-6.8201,-6.8201,-6.8201,-6.8201,-6.8201,-6.8169,-6.8169,-6.8039,-6.7359,-6.6355,-6.5643,-6.5092,-6.4509,-6.4056,-6.4024,-6.4024,-6.4024,-6.4024,-6.4024,-6.4024,-6.4024,-6.4024,-6.4024,-6.4024,-6.4226,-6.4374,-6.4407,-6.4482,-6.452,-6.4457,-6.4278,-6.4145,-6.4027,-6.3677,-6.2966,-6.2353,-6.6812,-6.6812,-6.6812,-6.6812,-6.6812,-6.6812,-6.6812,-6.6812,-6.6812,-6.6812,-6.6812,-6.6812,-6.6812,-6.6812,-6.6812,-6.6812,-6.6812,-6.6812,-6.6812,-6.6812,-6.6812,-6.6812,-6.6812,-6.6812,-6.6812,-6.6812,-6.6812,-6.6812,-6.6846,-6.7252,-6.7218,-6.7117,-6.7218,-6.732,-6.6846,-6.6812,-6.6812,-6.6812,-6.6812,-6.6812,-6.6812,-6.6812,-6.6812,-6.6812,-6.6812,-6.6812,-6.6812,-6.6812,-6.6812,-6.6812,-6.6812,-6.6812,-6.6812,-6.6812,-6.6812,-6.6846,-6.688,-6.6702,-6.6283,-6.6401,-6.5775,-6.4938,-6.4458,-6.4132,-6.4024,-6.4088,-6.4218,-6.4736,-6.5092,-6.5772,-6.655,-6.7262,-6.7668,-6.7977,-6.8057,-6.8201,-6.8301,-6.8301,-6.8251,-6.8201,-6.8201,-6.8201,-6.8201,-6.8201,-6.8136,-6.8136,-6.8169,-6.7489,-6.6355,-6.5643,-6.506,-6.4639,-6.4121,-6.4121,-6.4121,-6.4056,-6.4024,-6.4024,-6.4024,-6.4024,-6.4024,-6.4024,-6.4024,-6.4085,-6.4114,-6.4249,-6.4433,-6.4649,-6.4465,-6.4314,-6.4384,-6.4222,-6.3957,-6.3448,-6.2613,-6.6812,-6.6812,-6.6812,-6.6812,-6.6812,-6.6812,-6.6812,-6.6812,-6.6812,-6.6812,-6.6812,-6.6812,-6.6812,-6.6812,-6.6812,-6.6812,-6.6812,-6.6812,-6.6812,-6.6812,-6.6812,-6.6812,-6.6812,-6.6812,-6.6812,-6.6812,-6.6812,-6.6812,-6.6812,-6.7252,-6.7151,-6.6981,-6.7117,-6.7015,-6.688,-6.6812,-6.6812,-6.6812,-6.6812,-6.6812,-6.6812,-6.6812,-6.6812,-6.6812,-6.6812,-6.6812,-6.6812,-6.6812,-6.6812,-6.6812,-6.6812,-6.6812,-6.6812,-6.6812,-6.6812,-6.677,-6.677,-6.6567,-6.6042,-6.5791,-6.5342,-6.495,-6.4656,-6.4272,-6.4071,-6.4024,-6.4185,-6.4412,-6.4768,-6.5287,-6.5643,-6.6744,-6.7344,-6.7571,-6.7715,-6.8072,-6.8251,-6.8251,-6.8201,-6.8201,-6.8201,-6.8201,-6.8201,-6.8136,-6.8072,-6.7553,-6.7424,-6.7035,-6.6096,-6.5448,-6.4898,-6.4639,-6.4315,-6.425,-6.4218,-6.4121,-6.4056,-6.4024,-6.4024,-6.4024,-6.4024,-6.4024,-6.4024,-6.4071,-6.4024,-6.4038,-6.4207,-6.4341,-6.4322,-6.4285,-6.4219,-6.4099,-6.3801,-6.3269,-6.2458,-6.6812,-6.6812,-6.6812,-6.6812,-6.6812,-6.6812,-6.6812,-6.6812,-6.6812,-6.6812,-6.6812,-6.6812,-6.6812,-6.6812,-6.6812,-6.6812,-6.6812,-6.6812,-6.6812,-6.6812,-6.6812,-6.6812,-6.6812,-6.6812,-6.6812,-6.6812,-6.6812,-6.6812,-6.6846,-6.7083,-6.7218,-6.7218,-6.6948,-6.688,-6.6812,-6.6812,-6.6812,-6.6812,-6.6812,-6.6812,-6.6812,-6.6812,-6.6812,-6.6812,-6.6812,-6.6812,-6.6812,-6.6812,-6.6812,-6.6812,-6.6812,-6.6812,-6.6812,-6.6812,-6.6812,-6.677,-6.643,-6.6268,-6.5955,-6.5246,-6.5008,-6.5021,-6.4702,-6.4365,-6.4071,-6.4024,-6.4024,-6.4218,-6.4509,-6.4768,-6.5189,-6.6323,-6.6873,-6.71,-6.7683,-6.8072,-6.8201,-6.8201,-6.8201,-6.8201,-6.8201,-6.8201,-6.8201,-6.8072,-6.8007,-6.7294,-6.6647,-6.6193,-6.5837,-6.5351,-6.485,-6.4704,-6.4509,-6.4445,-6.4315,-6.4185,-6.4121,-6.4024,-6.4024,-6.4024,-6.4024,-6.4024,-6.4024,-6.4024,-6.4024,-6.3991,-6.3973,-6.3998,-6.3969,-6.3897,-6.3786,-6.3669,-6.3609,-6.2912,-6.2094,-6.6812,-6.6812,-6.6812,-6.6812,-6.6812,-6.6812,-6.6812,-6.6812,-6.6812,-6.6812,-6.6812,-6.6812,-6.6812,-6.6812,-6.6812,-6.6812,-6.6812,-6.6812,-6.6812,-6.6812,-6.6812,-6.6812,-6.6812,-6.6812,-6.6812,-6.6812,-6.6812,-6.6846,-6.6914,-6.7387,-6.7726,-6.759,-6.7184,-6.6981,-6.6914,-6.6812,-6.6812,-6.6812,-6.6812,-6.6812,-6.6812,-6.6812,-6.6812,-6.6812,-6.6812,-6.6812,-6.6812,-6.6812,-6.6812,-6.6812,-6.6812,-6.6812,-6.6812,-6.6812,-6.6812,-6.6558,-6.5999,-6.5746,-6.579,-6.5078,-6.4702,-6.461,-6.4319,-6.4071,-6.4024,-6.4024,-6.4024,-6.4024,-6.4218,-6.4542,-6.4963,-6.574,-6.6485,-6.7068,-6.7748,-6.8007,-6.8169,-6.8201,-6.8201,-6.8201,-6.8201,-6.8201,-6.8201,-6.8104,-6.791,-6.7035,-6.6323,-6.5708,-6.5384,-6.5287,-6.4915,-6.4915,-6.4768,-6.4606,-6.4477,-6.4412,-6.4185,-6.4088,-6.4024,-6.4024,-6.4024,-6.4024,-6.4024,-6.4024,-6.4024,-6.3991,-6.4006,-6.3811,-6.3552,-6.3469,-6.3269,-6.2841,-6.2619,-6.2223,-6.1498,-6.6812,-6.6812,-6.6812,-6.6812,-6.6812,-6.6812,-6.6812,-6.6812,-6.6812,-6.6812,-6.6812,-6.6812,-6.6812,-6.6812,-6.6812,-6.6812,-6.6812,-6.6812,-6.6812,-6.6812,-6.6812,-6.6812,-6.6812,-6.6812,-6.6812,-6.6812,-6.6812,-6.6846,-6.6948,-6.7523,-6.7523,-6.7117,-6.732,-6.7184,-6.6948,-6.6812,-6.6812,-6.6812,-6.6812,-6.6812,-6.6812,-6.6812,-6.6812,-6.6812,-6.6812,-6.6812,-6.6812,-6.6812,-6.6812,-6.6812,-6.6812,-6.6812,-6.6812,-6.6812,-6.677,-6.6643,-6.579,-6.5078,-6.5348,-6.4748,-6.4226,-6.4272,-6.4071,-6.4071,-6.4024,-6.4056,-6.4056,-6.4024,-6.4024,-6.4315,-6.4736,-6.5416,-6.6031,-6.6647,-6.7424,-6.8072,-6.8201,-6.8201,-6.8201,-6.8201,-6.8201,-6.8201,-6.8201,-6.8201,-6.7877,-6.6873,-6.6064,-6.5416,-6.493,-6.4866,-6.4947,-6.4947,-6.493,-6.4768,-6.4801,-6.4736,-6.4412,-6.4185,-6.4088,-6.4024,-6.4024,-6.4024,-6.4024,-6.4024,-6.4024,-6.4024,-6.4024,-6.3797,-6.3505,-6.2955,-6.2691,-6.2107,-6.1665,-6.1381,-6.1012,-6.6812,-6.6812,-6.6812,-6.6812,-6.6812,-6.6812,-6.6812,-6.6812,-6.6812,-6.6812,-6.6812,-6.6812,-6.6812,-6.6812,-6.6812,-6.6812,-6.6812,-6.6812,-6.6812,-6.6812,-6.6812,-6.6812,-6.6812,-6.6812,-6.6812,-6.6812,-6.6812,-6.6812,-6.6948,-6.7117,-6.7151,-6.6948,-6.7354,-6.7184,-6.6948,-6.6812,-6.6812,-6.6812,-6.6812,-6.6812,-6.6812,-6.6812,-6.6812,-6.6812,-6.6812,-6.6812,-6.6812,-6.6812,-6.6812,-6.6812,-6.6812,-6.6812,-6.6812,-6.6812,-6.6643,-6.643,-6.5702,-6.5156,-6.5021,-6.4504,-6.4118,-6.4024,-6.4056,-6.4218,-6.4218,-6.4203,-6.4121,-6.4024,-6.4024,-6.4153,-6.4639,-6.5125,-6.5643,-6.6161,-6.7132,-6.8104,-6.8201,-6.8201,-6.8201,-6.8201,-6.8201,-6.8201,-6.8201,-6.8201,-6.778,-6.6744,-6.5934,-6.5384,-6.4801,-6.4412,-6.4656,-6.4915,-6.493,-6.4866,-6.493,-6.4866,-6.4445,-6.4153,-6.4056,-6.4024,-6.4024,-6.4024,-6.4024,-6.4024,-6.4024,-6.4024,-6.4024,-6.3764,-6.3441,-6.289,-6.234,-6.1834,-6.1458,-6.1089,-6.0591,-6.6812,-6.6812,-6.6812,-6.6812,-6.6812,-6.6812,-6.6812,-6.6812,-6.6812,-6.6812,-6.6812,-6.6812,-6.6812,-6.6812,-6.6812,-6.6812,-6.6812,-6.6812,-6.6812,-6.6812,-6.6812,-6.6812,-6.6812,-6.6812,-6.6812,-6.6812,-6.6812,-6.6812,-6.6846,-6.7049,-6.7218,-6.6846,-6.7049,-6.7015,-6.688,-6.6812,-6.6812,-6.6812,-6.6812,-6.6812,-6.6812,-6.6812,-6.6812,-6.6812,-6.6812,-6.6812,-6.6812,-6.6812,-6.6812,-6.6812,-6.6812,-6.6812,-6.6812,-6.6686,-6.644,-6.6095,-6.5481,-6.5078,-6.4748,-6.4319,-6.4215,-6.4121,-6.4121,-6.4574,-6.4736,-6.4542,-6.438,-6.4639,-6.4736,-6.4736,-6.5125,-6.5772,-6.629,-6.6711,-6.7392,-6.8039,-6.8201,-6.8201,-6.8201,-6.8201,-6.8201,-6.8201,-6.8201,-6.8169,-6.7877,-6.6711,-6.6161,-6.5643,-6.5092,-6.4574,-6.4639,-6.5012,-6.4915,-6.493,-6.4898,-6.4721,-6.4347,-6.4121,-6.4056,-6.4024,-6.4024,-6.4024,-6.4024,-6.4024,-6.4024,-6.4024,-6.3959,-6.3797,-6.3505,-6.2955,-6.2372,-6.1692,-6.1239,-6.0947,-6.0429,-6.6812,-6.6812,-6.6812,-6.6812,-6.6812,-6.6812,-6.6812,-6.6812,-6.6812,-6.6812,-6.6812,-6.6812,-6.6812,-6.6812,-6.6812,-6.6812,-6.6812,-6.6812,-6.6812,-6.6812,-6.6812,-6.6812,-6.6812,-6.6812,-6.6812,-6.6812,-6.6812,-6.6846,-6.688,-6.7184,-6.732,-6.6948,-6.7117,-6.7252,-6.6846,-6.6812,-6.6812,-6.6812,-6.6812,-6.6812,-6.6812,-6.6812,-6.6812,-6.6846,-6.6846,-6.6846,-6.6846,-6.6846,-6.6812,-6.6812,-6.6812,-6.6812,-6.6812,-6.6482,-6.6268,-6.6009,-6.5392,-6.4943,-6.461,-6.4305,-6.4265,-6.4606,-6.4801,-6.5254,-6.5351,-6.4995,-6.4995,-6.5351,-6.5513,-6.5481,-6.5675,-6.6323,-6.6906,-6.7262,-6.7618,-6.791,-6.8201,-6.8201,-6.8201,-6.8201,-6.8201,-6.8201,-6.8201,-6.8039,-6.7683,-6.7359,-6.7068,-6.6614,-6.6031,-6.5481,-6.5125,-6.5271,-6.5012,-6.4947,-6.485,-6.4656,-6.4315,-6.4088,-6.4024,-6.4024,-6.4024,-6.4024,-6.4024,-6.4024,-6.4024,-6.4024,-6.4024,-6.3991,-6.3635,-6.3149,-6.2663,-6.2113,-6.1465,-6.1077,-6.0461,-6.6812,-6.6812,-6.6812,-6.6812,-6.6812,-6.6812,-6.6812,-6.6812,-6.6812,-6.6812,-6.6812,-6.6812,-6.6812,-6.6812,-6.6812,-6.6812,-6.6812,-6.6812,-6.6812,-6.6812,-6.6812,-6.6812,-6.6812,-6.6812,-6.6812,-6.6812,-6.6812,-6.6846,-6.6914,-6.7049,-6.7083,-6.6914,-6.7252,-6.7252,-6.6812,-6.6812,-6.6812,-6.6812,-6.6812,-6.6812,-6.6812,-6.6846,-6.7049,-6.7117,-6.7049,-6.7049,-6.7117,-6.7049,-6.6812,-6.6812,-6.6812,-6.6812,-6.6728,-6.6516,-6.6215,-6.5834,-6.5303,-6.4793,-6.4518,-6.4337,-6.4347,-6.4833,-6.506,-6.5319,-6.6388,-6.6129,-6.5837,-6.6096,-6.5902,-6.5837,-6.6031,-6.6582,-6.6938,-6.7262,-6.7715,-6.8104,-6.8201,-6.8201,-6.8201,-6.8201,-6.8201,-6.8201,-6.8201,-6.8201,-6.7813,-6.7359,-6.7197,-6.6971,-6.6485,-6.6355,-6.5999,-6.5675,-6.5433,-6.485,-6.4397,-6.438,-6.4283,-6.4121,-6.4056,-6.4024,-6.4024,-6.4024,-6.4024,-6.4024,-6.4024,-6.4024,-6.4024,-6.4024,-6.3959,-6.3603,-6.3117,-6.2599,-6.1951,-6.1368,-6.0915,-6.6812,-6.6812,-6.6812,-6.6812,-6.6812,-6.6812,-6.6812,-6.6812,-6.6812,-6.6812,-6.6812,-6.6812,-6.6812,-6.6812,-6.6812,-6.6812,-6.6812,-6.6812,-6.6812,-6.6812,-6.6812,-6.6812,-6.6812,-6.6812,-6.6812,-6.6812,-6.6812,-6.6812,-6.6846,-6.6948,-6.6948,-6.6846,-6.6812,-6.6812,-6.6812,-6.6812,-6.6812,-6.6812,-6.6812,-6.6812,-6.6846,-6.6914,-6.7354,-6.7455,-6.7489,-6.7421,-6.7557,-6.7523,-6.7151,-6.7015,-6.7083,-6.7075,-6.6855,-6.6684,-6.6129,-6.578,-6.5336,-6.4839,-6.4426,-6.4132,-6.4557,-6.4963,-6.5012,-6.574,-6.6841,-6.7132,-6.6841,-6.6679,-6.6485,-6.6485,-6.6679,-6.6841,-6.7165,-6.7392,-6.7877,-6.8201,-6.8201,-6.8201,-6.8201,-6.8201,-6.8201,-6.8201,-6.8201,-6.8201,-6.7942,-6.7456,-6.7165,-6.6873,-6.6711,-6.6841,-6.6776,-6.6388,-6.6096,-6.5384,-6.4606,-6.4315,-6.4445,-6.4315,-6.425,-6.4121,-6.4024,-6.4024,-6.4024,-6.4024,-6.4024,-6.4024,-6.4024,-6.4024,-6.3959,-6.3926,-6.3635,-6.3149,-6.2631,-6.2048,-6.1627,-6.6812,-6.6812,-6.6812,-6.6812,-6.6812,-6.6812,-6.6812,-6.6812,-6.6812,-6.6812,-6.6812,-6.6812,-6.6812,-6.6812,-6.6812,-6.6812,-6.6812,-6.6812,-6.6812,-6.6812,-6.6812,-6.6812,-6.6812,-6.6812,-6.6812,-6.6812,-6.6812,-6.6812,-6.6812,-6.6812,-6.6812,-6.6812,-6.6812,-6.6812,-6.6812,-6.6812,-6.6812,-6.6812,-6.6812,-6.6812,-6.7049,-6.7252,-6.7692,-6.803,-6.8436,-6.8199,-6.8166,-6.847,-6.8199,-6.7929,-6.7649,-6.7597,-6.7343,-6.6901,-6.632,-6.5825,-6.5379,-6.4839,-6.4426,-6.4132,-6.4524,-6.5578,-6.5869,-6.6388,-6.7262,-6.7877,-6.7683,-6.7683,-6.7553,-6.7586,-6.7683,-6.7683,-6.791,-6.791,-6.8169,-6.8201,-6.8201,-6.8201,-6.8201,-6.8201,-6.8201,-6.8201,-6.8201,-6.8201,-6.8201,-6.7877,-6.7845,-6.7586,-6.7521,-6.7521,-6.7456,-6.7132,-6.6744,-6.6388,-6.5869,-6.493,-6.4768,-6.4606,-6.4412,-6.4153,-6.4024,-6.4024,-6.4024,-6.4024,-6.4024,-6.4024,-6.4024,-6.4024,-6.4024,-6.3991,-6.3991,-6.37,-6.3182,-6.2761,-6.2372]},{"header":{"parameterUnit":"m.s-1","parameterCategory":1,"la1":31.0,"la2":29.5877,"lo1":-88.7671,"lo2":-86.6584,"dy":0.0162,"dx":0.0185,"nx":115,"ny":88,"refTime":"2023-04-01T06:00:00:Z","depth":0,"parameterNumber":3,"parameterNumberName":"V-component_of_WINDS"},"data":[0.0,0.0,0.0,0.0,0.0,0.0,0.0,0.0,0.0,0.0,0.0,0.0,0.0,0.0,0.0,0.0,0.0,0.0,0.0,0.0,0.0,0.0,0.0,0.0,0.0,0.0,0.0,0.0,0.0,0.0,0.0,0.0,0.0,0.0,0.0,0.0,0.0,0.0,0.0,0.0,0.0,0.0,0.0,0.0,0.0,0.0,0.0,0.0,0.0,0.0,0.0,0.0,0.0,0.0,0.0,0.0,0.0,0.0,0.0,0.0,0.0,0.0,0.0,0.0,0.0,0.0,0.0,0.0,0.0,0.0,0.0,0.0,0.0,0.0,0.0,0.0,0.0,0.0,0.0,0.0,0.0,0.0,0.0,0.0,0.0,0.0,0.0,0.0,0.0,0.0,0.0,0.0,0.0,0.0,0.0,0.0,0.0,0.0,0.0,0.0,0.0,0.0,0.0,0.0,0.0,0.0,0.0,0.0,0.0,0.0,0.0,0.0,0.0,0.0,0.0,0.0,0.0,0.0,0.0,0.0,0.0,0.0,0.0,0.0,0.0,0.0,0.0,0.0,0.0,0.0,0.0,0.0,0.0,0.0,0.0,0.0,0.0,0.0,0.0,0.0,0.0,0.0,0.0,0.0,0.0,0.0,0.0,0.0,0.0,0.0,0.0,0.0,0.0,0.0,0.0,0.0,0.0,0.0,0.0,0.0,0.0,0.0,0.0,0.0,0.0,0.0,0.0,0.0,0.0,0.0,0.0,0.0,0.0,0.0,0.0,0.0,0.0,0.0,0.0,0.0,0.0,0.0,0.0,0.0,0.0,0.0,0.0,0.0,0.0,0.0,0.0,0.0,0.0,0.0,0.0,0.0,0.0,0.0,0.0,0.0,0.0,0.0,0.0,0.0,0.0,0.0,0.0,0.0,0.0,0.0,0.0,0.0,0.0,0.0,0.0,0.0,0.0,0.0,0.0,0.0,0.0,0.0,0.0,0.0,0.0,0.0,0.0,0.0,0.0,0.0,0.0,0.0,0.0,0.0,0.0,0.0,0.0,0.0,0.0,0.0,0.0,0.0,0.0,0.0,0.0,0.0,0.0,0.0,0.0,0.0,0.0,0.0,0.0,0.0,0.0,0.0,0.0,0.0,0.0,0.0,0.0,0.0,0.0,0.0,0.0,0.0,0.0,0.0,0.0,0.0,0.0,0.0,0.0,0.0,0.0,0.0,0.0,0.0,0.0,0.0,0.0,0.0,0.0,0.0,0.0,0.0,0.0,0.0,0.0,0.0,0.0,0.0,0.0,0.0,0.0,0.0,0.0,0.0,0.0,0.0,0.0,0.0,0.0,0.0,0.0,0.0,0.0,0.0,0.0,0.0,0.0,0.0,0.0,0.0,0.0,0.0,0.0,0.0,0.0,0.0,0.0,0.0,0.0,0.0,0.0,0.0,0.0,0.0,0.0,0.0,0.0,0.0,0.0,0.0,0.0,0.0,0.0,0.0,0.0,0.0,0.0,0.0,0.0,0.0,0.0,0.0,0.0,0.0,0.0,0.0,0.0,0.0,0.0,0.0,0.0,0.0,0.0,0.0,0.0,0.0,0.0,0.0,0.0,0.0,0.0,0.0,0.0,0.0,0.0,0.0,0.0,0.0,0.0,0.0,0.0,0.0,0.0,0.0,0.0,0.0,0.0,0.0,0.0,0.0,0.0,0.0,0.0,0.0,0.0,0.0,0.0,0.0,0.0,0.0,0.0,0.0,0.0,0.0,0.0,0.0,0.0,0.0,0.0,0.0,0.0,0.0,0.0,0.0,0.0,0.0,0.0,0.0,0.0,0.0,0.0,0.0,0.0,0.0,0.0,0.0,0.0,0.0,0.0,0.0,0.0,0.0,0.0,0.0,0.0,0.0,0.0,0.0,0.0,0.0,0.0,0.0,0.0,0.0,0.0,0.0,0.0,0.0,0.0,0.0,0.0,0.0,0.0,0.0,0.0,0.0,0.0,0.0,0.0,0.0,0.0,0.0,0.0,0.0,0.0,0.0,0.0,0.0,0.0,0.0,0.0,0.0,0.0,0.0,0.0,0.0,0.0,0.0,0.0,0.0,0.0,0.0,0.0,0.0,0.0,0.0,0.0,0.0,0.0,0.0,0.0,0.0,0.0,0.0,0.0,0.0,0.0,0.0,0.0,0.0,0.0,0.0,0.0,0.0,0.0,0.0,0.0,0.0,0.0,0.0,0.0,0.0,0.0,0.0,0.0,0.0,0.0,0.0,0.0,0.0,0.0,0.0,0.0,0.0,0.0,0.0,0.0,0.0,0.0,0.0,0.0,0.0,0.0,0.0,0.0,0.0,0.0,0.0,0.0,0.0,0.0,0.0,0.0,0.0,0.0,0.0,0.0,0.0,0.0,0.0,0.0,0.0,0.0,0.0,0.0,0.0,0.0,0.0,0.0,0.0,0.0,0.0,0.0,0.0,0.0,0.0,0.0,0.0,0.0,0.0,0.0,0.0,0.0,0.0,0.0,0.0,0.0,0.0,0.0,0.0,0.0,0.0,0.0,0.0,0.0,0.0,0.0,0.0,0.0,0.0,0.0,0.0,0.0,0.0,0.0,0.0,0.0,0.0,0.0,0.0,0.0,0.0,0.0,0.0,0.0,0.0,0.0,0.0,0.0,0.0,0.0,0.0,0.0,0.0,0.0,0.0,0.0,0.0,0.0,0.0,0.0,0.0,0.0,0.0,0.0,0.0,0.0,0.0,0.0,0.0,0.0,0.0,0.0,0.0,0.0,0.0,0.0,0.0,0.0,0.0,0.0,0.0,0.0,0.0,0.0,0.0,0.0,0.0,0.0,0.0,0.0,0.0,0.0,0.0,0.0,0.0,0.0,0.0,0.0,0.0,0.0,0.0,0.0,0.0,0.0,0.0,0.0,0.0,0.0,0.0,0.0,0.0,0.0,0.0,0.0,0.0,0.0,0.0,0.0,0.0,0.0,0.0,0.0,0.0,0.0,0.0,0.0,0.0,0.0,0.0,0.0,0.0,0.0,0.0,0.0,0.0,0.0,0.0,0.0,0.0,0.0,0.0,0.0,0.0,0.0,0.0,0.0,0.0,0.0,0.0,0.0,0.0,0.0,0.0,0.0,0.0,0.0,0.0,0.0,0.0,0.0,0.0,0.0,0.0,0.0,0.0,0.0,0.0,0.0,0.0,0.0,0.0,0.0,0.0,0.0,0.0,0.0,0.0,0.0,0.0,0.0,0.0,0.0,0.0,0.0,0.0,0.0,0.0,0.0,0.0,0.0,0.0,0.0,0.0,0.0,0.0,0.0,0.0,0.0,0.0,0.0,0.0,0.0,0.0,0.0,0.0,0.0,0.0,0.0,0.0,0.0,0.0,0.0,0.0,0.0,0.0,0.0,0.0,0.0,0.0,0.0,0.0,0.0,0.0,0.0,0.0,0.0,0.0,0.0,0.0,0.0,0.0,0.0,0.0,0.0,0.0,0.0,0.0,0.0,0.0,0.0,0.0,0.0,0.0,0.0,0.0,0.0,0.0,0.0,0.0,0.0,0.0,0.0,0.0,0.0,0.0,0.0,0.0,0.0,0.0,0.0,0.0,0.0,0.0,0.0,0.0,0.0,0.0,0.0,0.0,0.0,0.0,0.0,0.0,0.0,0.0,0.0,0.0,0.0,0.0,0.0,0.0,0.0,0.0,0.0,0.0,0.0,0.0,0.0,0.0,0.0,0.0,0.0,0.0,0.0,0.0,0.0,0.0,0.0,0.0,0.0,0.0,0.0,0.0,0.0,0.0,0.0,0.0,0.0,0.0,0.0,0.0,0.0,0.0,0.0,0.0,0.0,0.0,0.0,0.0,0.0,0.0,0.0,0.0,0.0,0.0,0.0,0.0,0.0,0.0,0.0,0.0,0.0,0.0,0.0,0.0,0.0,0.0,0.0,0.0,0.0,0.0,0.0,0.0,0.0,0.0,0.0,0.0,0.0,0.0,0.0,0.0,0.0,0.0,0.0,0.0,0.0,0.0,0.0,0.0,0.0,0.0,0.0,0.0,0.0,0.0,0.0,0.0,0.0,0.0,0.0,0.0,0.0,0.0,0.0,0.0,0.0,0.0,0.0,0.0,0.0,0.0,0.0,0.0,0.0,0.0,0.0,0.0,0.0,0.0,0.0,0.0,0.0,0.0,0.0,0.0,0.0,0.0,0.0,0.0,0.0,0.0,0.0,0.0,0.0,0.0,0.0,0.0,0.0,0.0,0.0,0.0,1.539,0.0,0.0,0.0,0.0,0.0,0.0,0.0,0.0,0.0,0.0,0.0,0.0,0.0,0.0,0.0,0.0,0.0,0.0,0.0,0.0,0.0,0.0,0.0,0.0,0.0,0.0,0.0,0.0,0.0,0.0,0.0,0.0,0.0,0.0,0.0,0.0,0.0,0.0,0.0,0.0,0.0,0.0,0.0,0.0,0.0,0.0,0.0,0.0,0.0,0.0,0.0,0.0,0.0,0.0,0.0,0.0,0.0,0.0,0.0,0.0,0.0,0.0,0.0,0.0,0.0,0.0,0.0,0.0,0.0,0.0,0.0,0.0,0.0,0.0,0.0,0.0,0.0,0.0,0.0,0.0,0.0,0.0,0.0,0.0,0.0,0.0,0.0,0.0,0.0,0.0,0.0,0.0,0.0,0.0,0.0,0.0,0.0,0.0,0.0,0.0,0.0,0.0,0.0,0.0,0.0,0.0,0.0,0.0,0.0,0.0,1.5981,1.5838,1.588,1.5895,1.5895,0.0,0.0,0.0,0.0,0.0,0.0,0.0,0.0,0.0,0.0,0.0,0.0,0.0,0.0,0.0,0.0,0.0,0.0,0.0,0.0,0.0,0.0,0.0,0.0,0.0,0.0,0.0,0.0,0.0,0.0,0.0,0.0,0.0,0.0,0.0,0.0,0.0,0.0,0.0,0.0,0.0,0.0,0.0,0.0,0.0,0.0,0.0,0.0,0.0,0.0,0.0,0.0,0.0,0.0,0.0,0.0,0.0,0.0,0.0,0.0,0.0,0.0,0.0,0.0,0.0,0.0,0.0,0.0,0.0,0.0,0.0,0.0,0.0,0.0,0.0,0.0,0.0,0.0,0.0,0.0,0.0,0.0,0.0,0.0,0.0,0.0,0.0,0.0,0.0,0.0,0.0,0.0,0.0,0.0,0.0,0.0,0.0,0.0,0.0,0.0,0.0,0.0,0.0,0.0,0.0,0.0,0.0,0.0,0.0,0.0,0.0,0.0,1.6619,1.6603,1.6673,0.0,0.0,0.0,0.0,0.0,0.0,0.0,0.0,0.0,0.0,0.0,0.0,0.0,0.0,0.0,0.0,0.0,0.0,0.0,0.0,0.0,0.0,0.0,0.0,0.0,0.0,0.0,0.0,0.0,0.0,0.0,0.0,0.0,0.0,0.0,0.0,0.0,0.0,0.0,0.0,0.0,0.0,0.0,0.0,0.0,0.0,0.0,0.0,0.0,0.0,0.0,0.0,0.0,0.0,0.0,0.0,0.0,0.0,0.0,0.0,0.0,0.0,0.0,0.0,0.0,0.0,0.0,0.0,0.0,0.0,0.0,0.0,0.0,0.0,0.0,0.0,0.0,0.0,0.0,0.0,0.0,0.0,0.0,0.0,0.0,0.0,0.0,0.0,0.0,0.0,0.0,0.0,0.0,0.0,0.0,0.0,0.0,0.0,0.0,0.0,0.0,0.0,0.0,0.0,0.0,0.0,0.0,0.0,0.0,0.0,1.7198,1.7268,1.753,0.0,1.8153,0.0,0.0,0.0,0.0,0.0,0.0,0.0,0.0,0.0,0.0,0.0,0.0,0.0,0.0,0.0,0.0,0.0,0.0,0.0,0.0,0.0,0.0,0.0,0.0,0.0,0.0,0.0,0.0,0.0,0.0,0.0,0.0,0.0,0.0,0.0,0.0,0.0,0.0,0.0,0.0,0.0,0.0,0.0,0.0,0.0,0.0,0.0,0.0,0.0,0.0,0.0,0.0,0.0,0.0,0.0,0.0,0.0,0.0,0.0,0.0,0.0,0.0,0.0,0.0,0.0,0.0,0.0,0.0,0.0,0.0,0.0,0.0,0.0,0.0,0.0,0.0,0.0,0.0,0.0,0.0,0.0,0.0,0.0,0.0,0.0,0.0,0.0,0.0,0.0,0.0,0.0,0.0,0.0,0.0,0.0,0.0,0.0,0.0,0.0,0.0,0.0,0.0,0.0,0.0,0.0,0.0,0.0,0.0,0.0,0.0,1.7379,1.765,1.8002,1.8293,0.0,0.0,0.0,0.0,0.0,0.0,0.0,0.0,0.0,0.0,0.0,0.0,0.0,0.0,0.0,0.0,0.0,0.0,0.0,0.0,0.0,0.0,0.0,0.0,0.0,0.0,0.0,0.0,0.0,0.0,0.0,0.0,0.0,0.0,0.0,0.0,0.0,0.0,0.0,0.0,0.0,0.0,0.0,0.0,0.0,0.0,0.0,0.0,0.0,0.0,0.0,0.0,0.0,0.0,0.0,0.0,0.0,0.0,0.0,0.0,0.0,0.0,0.0,0.0,0.0,0.0,0.0,0.0,0.0,0.0,0.0,0.0,0.0,0.0,0.0,0.0,0.0,0.0,0.0,0.0,0.0,0.0,0.0,0.0,0.0,0.0,0.0,0.0,0.0,0.0,0.0,0.0,0.0,0.0,0.0,0.0,0.0,0.0,0.0,0.0,0.0,0.0,0.0,0.0,0.0,0.0,0.0,0.0,0.0,0.0,1.7888,1.7814,1.8167,1.8325,1.8433,1.8433,0.0,0.0,0.0,0.0,0.0,0.0,0.0,0.0,0.0,0.0,0.0,0.0,0.0,0.0,0.0,0.0,0.0,0.0,0.0,0.0,0.0,0.0,0.0,0.0,0.0,0.0,0.0,0.0,0.0,0.0,0.0,0.0,0.0,0.0,0.0,0.0,0.0,0.0,0.0,0.0,0.0,0.0,0.0,0.0,0.0,0.0,0.0,0.0,0.0,0.0,0.0,0.0,0.0,0.0,0.0,0.0,0.0,0.0,0.0,0.0,0.0,0.0,0.0,0.0,0.0,0.0,0.0,0.0,0.0,0.0,0.0,0.0,0.0,0.0,0.0,0.0,0.0,0.0,0.0,0.0,0.0,0.0,0.0,0.0,0.0,0.0,0.0,0.0,0.0,0.0,0.0,0.0,0.0,0.0,0.0,0.0,0.0,0.0,0.0,0.0,0.0,0.0,0.0,0.0,0.0,0.0,0.0,0.0,1.9071,1.8824,1.8767,1.8756,1.8552,1.8433,0.0,0.0,0.0,0.0,0.0,0.0,0.0,0.0,0.0,0.0,0.0,0.0,0.0,0.0,0.0,0.0,0.0,0.0,0.0,0.0,0.0,0.0,0.0,0.0,0.0,0.0,0.0,0.0,0.0,0.0,0.0,0.0,0.0,0.0,0.0,0.0,0.0,0.0,0.0,0.0,0.0,0.0,0.0,0.0,0.0,0.0,0.0,0.0,0.0,0.0,0.0,0.0,0.0,0.0,0.0,0.0,0.0,0.0,0.0,0.0,0.0,0.0,0.0,0.0,0.0,0.0,0.0,0.0,0.0,0.0,0.0,0.0,0.0,0.0,0.0,0.0,0.0,0.0,0.0,0.0,0.0,0.0,0.0,0.0,0.0,0.0,0.0,0.0,0.0,0.0,0.0,0.0,0.0,0.0,0.0,0.0,0.0,0.0,0.0,0.0,0.0,0.0,0.0,0.0,0.0,0.0,0.0,0.0,0.0,1.906,1.8767,1.8562,1.8552,1.8406,1.8433,0.0,0.0,0.0,0.0,0.0,0.0,0.0,0.0,0.0,0.0,0.0,0.0,0.0,0.0,0.0,0.0,0.0,0.0,0.0,0.0,0.0,0.0,0.0,0.0,0.0,0.0,0.0,0.0,0.0,0.0,0.0,0.0,0.0,0.0,0.0,0.0,0.0,0.0,0.0,0.0,0.0,0.0,0.0,0.0,0.0,0.0,0.0,0.0,0.0,0.0,0.0,0.0,0.0,0.0,0.0,0.0,0.0,0.0,0.0,0.0,0.0,0.0,0.0,0.0,0.0,0.0,0.0,0.0,0.0,0.0,0.0,0.0,0.0,0.0,0.0,0.0,0.0,0.0,0.0,0.0,0.0,0.0,0.0,0.0,0.0,0.0,0.0,0.0,0.0,0.0,0.0,0.0,0.0,0.0,0.0,0.0,0.0,0.0,0.0,0.0,0.0,0.0,0.0,0.0,0.0,0.0,0.0,0.0,0.0,1.9025,0.0,1.8395,1.8541,1.8606,1.8573,0.0,0.0,0.0,0.0,0.0,0.0,0.0,0.0,0.0,0.0,0.0,0.0,0.0,0.0,0.0,0.0,0.0,0.0,0.0,0.0,0.0,0.0,0.0,0.0,0.0,0.0,0.0,0.0,0.0,0.0,0.0,0.0,0.0,0.0,0.0,0.0,0.0,0.0,0.0,0.0,0.0,0.0,0.0,0.0,0.0,0.0,0.0,0.0,0.0,0.0,0.0,0.0,0.0,0.0,0.0,0.0,0.0,0.0,0.0,0.0,0.0,0.0,0.0,0.0,0.0,0.0,0.0,0.0,0.0,0.0,0.0,0.0,0.0,0.0,0.0,0.0,0.0,0.0,0.0,0.0,0.0,0.0,0.0,0.0,0.0,0.0,0.0,0.0,0.0,0.0,0.0,0.0,0.0,0.0,0.0,0.0,0.0,0.0,0.0,0.0,0.0,0.0,0.0,0.0,0.0,0.0,0.0,0.0,1.9015,1.8789,1.8552,1.8541,1.8756,1.8893,1.8982,0.0,0.0,0.0,0.0,0.0,0.0,0.0,0.0,0.0,0.0,0.0,0.0,0.0,0.0,0.0,0.0,0.0,0.0,0.0,0.0,0.0,0.0,0.0,0.0,0.0,0.0,0.0,0.0,0.0,0.0,0.0,0.0,0.0,0.0,0.0,0.0,0.0,0.0,0.0,0.0,0.0,0.0,0.0,0.0,0.0,0.0,0.0,0.0,0.0,0.0,0.0,0.0,0.0,0.0,0.0,0.0,0.0,0.0,0.0,0.0,0.0,0.0,0.0,0.0,0.0,0.0,0.0,0.0,0.0,0.0,0.0,0.0,0.0,0.0,0.0,0.0,0.0,0.0,0.0,0.0,0.0,0.0,0.0,0.0,0.0,0.0,0.0,0.0,0.0,0.0,0.0,0.0,0.0,0.0,0.0,0.0,0.0,0.0,0.0,0.0,0.0,0.0,0.0,0.0,0.0,0.0,0.0,0.0,0.0,1.8552,1.8476,1.8606,1.8882,1.8957,1.9133,0.0,0.0,0.0,0.0,0.0,0.0,0.0,0.0,0.0,0.0,0.0,0.0,0.0,0.0,0.0,0.0,0.0,0.0,0.0,0.0,0.0,0.0,0.0,0.0,0.0,0.0,0.0,0.0,0.0,0.0,0.0,0.0,0.0,0.0,0.0,0.0,0.0,0.0,0.0,0.0,0.0,0.0,0.0,0.0,0.0,0.0,0.0,0.0,0.0,0.0,0.0,0.0,0.0,0.0,0.0,0.0,0.0,0.0,0.0,0.0,0.0,0.0,0.0,0.0,0.0,0.0,0.0,0.0,0.0,0.0,0.0,0.0,0.0,0.0,0.0,0.0,0.0,0.0,0.0,0.0,0.0,0.0,0.0,0.0,0.0,0.0,0.0,0.0,0.0,0.0,0.0,0.0,0.0,0.0,0.0,0.0,0.0,0.0,0.0,0.0,0.0,0.0,0.0,0.0,0.0,0.0,0.0,0.0,0.0,1.9273,1.8714,1.8573,1.8982,1.9273,1.9622,1.9959,0.0,0.0,0.0,0.0,0.0,0.0,0.0,0.0,0.0,0.0,0.0,0.0,0.0,0.0,0.0,0.0,0.0,0.0,0.0,0.0,0.0,0.0,0.0,0.0,0.0,0.0,0.0,0.0,0.0,0.0,0.0,0.0,0.0,0.0,0.0,0.0,0.0,0.0,0.0,0.0,0.0,0.0,0.0,0.0,0.0,0.0,0.0,0.0,0.0,0.0,0.0,0.0,0.0,0.0,0.0,0.0,0.0,0.0,0.0,0.0,0.0,0.0,0.0,0.0,0.0,0.0,0.0,0.0,0.0,0.0,0.0,0.0,0.0,0.0,0.0,0.0,0.0,0.0,0.0,0.0,0.0,0.0,0.0,0.0,0.0,0.0,0.0,0.0,0.0,0.0,0.0,0.0,0.0,0.0,0.0,0.0,0.0,0.0,0.0,0.0,0.0,0.0,0.0,0.0,0.0,0.0,0.0,0.0,2.0735,1.9332,1.8784,1.9122,1.9831,2.0388,0.0,0.0,0.0,0.0,0.0,0.0,0.0,0.0,0.0,0.0,0.0,0.0,0.0,0.0,0.0,0.0,0.0,0.0,0.0,0.0,0.0,0.0,0.0,0.0,0.0,0.0,0.0,0.0,0.0,0.0,0.0,0.0,0.0,0.0,0.0,0.0,0.0,0.0,0.0,0.0,0.0,0.0,0.0,0.0,0.0,0.0,0.0,0.0,0.0,0.0,0.0,0.0,0.0,0.0,0.0,0.0,0.0,0.0,0.0,0.0,0.0,0.0,0.0,0.0,0.0,0.0,0.0,0.0,0.0,0.0,0.0,0.0,0.0,0.0,0.0,0.0,0.0,0.0,0.0,0.0,0.0,0.0,0.0,0.0,0.0,0.0,0.0,0.0,0.0,0.0,0.0,0.0,0.0,0.0,0.0,0.0,0.0,0.0,0.0,0.0,0.0,0.0,0.0,0.0,0.0,0.0,0.0,0.0,0.0,2.1459,2.1044,2.078,2.0653,2.1138,2.1415,0.0,0.0,0.0,0.0,0.0,0.0,0.0,0.0,0.0,0.0,0.0,0.0,0.0,0.0,0.0,0.0,0.0,0.0,0.0,0.0,0.0,0.0,0.0,0.0,0.0,0.0,0.0,0.0,0.0,0.0,0.0,0.0,0.0,0.0,0.0,0.0,0.0,0.0,0.0,0.0,0.0,0.0,0.0,0.0,0.0,0.0,0.0,0.0,0.0,0.0,0.0,0.0,0.0,0.0,0.0,0.0,0.0,0.0,0.0,0.0,0.0,0.0,0.0,0.0,0.0,0.0,0.0,0.0,0.0,0.0,0.0,0.0,0.0,0.0,0.0,0.0,0.0,0.0,0.0,0.0,0.0,0.0,0.0,0.0,0.0,0.0,0.0,0.0,0.0,0.0,0.0,0.0,0.0,0.0,0.0,0.0,0.0,0.0,0.0,0.0,0.0,0.0,0.0,0.0,0.0,0.0,0.0,0.0,2.2574,2.2455,2.2697,2.2642,2.2196,2.2245,2.231,0.0,0.0,0.0,0.0,0.0,0.0,0.0,0.0,0.0,0.0,0.0,0.0,0.0,0.0,0.0,0.0,0.0,0.0,0.0,0.0,0.0,0.0,0.0,0.0,0.0,0.0,0.0,0.0,0.0,0.0,0.0,0.0,0.0,0.0,0.0,0.0,0.0,0.0,0.0,0.0,0.0,0.0,0.0,0.0,0.0,0.0,0.0,0.0,0.0,0.0,0.0,0.0,0.0,0.0,0.0,0.0,0.0,0.0,0.0,0.0,0.0,0.0,0.0,0.0,0.0,0.0,0.0,0.0,0.0,0.0,0.0,0.0,0.0,0.0,0.0,0.0,0.0,0.0,0.0,0.0,0.0,0.0,0.0,0.0,0.0,0.0,0.0,0.0,0.0,0.0,0.0,0.0,0.0,0.0,0.0,0.0,0.0,0.0,0.0,0.0,0.0,0.0,0.0,0.0,0.0,0.0,0.0,0.0,2.3961,2.3694,2.4217,2.4299,2.3708,2.327,2.3201,0.0,0.0,0.0,0.0,0.0,0.0,0.0,0.0,0.0,0.0,0.0,0.0,0.0,0.0,0.0,0.0,0.0,0.0,0.0,0.0,0.0,0.0,0.0,0.0,0.0,0.0,0.0,0.0,0.0,0.0,0.0,0.0,0.0,0.0,0.0,0.0,0.0,0.0,0.0,0.0,0.0,0.0,0.0,0.0,0.0,0.0,0.0,0.0,0.0,0.0,0.0,0.0,0.0,0.0,0.0,0.0,0.0,0.0,0.0,0.0,0.0,0.0,0.0,0.0,0.0,0.0,0.0,0.0,0.0,0.0,0.0,0.0,0.0,0.0,0.0,0.0,0.0,0.0,0.0,0.0,0.0,0.0,0.0,0.0,0.0,0.0,0.0,0.0,0.0,0.0,0.0,0.0,0.0,0.0,0.0,0.0,0.0,0.0,0.0,0.0,0.0,0.0,0.0,0.0,0.0,0.0,0.0,0.0,2.482,2.4747,2.4887,2.4887,2.4747,2.4399,2.4102,0.0,0.0,0.0,0.0,0.0,0.0,0.0,0.0,0.0,0.0,0.0,0.0,0.0,0.0,0.0,0.0,0.0,0.0,0.0,0.0,0.0,0.0,0.0,0.0,0.0,0.0,0.0,0.0,0.0,0.0,0.0,0.0,0.0,0.0,0.0,0.0,0.0,0.0,0.0,0.0,0.0,0.0,0.0,0.0,0.0,0.0,0.0,0.0,2.6532,0.0,0.0,0.0,0.0,0.0,0.0,0.0,0.0,0.0,0.0,0.0,0.0,0.0,0.0,0.0,0.0,0.0,0.0,0.0,0.0,0.0,0.0,0.0,0.0,0.0,0.0,0.0,0.0,0.0,0.0,0.0,0.0,0.0,0.0,0.0,0.0,0.0,0.0,0.0,0.0,0.0,0.0,0.0,0.0,0.0,0.0,0.0,0.0,0.0,0.0,0.0,0.0,0.0,0.0,0.0,0.0,0.0,0.0,0.0,2.5517,2.5368,2.5315,2.5248,2.5115,2.4911,2.4713,0.0,0.0,0.0,0.0,0.0,0.0,0.0,0.0,0.0,0.0,0.0,0.0,0.0,0.0,0.0,0.0,0.0,0.0,0.0,0.0,0.0,0.0,0.0,0.0,0.0,0.0,0.0,0.0,0.0,0.0,0.0,0.0,0.0,0.0,0.0,0.0,0.0,0.0,0.0,0.0,0.0,0.0,0.0,0.0,0.0,0.0,0.0,0.0,0.0,0.0,0.0,0.0,0.0,0.0,0.0,0.0,0.0,0.0,0.0,0.0,0.0,0.0,0.0,0.0,0.0,0.0,0.0,0.0,0.0,0.0,0.0,0.0,0.0,0.0,0.0,0.0,0.0,0.0,0.0,0.0,0.0,0.0,0.0,0.0,0.0,0.0,0.0,0.0,0.0,0.0,0.0,0.0,0.0,0.0,0.0,0.0,0.0,0.0,0.0,0.0,0.0,0.0,0.0,0.0,0.0,0.0,0.0,2.6145,2.5941,2.5667,2.5658,2.5524,2.5255,2.5241,2.5255,2.5255,0.0,0.0,0.0,0.0,0.0,0.0,0.0,0.0,0.0,0.0,0.0,0.0,0.0,0.0,0.0,0.0,0.0,0.0,0.0,0.0,0.0,0.0,0.0,0.0,0.0,0.0,0.0,0.0,0.0,0.0,0.0,0.0,0.0,0.0,0.0,0.0,0.0,0.0,2.8345,2.8263,0.0,0.0,0.0,0.0,0.0,0.0,0.0,0.0,2.8329,0.0,0.0,0.0,0.0,0.0,0.0,0.0,0.0,0.0,0.0,0.0,0.0,0.0,0.0,0.0,0.0,0.0,0.0,0.0,0.0,0.0,0.0,0.0,0.0,0.0,0.0,0.0,0.0,0.0,0.0,0.0,0.0,0.0,0.0,0.0,0.0,0.0,0.0,0.0,0.0,0.0,0.0,0.0,0.0,0.0,0.0,0.0,0.0,0.0,0.0,0.0,0.0,0.0,0.0,0.0,0.0,2.6599,2.6264,2.6048,2.5987,2.6048,2.5981,2.592,2.5913,2.5944,2.5876,0.0,0.0,0.0,0.0,0.0,0.0,0.0,0.0,0.0,0.0,0.0,0.0,0.0,0.0,0.0,0.0,0.0,0.0,0.0,0.0,0.0,0.0,0.0,0.0,0.0,0.0,0.0,0.0,0.0,0.0,0.0,0.0,0.0,0.0,0.0,0.0,0.0,0.0,0.0,2.8263,2.8263,0.0,0.0,0.0,0.0,0.0,0.0,0.0,0.0,2.8196,0.0,0.0,0.0,0.0,0.0,0.0,0.0,0.0,0.0,0.0,0.0,0.0,0.0,0.0,0.0,0.0,0.0,0.0,0.0,0.0,0.0,0.0,0.0,0.0,0.0,0.0,0.0,0.0,0.0,0.0,0.0,0.0,0.0,0.0,0.0,0.0,0.0,0.0,0.0,0.0,0.0,0.0,0.0,0.0,0.0,0.0,0.0,0.0,0.0,0.0,0.0,0.0,0.0,0.0,0.0,2.6965,2.6934,2.6918,2.6918,2.6733,2.6666,2.6682,2.6532,2.6398,0.0,0.0,0.0,0.0,0.0,0.0,0.0,0.0,0.0,0.0,0.0,0.0,0.0,0.0,0.0,0.0,0.0,0.0,0.0,0.0,0.0,0.0,0.0,0.0,0.0,0.0,0.0,0.0,0.0,0.0,0.0,0.0,0.0,0.0,0.0,0.0,0.0,0.0,0.0,0.0,2.8856,2.8856,2.8856,0.0,0.0,0.0,0.0,0.0,0.0,2.8922,2.8856,0.0,0.0,0.0,0.0,0.0,0.0,0.0,0.0,0.0,0.0,0.0,0.0,0.0,0.0,0.0,0.0,0.0,0.0,0.0,0.0,0.0,0.0,0.0,0.0,0.0,0.0,0.0,0.0,0.0,0.0,0.0,0.0,0.0,0.0,0.0,0.0,0.0,0.0,0.0,0.0,0.0,0.0,0.0,0.0,0.0,0.0,0.0,0.0,0.0,0.0,0.0,0.0,0.0,0.0,0.0,2.7232,2.7517,2.77,2.7716,2.7533,2.74,2.74,2.72,2.7,0.0,0.0,0.0,0.0,0.0,0.0,0.0,0.0,0.0,0.0,0.0,0.0,0.0,0.0,0.0,0.0,0.0,0.0,0.0,0.0,0.0,0.0,0.0,0.0,0.0,0.0,0.0,0.0,0.0,0.0,0.0,0.0,0.0,0.0,0.0,0.0,0.0,0.0,0.0,0.0,0.0,2.9282,2.9213,2.9265,0.0,0.0,0.0,0.0,2.9213,2.9196,0.0,0.0,0.0,0.0,0.0,0.0,0.0,0.0,0.0,0.0,0.0,0.0,0.0,0.0,0.0,0.0,0.0,0.0,0.0,0.0,0.0,0.0,0.0,0.0,0.0,0.0,0.0,0.0,0.0,0.0,0.0,0.0,0.0,0.0,0.0,0.0,0.0,0.0,0.0,0.0,0.0,0.0,0.0,0.0,0.0,0.0,0.0,0.0,0.0,0.0,0.0,0.0,0.0,0.0,0.0,0.0,2.7232,2.7517,2.77,2.77,2.7981,2.8196,2.8196,2.813,2.813,0.0,0.0,0.0,0.0,0.0,0.0,0.0,0.0,0.0,0.0,0.0,0.0,0.0,0.0,0.0,0.0,0.0,0.0,0.0,0.0,0.0,0.0,0.0,0.0,0.0,0.0,0.0,0.0,0.0,0.0,0.0,0.0,0.0,0.0,0.0,0.0,0.0,0.0,0.0,0.0,0.0,2.9196,2.8888,2.9111,2.9076,0.0,0.0,2.8837,2.8837,2.8837,0.0,0.0,0.0,0.0,0.0,0.0,0.0,0.0,0.0,0.0,0.0,0.0,0.0,0.0,0.0,0.0,0.0,0.0,0.0,0.0,0.0,0.0,0.0,0.0,0.0,0.0,0.0,0.0,0.0,0.0,0.0,0.0,0.0,0.0,0.0,0.0,0.0,0.0,0.0,0.0,0.0,0.0,0.0,0.0,0.0,0.0,0.0,0.0,0.0,0.0,0.0,0.0,0.0,0.0,0.0,2.8099,2.7831,2.813,2.8329,2.8329,2.8461,2.8609,2.8609,2.8793,2.891,0.0,0.0,0.0,0.0,0.0,0.0,0.0,0.0,0.0,0.0,0.0,0.0,0.0,0.0,0.0,0.0,0.0,0.0,0.0,0.0,0.0,0.0,0.0,0.0,0.0,0.0,0.0,0.0,0.0,0.0,0.0,0.0,0.0,0.0,0.0,0.0,0.0,0.0,0.0,0.0,0.0,0.0,2.8837,2.8922,0.0,0.0,0.0,2.8785,2.8785,0.0,0.0,0.0,0.0,0.0,0.0,0.0,0.0,0.0,0.0,0.0,0.0,0.0,0.0,0.0,0.0,0.0,0.0,0.0,0.0,0.0,0.0,0.0,0.0,0.0,0.0,0.0,0.0,0.0,0.0,0.0,0.0,0.0,0.0,0.0,0.0,0.0,0.0,0.0,0.0,0.0,0.0,0.0,0.0,0.0,0.0,0.0,0.0,0.0,0.0,0.0,0.0,0.0,0.0,0.0,0.0,0.0,2.8543,2.8859,2.8992,2.9076,2.9143,2.9209,2.9209,2.9463,0.0,0.0,0.0,0.0,0.0,0.0,0.0,0.0,0.0,0.0,0.0,0.0,0.0,0.0,0.0,0.0,0.0,0.0,0.0,0.0,0.0,0.0,0.0,0.0,0.0,0.0,0.0,3.0035,0.0,0.0,0.0,0.0,0.0,0.0,0.0,0.0,0.0,0.0,0.0,0.0,0.0,0.0,2.9179,2.8837,2.8854,2.8751,0.0,0.0,2.8785,2.8785,2.9008,2.9213,0.0,0.0,0.0,0.0,0.0,0.0,0.0,0.0,0.0,0.0,0.0,0.0,0.0,0.0,0.0,0.0,0.0,0.0,0.0,0.0,0.0,0.0,0.0,0.0,0.0,0.0,0.0,0.0,0.0,0.0,0.0,0.0,0.0,0.0,0.0,0.0,0.0,0.0,0.0,0.0,0.0,0.0,0.0,0.0,0.0,0.0,0.0,0.0,0.0,0.0,0.0,0.0,0.0,0.0,0.0,2.9321,2.9345,2.9547,2.9816,3.0157,3.0293,3.0293,3.031,3.0327,0.0,0.0,0.0,0.0,0.0,0.0,0.0,0.0,0.0,0.0,0.0,0.0,0.0,0.0,0.0,0.0,0.0,0.0,0.0,0.0,0.0,0.0,0.0,0.0,0.0,0.0,0.0,0.0,0.0,0.0,0.0,0.0,0.0,0.0,0.0,0.0,0.0,0.0,0.0,0.0,0.0,2.9179,2.8837,2.9059,2.9008,0.0,0.0,2.8785,2.8785,2.8802,2.8939,2.9265,0.0,0.0,0.0,0.0,0.0,0.0,0.0,0.0,0.0,0.0,0.0,0.0,0.0,0.0,0.0,0.0,0.0,0.0,0.0,0.0,0.0,0.0,0.0,0.0,0.0,0.0,0.0,0.0,0.0,0.0,0.0,0.0,0.0,0.0,0.0,0.0,0.0,0.0,0.0,0.0,0.0,0.0,0.0,0.0,0.0,0.0,0.0,0.0,0.0,0.0,0.0,0.0,0.0,2.9747,3.002,3.0021,3.0089,3.0225,3.0361,3.0361,3.0361,3.0652,3.0789,0.0,0.0,0.0,0.0,0.0,0.0,0.0,0.0,0.0,0.0,0.0,0.0,0.0,0.0,0.0,0.0,0.0,0.0,0.0,0.0,0.0,0.0,0.0,0.0,0.0,0.0,0.0,0.0,2.9898,2.9539,2.9539,0.0,0.0,0.0,0.0,0.0,0.0,0.0,0.0,0.0,0.0,2.9847,2.9445,2.9515,0.0,0.0,2.8974,2.9089,2.9089,2.9086,2.9145,2.9282,2.9299,0.0,0.0,0.0,0.0,0.0,0.0,0.0,0.0,0.0,0.0,0.0,0.0,0.0,0.0,0.0,0.0,0.0,0.0,0.0,0.0,0.0,0.0,0.0,0.0,0.0,0.0,0.0,0.0,0.0,0.0,0.0,0.0,0.0,0.0,0.0,0.0,0.0,0.0,0.0,0.0,0.0,0.0,0.0,0.0,0.0,0.0,0.0,0.0,0.0,0.0,0.0,0.0,3.0394,3.0772,3.0669,3.0669,3.0772,3.0772,3.0772,3.0772,3.1046,3.1183,0.0,0.0,0.0,0.0,0.0,0.0,0.0,0.0,0.0,0.0,0.0,0.0,0.0,0.0,0.0,0.0,0.0,0.0,0.0,0.0,0.0,0.0,0.0,0.0,0.0,0.0,0.0,0.0,2.9999,2.9633,2.9661,0.0,0.0,0.0,0.0,0.0,0.0,0.0,0.0,0.0,0.0,3.0578,3.0291,3.0191,3.0102,2.9896,2.9839,2.9824,2.9953,2.9924,2.9952,2.9952,0.0,0.0,0.0,0.0,0.0,0.0,0.0,0.0,0.0,0.0,0.0,0.0,0.0,0.0,0.0,0.0,0.0,0.0,0.0,0.0,0.0,0.0,0.0,0.0,0.0,0.0,0.0,0.0,0.0,0.0,3.3761,0.0,0.0,0.0,0.0,0.0,0.0,0.0,0.0,0.0,0.0,0.0,0.0,0.0,0.0,0.0,0.0,0.0,0.0,0.0,0.0,0.0,0.0,3.1183,3.1525,3.1183,3.1165,3.1508,3.1525,3.1525,3.1525,3.1542,3.1613,3.1613,0.0,0.0,0.0,0.0,0.0,0.0,0.0,0.0,0.0,0.0,0.0,0.0,0.0,0.0,0.0,0.0,0.0,0.0,0.0,0.0,0.0,0.0,0.0,0.0,0.0,0.0,3.096,3.058,3.039,0.0,0.0,0.0,0.0,0.0,0.0,0.0,0.0,0.0,0.0,3.1202,3.1377,3.1359,3.1102,3.1019,3.1258,3.1102,3.0991,3.1295,3.1359,3.1377,0.0,0.0,0.0,0.0,0.0,0.0,0.0,0.0,0.0,0.0,0.0,0.0,0.0,0.0,0.0,0.0,0.0,0.0,0.0,0.0,0.0,0.0,0.0,0.0,0.0,0.0,0.0,3.3837,3.3837,0.0,0.0,0.0,0.0,0.0,0.0,0.0,0.0,0.0,0.0,0.0,3.3068,3.295,0.0,0.0,0.0,0.0,0.0,0.0,0.0,0.0,0.0,0.0,0.0,0.0,3.1439,3.1613,3.1439,3.1439,3.1559,3.1559,3.1559,3.163,3.1841,3.2052,3.2351,0.0,0.0,0.0,0.0,0.0,0.0,0.0,0.0,0.0,0.0,0.0,0.0,0.0,0.0,0.0,0.0,0.0,0.0,0.0,0.0,0.0,0.0,0.0,0.0,0.0,3.1287,0.0,0.0,0.0,0.0,0.0,0.0,0.0,0.0,0.0,0.0,0.0,3.1635,3.1846,3.1974,3.2083,3.2102,3.1974,3.1974,0.0,0.0,0.0,0.0,0.0,0.0,0.0,0.0,0.0,0.0,0.0,0.0,0.0,0.0,3.1189,2.9961,2.9886,3.0148,3.0752,0.0,0.0,0.0,0.0,0.0,0.0,0.0,0.0,0.0,0.0,0.0,0.0,0.0,0.0,3.3837,0.0,3.3837,0.0,0.0,0.0,0.0,0.0,0.0,0.0,0.0,3.3837,3.37,3.346,3.334,3.3135,0.0,3.3015,3.2621,0.0,0.0,0.0,0.0,0.0,0.0,0.0,0.0,3.1559,3.1559,3.1559,3.1559,3.1559,3.1559,3.163,3.1771,3.2123,3.2403,3.2701,3.2577,3.2506,0.0,0.0,0.0,0.0,0.0,0.0,0.0,0.0,0.0,0.0,0.0,0.0,0.0,0.0,0.0,0.0,0.0,0.0,0.0,0.0,0.0,0.0,0.0,3.1593,0.0,0.0,0.0,0.0,0.0,0.0,0.0,0.0,0.0,3.1763,3.2275,3.2575,3.2549,3.3121,3.3355,3.3102,0.0,0.0,0.0,0.0,0.0,0.0,0.0,3.2575,3.2147,3.2083,3.2147,3.2275,3.253,3.265,3.2373,0.0,0.0,3.0947,3.0596,3.0727,3.126,3.1146,3.1032,3.1317,3.1268,3.1022,0.0,0.0,0.0,0.0,0.0,0.0,0.0,0.0,3.3837,3.3837,0.0,3.3837,0.0,0.0,0.0,0.0,0.0,3.3837,0.0,0.0,3.3837,3.3761,3.371,3.3443,3.3272,3.3237,3.2878,3.2518,3.2159,3.2501,0.0,0.0,0.0,0.0,0.0,0.0,3.163,3.163,3.163,3.163,3.163,3.163,3.1771,3.2105,3.2561,3.2719,3.2701,3.2416,3.2203,3.2185,3.1797,0.0,0.0,0.0,0.0,0.0,0.0,0.0,0.0,0.0,0.0,0.0,0.0,0.0,0.0,0.0,0.0,0.0,0.0,0.0,0.0,3.2121,0.0,0.0,0.0,0.0,0.0,0.0,0.0,0.0,0.0,0.0,3.2485,3.3228,3.367,3.3038,0.0,0.0,0.0,0.0,3.4047,3.436,3.3544,3.3058,3.3355,3.3418,3.3418,3.3355,0.0,0.0,3.3859,3.4173,3.4095,3.3448,3.3512,3.3475,3.2407,3.1905,3.1722,3.178,3.178,3.17,3.1761,3.1963,3.2051,3.358,0.0,0.0,0.0,0.0,3.3837,3.3837,3.3837,3.3837,3.3837,3.3837,3.3837,0.0,0.0,0.0,0.0,0.0,0.0,3.3837,3.3837,3.3837,3.37,3.3426,3.3323,3.3117,3.2861,3.3015,3.2758,3.2176,3.2501,3.2296,3.1576,0.0,0.0,0.0,0.0,3.17,3.1982,3.1965,3.2123,3.2351,3.2351,3.2561,3.2911,3.3051,3.326,3.3469,3.3342,3.3288,3.3288,3.3179,0.0,0.0,0.0,0.0,0.0,0.0,0.0,0.0,0.0,0.0,0.0,0.0,0.0,0.0,0.0,0.0,0.0,0.0,0.0,3.2911,3.3175,3.3145,0.0,0.0,0.0,0.0,0.0,0.0,0.0,0.0,0.0,3.3165,3.3355,3.367,0.0,0.0,3.4797,3.5046,3.461,3.4298,3.436,3.4173,0.0,3.3418,3.3796,3.3922,3.3481,3.3796,3.4173,3.4235,3.436,3.4195,3.3513,3.343,3.3371,3.3129,3.2497,3.2182,3.2416,3.2494,3.2494,3.2494,3.2555,3.248,3.37,3.3528,3.3751,3.3837,3.3837,3.3837,3.3837,3.3837,3.3837,3.3837,3.3837,3.3837,3.3837,3.3837,3.3837,0.0,0.0,0.0,3.3837,3.3837,3.3837,3.3717,3.3494,3.3494,3.3374,3.3152,3.322,3.2963,3.2347,3.2433,3.2159,3.1593,0.0,0.0,3.1559,3.1559,3.1771,3.2105,3.2105,3.2263,3.2701,3.2981,3.326,3.3469,3.3817,3.4024,3.4214,3.4065,3.3972,3.4041,3.396,3.3886,0.0,0.0,0.0,0.0,0.0,0.0,0.0,0.0,0.0,0.0,0.0,3.3608,3.34,0.0,0.0,0.0,3.3469,3.3535,3.3853,3.3972,0.0,0.0,0.0,0.0,0.0,0.0,0.0,3.3121,3.3922,3.4235,3.3544,3.3607,3.3922,3.436,3.4859,3.5356,3.5747,0.0,3.4797,3.4797,3.436,3.3859,3.3481,3.3733,3.3859,3.3481,3.3985,3.4298,3.4235,3.4548,3.4485,3.3859,3.3733,3.3733,3.3418,3.3008,3.2734,3.2988,3.3047,3.3047,3.3047,3.3047,3.291,3.3837,3.3837,3.3837,3.3837,3.3837,3.3837,3.3837,3.3837,3.3837,3.3837,3.3837,3.3837,3.3837,3.3837,3.3837,0.0,3.3837,3.3837,3.3837,3.3837,3.382,3.3744,3.3837,3.3727,3.3785,3.3785,3.3426,3.3049,3.2621,3.2296,3.1953,3.1718,3.17,3.163,3.163,3.163,3.1841,3.2175,3.2246,3.2474,3.2841,3.3539,3.3886,3.3886,3.4577,3.4921,3.4902,3.4611,3.4383,3.4383,3.4289,3.4145,3.3899,0.0,0.0,0.0,0.0,0.0,0.0,0.0,0.0,0.0,0.0,0.0,0.0,0.0,0.0,0.0,3.4646,0.0,3.4835,3.4595,0.0,0.0,0.0,3.3013,3.295,3.3481,3.3733,3.3418,0.0,0.0,3.367,3.4047,3.4485,3.4548,3.5541,3.6239,3.63,3.5809,3.5418,3.5356,3.4298,3.3544,3.367,3.367,3.367,3.3796,3.4047,3.4298,3.4173,3.4673,3.4859,3.3985,3.411,3.411,3.3481,3.3379,3.3418,3.3398,3.3398,3.3398,3.3379,3.3379,3.3262,3.3837,3.3837,3.3837,3.3837,3.3837,3.3837,3.3837,3.3837,3.3837,3.3837,3.3837,3.3837,3.3837,3.3837,3.3837,3.3837,3.3837,3.3837,3.3837,3.382,3.3546,3.3563,3.382,3.3546,3.3409,3.3391,3.3306,3.2929,3.2278,3.2176,3.2221,3.2403,3.2474,3.2175,3.163,3.2193,3.2614,3.2963,3.3521,3.4006,3.437,3.4577,3.4646,3.4627,3.5127,3.5196,3.4921,3.51,3.5043,3.4751,3.4743,3.4823,3.5046,3.4918,0.0,0.0,0.0,0.0,0.0,0.0,0.0,0.0,0.0,3.6403,3.6384,0.0,3.7106,0.0,3.7038,3.6656,3.5304,3.5125,0.0,0.0,3.3129,3.3027,3.3248,3.3418,3.3481,3.3418,3.4548,3.5108,3.4235,3.4735,3.5376,3.5849,3.5294,3.5046,3.5541,3.5541,3.5418,3.5356,3.4735,3.436,3.4735,3.4485,3.4485,3.5541,3.4984,3.4548,3.4984,3.4797,3.4423,3.367,3.3544,3.3544,3.3481,3.3418,3.3418,3.3418,3.3418,3.3418,3.3418,3.3418,3.3379,3.3837,3.3837,3.3837,3.3837,3.3837,3.3837,3.3837,3.3837,3.3837,3.3837,3.3837,3.3837,3.3837,3.3837,3.3837,3.3837,3.3837,3.3665,3.3655,3.377,3.3483,3.3505,3.3769,3.3635,3.3531,3.3531,3.3357,3.3061,3.2661,3.2626,3.2736,3.295,3.318,3.3056,3.2682,3.3002,3.3381,3.3747,3.4301,3.4715,3.4921,3.5059,3.5196,3.5196,3.5557,3.5675,3.5587,3.5675,3.5675,3.5587,3.5568,3.5792,3.62,3.6152,3.644,0.0,0.0,0.0,0.0,0.0,0.0,0.0,0.0,0.0,0.0,0.0,3.8461,3.8793,3.8208,3.7369,3.6526,3.597,3.5288,3.4445,3.4124,3.411,3.4298,3.4548,3.461,3.436,3.5479,3.5911,3.4984,3.5418,3.587,3.5911,3.5046,3.4859,3.5972,3.6034,3.587,3.5788,3.5294,3.4859,3.4984,3.4673,3.4673,3.5294,3.5438,3.5356,3.5418,3.5356,3.5046,3.4423,3.4298,3.4173,3.3922,3.3859,3.3733,3.3481,3.3418,3.3418,3.3418,3.3418,3.3418,3.3837,3.3837,3.3837,3.3837,3.3837,3.3837,3.3837,3.3837,3.3837,3.3837,3.3837,3.3837,3.3837,3.3837,3.3837,3.3837,3.382,3.3569,3.3564,3.3826,3.3608,3.3614,3.3941,3.3888,3.387,3.3852,3.3588,3.3393,3.3358,3.3358,3.3429,3.35,3.3821,3.4144,3.4252,3.4241,3.4381,3.4727,3.5073,3.5211,3.5211,3.5574,3.5673,3.5703,3.5977,3.6278,3.6403,3.6287,3.6336,3.6586,3.6586,3.6789,3.728,3.7415,3.8017,0.0,3.8262,0.0,0.0,0.0,0.0,0.0,0.0,0.0,0.0,3.8814,3.9604,4.0279,3.8783,3.7819,3.7869,3.7023,3.6227,3.5645,3.5604,3.5604,3.5604,3.61,3.6223,3.5666,3.6694,3.7022,3.5935,3.6223,3.6347,3.6018,3.5479,3.5666,3.7083,3.6817,3.6304,3.6449,3.61,3.5832,3.525,3.4896,3.4896,3.5126,3.5666,3.6141,3.5728,3.5913,3.5954,3.5376,3.5046,3.4859,3.436,3.4235,3.4047,3.3481,3.3418,3.3418,3.3418,3.3418,3.3418,3.3837,3.3837,3.3837,3.3837,3.3837,3.3837,3.3837,3.3837,3.3837,3.3837,3.3837,3.3837,3.3837,3.3837,3.3837,3.3837,3.3837,3.407,3.4261,3.4319,3.4306,3.4436,3.4759,3.4475,3.4351,3.4333,3.4262,3.414,3.3748,3.3802,3.4091,3.4665,3.4738,3.5277,3.6133,0.0,0.0,0.0,3.684,3.684,3.684,3.6911,3.6825,3.6493,3.6819,0.0,3.6171,3.6876,3.7213,3.7011,3.7011,0.0,0.0,0.0,0.0,0.0,0.0,0.0,0.0,0.0,0.0,0.0,3.9866,3.9801,3.9801,4.0018,4.0149,4.0279,3.9932,3.9412,3.8508,3.8252,3.7697,3.6789,3.6578,3.6663,3.6663,3.6769,3.6727,3.6663,3.7276,3.7655,3.736,3.7466,3.7655,3.7885,3.7529,3.7529,3.8304,3.7189,3.6352,3.6643,3.736,3.7781,3.7276,3.6621,3.658,3.7487,3.6663,3.6243,3.654,3.5914,3.5247,3.4774,3.4173,3.3879,3.367,3.3607,3.367,3.3418,3.3418,3.3418,3.3418,3.3418,3.3418,3.3912,0.0,3.4064,3.4064,0.0,3.4064,3.3988,3.3837,3.3837,3.3837,3.3837,3.3837,3.3837,3.3837,3.3837,3.3837,3.3837,3.4024,3.4162,3.4127,3.4204,3.4262,3.4439,3.4464,3.4466,3.4466,3.4684,3.4722,3.4721,3.4921,3.5302,3.5861,3.6085,3.6487,3.7066,3.7211,3.7358,3.7305,3.7305,3.7305,3.7305,3.7305,3.7207,3.6992,3.7182,0.0,0.0,0.0,0.0,0.0,0.0,0.0,0.0,0.0,0.0,3.9407,3.9691,3.9735,3.9735,4.0084,4.0344,4.0344,4.0344,4.0344,4.0344,4.0344,4.0344,4.0344,4.0061,3.9756,3.9195,3.883,3.8465,3.7912,3.7806,3.7806,3.7806,3.7869,3.7678,3.7424,3.7742,3.7932,3.753,3.7678,3.789,3.8207,3.7763,3.7529,3.7933,3.7615,3.7234,3.7296,3.7509,3.77,3.736,3.704,3.7018,3.7509,3.7061,3.6765,3.7045,3.6432,3.5779,3.5371,3.5206,3.5082,3.4526,3.4423,3.4298,3.3985,3.3607,3.3418,3.3418,3.3418,3.3481,3.3988,3.429,3.4365,3.4441,3.4516,3.4591,3.4441,3.4215,0.0,0.0,0.0,3.3837,3.3837,3.3912,3.3912,3.3988,3.4046,3.4092,3.4175,3.414,3.4227,3.4303,3.4213,3.4649,3.4812,3.4794,3.5247,3.5589,3.5877,3.6232,3.66,3.691,3.7232,3.7421,3.7568,3.7936,3.788,3.7559,3.7519,3.7519,3.7519,3.7519,3.748,3.7402,3.7402,3.7806,3.8636,3.8057,3.8225,3.9318,3.8664,3.8594,3.9446,3.9403,3.9624,4.0236,4.0367,4.0367,4.0301,4.0432,4.052,4.052,4.052,4.0454,4.0301,4.0344,4.0344,4.0344,3.9972,3.9754,3.9732,3.934,3.91,3.9078,3.91,3.9036,3.9036,3.91,3.8868,3.838,3.855,3.8444,3.7954,3.8103,3.821,3.8231,3.8018,3.748,3.7772,3.8079,3.8125,3.8103,3.7888,3.7332,3.7247,3.7159,3.7118,3.7438,3.7417,3.7334,3.7315,3.7037,3.6593,3.599,3.6414,3.6039,3.5354,3.5022,3.4961,3.4381,3.3796,3.3418,3.3544,3.3481,3.3544,3.3837,3.3912,3.429,3.4574,3.4932,3.5306,3.5605,3.5772,3.4423,3.3837,3.3837,3.3837,3.3988,3.429,3.429,3.4499,3.4857,3.5178,3.5384,3.5384,3.5702,3.5888,3.5888,3.6276,3.6497,3.6497,3.6865,3.7085,3.7158,3.7215,3.7253,3.7326,3.7383,3.7549,3.7936,3.8302,3.8516,3.8398,3.8398,3.8398,3.8398,3.8398,3.8223,3.7851,3.7832,3.7727,3.7516,3.8615,3.9268,3.9481,3.9941,4.0362,4.0669,4.0139,3.9967,4.028,4.0672,4.0716,4.0345,4.1022,4.1503,4.1503,4.1481,4.1153,4.0367,4.0344,4.0344,4.0279,4.0236,4.0235,4.017,4.0105,4.0039,4.0039,4.0061,4.0083,4.0017,4.0017,3.9952,3.9801,4.0018,3.9909,3.965,3.9736,3.9736,3.9845,3.939,3.9541,3.9171,3.8687,3.8513,3.8887,3.8953,3.8887,3.8671,3.836,3.8232,3.8821,3.8319,3.7888,3.7772,3.7253,3.6612,3.586,3.5585,3.5082,3.4512,3.4285,3.4211,3.3828,3.3603,3.3583,3.4004,3.3733,3.3481,3.4574,3.4799,3.495,3.5174,3.5306,3.5306,3.5381,3.553,3.5007,3.4799,3.4724,3.4574,3.4574,3.4724,3.495,3.5157,3.5381,3.5754,3.5903,3.5903,3.6126,3.6201,3.6201,3.659,3.6812,3.6812,3.7181,3.7495,3.7715,3.7715,3.7843,3.8063,3.8063,3.8136,3.8302,3.8501,3.8574,3.8574,3.8574,3.8574,3.8574,3.8574,3.8476,3.8281,3.8281,3.84,3.8561,3.8826,3.9484,4.0423,4.0354,4.0694,4.1348,4.1082,4.0928,4.1066,4.124,4.1284,4.1066,4.1437,4.1677,4.1677,4.1677,4.1524,4.1087,4.1044,4.1044,4.1044,4.1044,4.0935,4.0694,4.0672,4.0563,4.0301,4.0344,4.0344,4.0344,4.0344,4.0149,3.9822,3.9888,3.9822,3.9473,3.9604,3.967,3.9691,3.9757,3.9625,3.9494,3.9099,3.8835,3.9144,3.921,3.921,3.921,3.8946,3.8901,3.9144,3.8437,3.7955,3.7749,3.713,3.6263,3.5706,3.5521,3.5474,3.5012,3.4998,3.4799,3.4398,3.3961,3.3965,3.3832,3.3607,3.3418,3.5157,3.5456,3.553,3.568,3.5829,3.5605,3.553,3.553,3.5754,3.5903,3.5829,3.5456,3.5306,3.5456,3.5754,3.5903,3.6052,3.6367,3.6516,3.6442,3.6442,3.6516,3.6516,3.6886,3.7107,3.7107,3.7476,3.7843,3.8082,3.8155,3.8282,3.8574,3.8574,3.8574,3.8574,3.8574,3.8574,3.8574,3.8574,3.8574,3.8574,3.8574,3.8574,3.8574,3.8574,3.8865,3.9425,3.9228,3.9697,4.0857,4.0815,4.1092,4.1556,4.1784,4.1808,4.1721,4.1786,4.1918,4.2005,4.1918,4.1896,4.2027,4.2027,4.2027,4.2027,4.2027,4.1918,4.1743,4.1655,4.1524,4.1219,4.1044,4.0847,4.0498,4.0323,4.0344,4.0344,4.0344,4.0062,3.9604,3.9691,3.9625,3.9276,3.9276,3.9473,3.956,3.9473,3.9407,3.9341,3.9297,3.9297,3.921,3.921,3.921,3.921,3.9144,3.9144,3.921,3.8416,3.7996,3.7709,3.7079,3.6324,3.5989,3.6243,3.611,3.575,3.5565,3.5386,3.4898,3.4522,3.4166,3.3931,3.3789,3.3613,3.5007,3.5082,3.5456,3.6052,3.6664,3.696,3.7034,3.7034,3.6812,3.6664,3.6571,3.6293,3.6293,3.659,3.6645,3.6886,3.7181,3.7255,3.7274,3.7255,3.7274,3.7255,3.7329,3.7715,3.7862,3.7936,3.8282,3.8428,3.8501,3.8501,3.8574,3.8574,3.8574,3.8574,3.8574,3.8574,3.8574,3.8574,3.8574,3.8574,3.8574,3.8574,3.8574,3.8574,3.8574,3.8647,3.8793,4.0002,4.0412,4.0085,4.1792,4.237,4.1593,4.2011,4.2158,4.1765,4.2114,4.2551,4.2944,4.2617,4.2551,4.2988,4.2988,4.2988,4.2988,4.301,4.2638,4.1983,4.1721,4.1721,4.1612,4.1284,4.1044,4.0891,4.0563,4.0344,4.0279,4.0344,4.0279,4.0214,4.0149,4.0214,4.0084,4.0084,4.0149,4.0084,4.0084,4.0018,3.9757,3.9691,3.956,3.9341,3.921,3.921,3.9144,3.921,3.9078,3.9078,3.857,3.8171,3.8017,3.775,3.7307,3.6689,3.6776,3.6462,3.5937,3.5446,3.5355,3.5028,3.476,3.459,3.457,3.4492,3.4258,3.5381,3.5381,3.553,3.5903,3.6423,3.6349,3.6349,3.6367,3.6423,3.6442,3.6516,3.6738,3.6886,3.6812,3.7274,3.7642,3.7715,3.7789,3.7916,3.8063,3.7862,3.7843,3.8136,3.8282,3.8375,3.8375,3.8501,3.8574,3.8574,3.8574,3.8574,3.8574,3.8574,3.8574,3.8574,3.8574,3.8574,3.8574,3.8574,3.8574,3.8574,3.8574,3.8574,3.8574,3.8574,3.8574,3.8647,3.9228,3.9806,4.0361,4.1381,4.2025,4.2392,4.2718,4.2791,4.2595,4.2748,4.2966,4.3163,4.2988,4.2966,4.3163,4.3184,4.3184,4.3184,4.3184,4.2988,4.266,4.2573,4.2464,4.2158,4.1939,4.1612,4.1131,4.0825,4.0541,3.9975,4.0149,4.0214,4.0018,4.0149,4.0279,4.0344,4.0344,4.0344,4.0344,4.0301,4.0192,4.004,4.0084,4.0018,3.9822,3.9494,3.9144,3.8946,3.866,3.8594,3.8461,3.8017,3.7616,3.7683,3.7166,3.6674,3.7011,3.6876,3.6702,3.6522,3.6328,3.6162,3.55,3.4824,3.4687,3.4687,3.4687,3.4492,3.6142,3.6049,3.5883,3.5903,3.5996,3.5829,3.5754,3.5754,3.607,3.6275,3.6423,3.696,3.7107,3.7034,3.7568,3.7862,3.7862,3.7936,3.8155,3.8428,3.8228,3.8302,3.8574,3.8574,3.8574,3.8574,3.8574,3.8574,3.8574,3.8574,3.8574,3.8574,3.8574,3.8574,3.8574,3.8574,3.8574,3.8574,3.8574,3.8574,3.8574,3.8574,3.8574,3.8574,3.8574,3.8574,3.8574,3.8793,3.9281,4.0218,4.0668,4.1381,4.2462,4.2532,4.2673,4.2883,4.3115,4.3184,4.3184,4.3184,4.3184,4.3184,4.3184,4.3184,4.3184,4.3184,4.3184,4.3163,4.3184,4.2966,4.2704,4.2507,4.2092,4.1481,4.1306,4.0911,4.0408,4.0541,4.0585,4.017,4.0388,4.041,4.0214,3.9972,3.9817,3.9967,4.0034,3.9991,3.9925,3.9835,3.9835,3.9813,3.9281,3.9021,3.8832,3.8615,3.8329,3.8129,3.7883,3.7636,3.7549,3.7099,3.6694,3.7502,3.6897,3.6606,3.6729,3.6864,3.6749,3.5894,3.5426,3.5323,3.5574,3.5409,3.5409,3.7408,3.7277,3.6533,3.6032,3.5698,3.6107,3.6219,3.6292,3.6256,3.646,3.6794,3.6831,3.7052,3.7366,3.7421,3.7421,3.7495,3.7789,3.8009,3.8082,3.8355,3.8574,3.8574,3.8574,3.8574,3.8574,3.8574,3.8574,3.8574,3.8574,3.8574,3.8574,3.8574,3.8574,3.8574,3.8574,3.8574,3.8613,3.8594,3.8594,3.8594,3.8594,3.8574,3.8574,3.8574,3.8574,3.8647,3.9281,3.9445,3.8793,4.0115,4.0974,4.1046,4.1117,4.1473,4.2089,4.2813,4.3184,4.3184,4.3184,4.3184,4.3184,4.3184,4.3184,4.3184,4.3184,4.3184,4.3184,4.3184,4.3141,4.3053,4.2726,4.2442,4.2267,4.1896,4.1655,4.1523,4.1414,4.1393,4.1021,4.0912,4.0691,4.0024,3.9285,3.9271,3.9452,3.9461,3.944,3.9241,3.9075,3.9075,3.8869,3.869,3.8664,3.9,3.8758,3.8649,3.847,3.8259,3.8228,3.8524,3.8636,3.8279,3.8012,3.7738,3.7402,3.7099,3.6856,3.6586,3.6285,3.6467,3.6482,3.6095,3.6716,3.6676,3.7894,3.7876,3.7575,3.7501,3.7595,3.7425,3.7444,3.7425,3.7425,3.7501,3.7614,3.7615,3.7651,3.78,3.7535,3.7568,3.7789,3.7642,3.7789,3.8009,3.8155,3.8228,3.8228,3.8428,3.8574,3.8574,3.8574,3.8574,3.8574,3.8574,3.8574,3.8574,3.8574,3.8574,3.8574,3.8574,3.8691,3.8926,3.873,3.8691,3.8906,3.8711,3.8574,3.8574,3.8574,3.8574,3.8574,3.8865,3.9202,3.9699,4.0302,4.0934,4.1669,4.1967,4.2245,4.2716,4.3045,4.3184,4.3184,4.3184,4.3184,4.3184,4.3184,4.3184,4.3184,4.3184,4.3184,4.3184,4.3184,4.3184,4.3163,4.301,4.2769,4.2464,4.2267,4.1981,4.1584,4.1564,4.1544,4.1212,4.1257,4.1101,4.0515,4.0108,3.983,3.9475,3.9378,3.933,3.9309,3.9447,3.9488,3.9378,3.9219,3.9185,3.9348,3.8904,3.8562,3.8562,3.8466,3.8239,3.8384,3.8391,3.8021,3.7922,3.7929,3.7739,3.7272,3.7044,3.6754,3.6809,3.7011,3.6742,3.6403,3.6742,3.6876,3.8231,3.7966,3.8195,3.8347,3.8481,3.8347,3.8252,3.831,3.8121,3.8122,3.8217,3.7933,3.7893,3.793,3.7609,3.7642,3.7936,3.7715,3.7715,3.8009,3.8155,3.8228,3.8228,3.8428,3.8574,3.8574,3.8574,3.8574,3.8574,3.8574,3.8574,3.8574,3.8574,3.8574,3.8574,3.8574,3.873,3.8906,3.8711,3.8711,3.8926,3.873,3.8574,3.8574,3.8574,3.8574,3.8574,3.8574,3.8989,3.9858,3.9891,4.0231,4.1183,4.2293,4.2877,4.2885,4.336,4.3643,4.3599,4.349,4.3403,4.3451,4.325,4.3184,4.3184,4.3184,4.3184,4.3184,4.3184,4.3184,4.3184,4.3184,4.3032,4.2726,4.266,4.2482,4.1971,4.2065,4.1978,4.1689,4.1358,4.1155,4.0874,4.0366,3.9966,3.9491,3.9391,3.9321,3.9391,3.9672,3.993,3.9951,3.9783,3.9754,3.9881,3.9672,3.9024,3.8963,3.8783,3.8537,3.8317,3.8177,3.7987,3.7877,3.7794,3.7634,3.7453,3.7292,3.7172,3.7206,3.7079,3.6876,3.6606,3.6491,3.6761,3.8665,3.7847,3.8366,3.8575,3.846,3.8766,3.8785,3.8766,3.8425,3.8537,3.8763,3.7985,3.7983,3.7958,3.783,3.7734,3.8009,3.8009,3.8009,3.8009,3.8375,3.8501,3.8501,3.8574,3.8574,3.8574,3.8574,3.8574,3.8574,3.8574,3.8574,3.8574,3.8574,3.8574,3.8574,3.8574,3.8594,3.8652,3.8633,3.8613,3.8594,3.8613,3.8574,3.8574,3.8574,3.8574,3.8574,3.8574,3.8843,3.9175,3.8921,3.8882,3.9889,4.178,4.2962,4.2586,4.3649,4.4395,4.4401,4.4031,4.3791,4.3911,4.349,4.3316,4.3294,4.325,4.3228,4.3184,4.3184,4.3184,4.3184,4.3184,4.3163,4.3163,4.3097,4.3053,4.3075,4.3119,4.2966,4.2348,4.1636,4.0938,4.089,4.041,3.9809,3.981,3.9573,3.9358,3.9461,3.9656,3.9706,3.9849,4.0065,4.0247,4.0411,4.0514,3.993,3.945,3.9249,3.9039,3.8789,3.8668,3.8326,3.8137,3.7967,3.7877,3.7746,3.7477,3.7052,3.6953,3.6901,3.6964,3.6876,3.6761,3.6944,3.9481,3.9212,3.9737,3.9892,3.9796,4.0221,4.0453,4.0434,4.0221,4.0259,4.0258,3.9814,3.9465,3.9229,3.8883,3.8554,3.8467,3.8428,3.8302,3.8082,3.8155,3.8228,3.8228,3.8501,3.8574,3.8574,3.8574,3.8574,3.8574,3.8574,3.8574,3.8574,3.8574,3.8574,3.8574,3.8574,3.8691,3.8945,3.8711,3.8711,3.8945,3.8711,3.8574,3.8574,3.8574,3.8574,3.8574,3.8574,3.8789,3.918,3.9082,3.9421,4.043,4.1583,4.2187,4.229,4.2596,4.3276,4.3713,4.3679,4.386,4.4199,4.4211,4.3971,4.3709,4.3643,4.3512,4.3272,4.3184,4.3184,4.3184,4.3184,4.3184,4.3184,4.3184,4.3184,4.3184,4.3184,4.3119,4.2988,4.2583,4.2236,4.1811,4.1129,4.0817,4.0443,4.0166,3.9971,3.9971,4.0094,4.0094,4.0166,4.0453,4.0576,4.0504,4.0382,3.9973,3.9617,3.9485,3.9333,3.9111,3.8917,3.8624,3.8363,3.8195,3.8047,3.7898,3.7629,3.7223,3.6858,3.6884,3.6901,3.6984,3.7011,3.7079,3.9193,3.9272,3.9647,3.9786,3.9786,4.0118,4.0451,4.0646,4.0337,4.0376,4.0509,4.0215,3.9883,3.9668,3.9492,3.9219,3.8848,3.8809,3.8584,3.8248,3.8228,3.8287,3.8383,3.8487,3.8574,3.8574,3.8574,3.8574,3.8574,3.8574,3.8574,3.8574,3.8574,3.8574,3.8574,3.8574,3.873,3.8906,3.8711,3.8711,3.8848,3.8711,3.8574,3.8574,3.8574,3.8574,3.8574,3.8574,3.8769,3.916,3.9355,3.9889,4.0539,4.1314,4.1892,4.2208,4.2596,4.299,4.3415,4.3658,4.3824,4.4314,4.4547,4.4473,4.4189,4.4124,4.3927,4.3534,4.3447,4.3359,4.3228,4.3184,4.3184,4.3184,4.3184,4.3184,4.3184,4.3184,4.3184,4.3141,4.3141,4.2883,4.2441,4.1877,4.1643,4.1167,4.074,4.0596,4.0668,4.0882,4.0811,4.0668,4.0668,4.0647,4.0433,4.0218,4.0022,3.9798,3.9614,3.941,3.9194,3.8957,3.8609,3.8511,3.8334,3.8189,3.8062,3.7916,3.7558,3.7253,3.6838,3.6884,3.6969,3.6917,3.6944,3.8004,3.8004,3.8444,3.8603,3.8682,3.8761,3.9254,3.9691,3.9107,3.9299,3.9829,3.9651,3.9434,3.9453,3.9785,3.9668,3.9297,3.9238,3.9141,3.8906,3.8809,3.8833,3.8989,3.8828,3.8652,3.8574,3.8574,3.8574,3.8574,3.8574,3.8574,3.8574,3.8574,3.8574,3.8574,3.8574,3.8594,3.8633,3.8594,3.8594,3.8613,3.8594,3.8574,3.8574,3.8574,3.8613,3.8672,3.8691,3.8809,3.916,3.9512,3.9726,4.0033,4.0992,4.1711,4.2108,4.2978,4.3186,4.3525,4.361,4.3848,4.405,4.4414,4.4554,4.4503,4.4532,4.4386,4.3862,4.3796,4.3714,4.3294,4.3184,4.3184,4.3184,4.3023,4.3045,4.3184,4.3184,4.3023,4.3184,4.3184,4.3023,4.2651,4.2089,4.1735,4.1381,4.1167,4.1096,4.1167,4.131,4.1431,4.1381,4.1167,4.1096,4.0933,4.0647,4.0453,3.995,3.9734,3.9465,3.9176,3.8865,3.872,3.8569,3.851,3.8334,3.8158,3.8046,3.7673,3.7202,3.6956,3.6926,3.6981,3.7004,3.7213,3.7605,3.7605,3.7986,3.8145,3.8225,3.8444,3.8919,3.9355,3.916,3.9413,4.0144,4.0218,4.0117,4.0176,4.0273,4.0117,3.9785,3.9707,3.9883,3.9941,3.9668,3.9394,3.9238,3.9082,3.8867,3.8633,3.8594,3.8574,3.8574,3.8574,3.8574,3.8574,3.8574,3.8574,3.8574,3.8574,3.8574,3.8574,3.8574,3.8574,3.8574,3.8574,3.8574,3.8574,3.8574,3.873,3.8984,3.9043,3.8906,3.8769,3.916,3.9394,3.9528,4.0125,4.0765,4.1198,4.1317,4.1839,4.2576,4.2937,4.318,4.371,4.4443,4.4592,4.4301,4.4814,4.4641,4.4102,4.3862,4.3757,4.3294,4.3184,4.3184,4.3115,4.2743,4.2603,4.2953,4.2673,4.2511,4.3023,4.3184,4.3093,4.2953,4.2743,4.2392,4.1947,4.1523,4.131,4.1452,4.1381,4.1381,4.1735,4.1735,4.1664,4.1523,4.1239,4.0811,4.0238,3.9806,3.9373,3.9083,3.872,3.8647,3.8555,3.8588,3.8471,3.8301,3.8197,3.7656,3.7226,3.6964,3.6917,3.732,3.7549,3.7883,3.6885,3.6885,3.7125,3.7205,3.7285,3.7667,3.8054,3.8467,3.8641,3.9203,3.9894,4.0142,4.0351,4.0527,4.0703,4.0547,4.0195,4.0156,4.0195,4.0195,4.0156,3.9902,3.9551,3.9336,3.9062,3.8828,3.8652,3.8594,3.8574,3.8574,3.8574,3.8574,3.8574,3.8574,3.8574,3.8574,3.8574,3.8574,3.8574,3.8574,3.8574,3.8574,3.8574,3.8574,3.8594,3.8769,3.9121,3.9023,3.8955,3.9109,3.9321,3.9519,3.9716,3.9954,4.0385,4.1103,4.1075,4.1542,4.2449,4.309,4.3442,4.3822,4.4579,4.4902,4.4667,4.5144,4.5238,4.4648,4.432,4.3949,4.3556,4.3294,4.3184,4.3093,4.2441,4.237,4.3115,4.2813,4.2743,4.3045,4.3184,4.3093,4.3023,4.2953,4.2721,4.23,4.1735,4.1594,4.1594,4.1452,4.1381,4.1664,4.1947,4.1877,4.1594,4.131,4.1167,4.0668,3.995,3.9425,3.9063,3.8647,3.8574,3.8574,3.8574,3.8555,3.8437,3.832,3.8066,3.7656,3.7226,3.7263,3.7773,3.7863,3.8217,3.6097,3.6097,3.6097,3.6143,3.627,3.6574,3.7126,3.7457,3.7998,3.8594,3.9356,3.9773,4.0293,4.0605,4.0957,4.0937,4.0586,4.0586,4.0391,4.0371,4.0391,4.0391,4.0078,3.957,3.9297,3.9101,3.8769,3.8613,3.8574,3.8574,3.8574,3.8574,3.8574,3.8574,3.8574,3.8574,3.8574,3.8574,3.8574,3.8574,3.8574,3.8574,3.8574,3.8594,3.8711,3.8848,3.9023,3.8906,3.8983,3.9578,3.961,3.9645,4.0038,4.0151,4.076,4.1567,4.1637,4.1936,4.272,4.3535,4.3991,4.3723,4.4721,4.5447,4.4891,4.5243,4.5587,4.5172,4.4866,4.4277,4.3731,4.3381,4.3206,4.3093,4.2511,4.2581,4.2975,4.3115,4.3093,4.3163,4.3184,4.3023,4.2791,4.263,4.263,4.23,4.1806,4.1664,4.1664,4.1664,4.1452,4.1381,4.1664,4.1947,4.1664,4.1381,4.131,4.1096,4.0146,3.957,3.9136,3.8865,3.8647,3.8574,3.8574,3.8574,3.8555,3.8418,3.8262,3.7871,3.7305,3.7788,3.8337,3.8048,3.8196,3.6097,3.6097,3.6097,3.631,3.6544,3.665,3.6988,3.7481,3.8156,3.8804,3.9376,4.0066,4.0605,4.1016,4.1113,4.1113,4.1016,4.0996,4.0957,4.0937,4.0957,4.0996,4.0703,4.0098,3.957,3.9219,3.8789,3.8594,3.8574,3.8574,3.8574,3.8574,3.8574,3.8574,3.8574,3.8574,3.8574,3.8574,3.8574,3.8574,3.8574,3.8574,3.8574,3.8594,3.8848,3.9062,3.916,3.9121,3.9136,3.9205,3.9082,3.9056,3.9241,3.9605,4.0242,4.0951,4.1428,4.1801,4.2311,4.2793,4.2761,4.2844,4.3648,4.4016,4.4379,4.4992,4.5339,4.5238,4.4866,4.4183,4.3485,4.3272,4.3184,4.3115,4.3023,4.2975,4.3045,4.2673,4.2651,4.3023,4.3184,4.3184,4.3093,4.3023,4.2813,4.23,4.1947,4.1664,4.1664,4.1664,4.1523,4.131,4.1806,4.2229,4.2392,4.2039,4.1806,4.1452,4.0576,3.9714,3.9353,3.8865,3.8647,3.8574,3.8574,3.8574,3.8574,3.8457,3.8281,3.7812,3.7434,3.7837,3.8119,3.8068,3.8441,3.6097,3.608,3.6132,3.6341,3.6684,3.6958,3.7244,3.7755,3.8557,3.9185,3.9663,4.0201,4.0762,4.1152,4.1172,4.1172,4.1172,4.1172,4.1172,4.1152,4.1152,4.1172,4.1055,4.0527,3.9941,3.9492,3.8867,3.8613,3.8574,3.8574,3.8574,3.8574,3.8574,3.8574,3.8574,3.8574,3.8574,3.8574,3.8574,3.8574,3.8574,3.8574,3.8574,3.8594,3.8809,3.8984,3.918,3.9199,3.9199,3.9141,3.8984,3.8969,3.9103,3.9498,4.0144,4.1028,4.1317,4.2114,4.2677,4.32,4.3224,4.2816,4.3495,4.3696,4.4013,4.4517,4.5034,4.5004,4.4503,4.3702,4.3105,4.311,4.3206,4.3184,4.3184,4.3272,4.3354,4.2943,4.2673,4.3115,4.3184,4.3316,4.3359,4.3381,4.3403,4.3024,4.218,4.1827,4.1239,4.1239,4.131,4.1381,4.2018,4.2532,4.2953,4.2883,4.2532,4.1947,4.1004,4.0218,3.9642,3.9136,3.8647,3.8574,3.8574,3.8574,3.8555,3.8437,3.8242,3.7851,3.7594,3.7777,3.797,3.8156,3.8856,3.6092,3.6138,3.6192,3.6473,3.6862,3.7385,3.7776,3.8177,3.8994,3.9586,3.9952,4.0413,4.0879,4.1113,4.1172,4.1172,4.1172,4.1172,4.1172,4.1172,4.1172,4.1172,4.1055,4.0684,4.0312,3.9902,3.9141,3.873,3.8613,3.8574,3.8574,3.8574,3.8574,3.8574,3.8574,3.8574,3.8574,3.8574,3.8574,3.8574,3.8574,3.8574,3.8574,3.8594,3.8613,3.8926,3.9219,3.9297,3.9238,3.9297,3.9238,3.9332,3.9473,3.9786,4.0289,4.1686,4.1665,4.2314,4.3277,4.3844,4.3846,4.3427,4.3911,4.4048,4.3781,4.4135,4.4641,4.4699,4.4257,4.3464,4.2956,4.3073,4.325,4.3294,4.3316,4.3512,4.3774,4.3621,4.3534,4.349,4.3643,4.3796,4.3796,4.3796,4.3796,4.3638,4.2791,4.199,4.1402,4.1025,4.1239,4.131,4.1877,4.2603,4.3023,4.3184,4.2883,4.2462,4.1502,4.0862,4.0074,3.9498,3.9011,3.8647,3.8574,3.8574,3.8476,3.8281,3.8047,3.7793,3.7535,3.741,3.7773,3.8244,3.9118,3.6077,3.6157,3.6483,3.6857,3.7346,3.8045,3.8425,3.8669,3.966,4.0124,3.9971,4.0724,4.0996,4.1113,4.1152,4.1152,4.1055,4.1016,4.1055,4.1074,4.1074,4.1055,4.0937,4.0703,4.0449,4.0215,3.957,3.9004,3.8691,3.8574,3.8574,3.8574,3.8574,3.8574,3.8574,3.8574,3.8574,3.8574,3.8574,3.8574,3.8574,3.8574,3.8574,3.8574,3.8574,3.8926,3.9434,3.9394,3.9375,3.9687,3.9394,3.9077,3.9037,3.9353,4.0094,4.0965,4.159,4.2237,4.3209,4.3376,4.3376,4.3284,4.3442,4.3687,4.3741,4.3943,4.4183,4.4423,4.4242,4.3779,4.372,4.3366,4.3468,4.3599,4.3725,4.3949,4.4298,4.4364,4.432,4.4342,4.4364,4.432,4.4298,4.4255,4.4189,4.4058,4.3562,4.2692,4.1904,4.1607,4.1523,4.1594,4.1594,4.237,4.3023,4.3184,4.3115,4.2883,4.2159,4.1502,4.079,4.0002,3.9498,3.9083,3.872,3.8574,3.8418,3.8164,3.7832,3.7559,3.7261,3.7005,3.7719,3.8366,3.9009,3.6383,3.6443,3.6654,3.7096,3.7671,3.8139,3.855,3.898,3.9573,3.9829,4.0043,4.0334,4.0508,4.0508,4.0508,4.0508,4.0527,4.0508,4.0508,4.0508,4.0508,4.0508,4.0586,4.0488,4.0371,4.0215,3.9922,3.9473,3.8926,3.8672,3.8613,3.8574,3.8574,3.8574,3.8574,3.8574,3.8574,3.8574,3.8574,3.8574,3.8574,3.8574,3.8574,3.8574,3.8574,3.8809,3.9101,3.959,3.9394,3.9297,3.9434,3.916,3.8935,3.8958,3.9618,4.0544,4.1183,4.1925,4.2728,4.2947,4.2975,4.3228,4.3184,4.3272,4.3425,4.3556,4.3698,4.3961,4.4351,4.4199,4.4004,4.3645,4.363,4.4024,4.3946,4.4185,4.4656,4.4932,4.5063,4.5107,4.4801,4.4713,4.4866,4.4779,4.4648,4.4408,4.4217,4.3392,4.2522,4.216,4.1891,4.1877,4.1877,4.2441,4.3023,4.3184,4.3184,4.3023,4.2673,4.2018,4.136,4.0576,3.993,3.9425,3.9063,3.8793,3.832,3.8066,3.7676,3.7336,3.7154,3.7177,3.7852,3.8528,3.9123,3.6746,3.6728,3.6952,3.739,3.7931,3.8185,3.8631,3.9106,3.9336,3.9609,3.9863,3.9922,3.9941,3.9902,3.9922,3.9922,3.9883,3.9941,3.9961,3.998,3.998,3.9922,4.0,4.0137,4.0234,4.0019,3.9922,3.9883,3.9238,3.8887,3.8691,3.8594,3.8574,3.8574,3.8574,3.8574,3.8574,3.8574,3.8574,3.8574,3.8574,3.8574,3.8574,3.8574,3.8574,3.8633,3.8906,3.9336,3.9316,3.916,3.9258,3.9375,3.875,3.8652,3.92,4.0111,4.0632,4.1469,4.2394,4.2677,4.2892,4.3158,4.3184,4.3184,4.3206,4.3337,4.3388,4.3695,4.3997,4.4503,4.437,4.3949,4.409,4.4446,4.4322,4.416,4.504,4.5478,4.5565,4.5456,4.5129,4.5129,4.5325,4.5325,4.5194,4.4932,4.4648,4.4096,4.32,4.2493,4.2181,4.2152,4.23,4.2673,4.3023,4.3184,4.3184,4.3184,4.2883,4.237,4.1735,4.1075,4.0433,3.9858,3.9353,3.9024,3.8531,3.7891,3.7461,3.7112,3.6975,3.7247,3.7883,3.8461,3.8991,3.6746,3.6822,3.7596,3.7893,3.8089,3.8744,3.9067,3.9219,3.9551,3.9824,3.9785,3.9844,3.9824,3.9805,3.9805,3.9844,3.9844,3.9766,3.9726,3.9707,3.9746,3.9746,3.9844,3.9922,3.9941,3.9805,3.959,3.9336,3.916,3.9082,3.8906,3.8672,3.8613,3.8574,3.8574,3.8574,3.8574,3.8574,3.8574,3.8574,3.8574,3.8574,3.8574,3.8574,3.8594,3.8711,3.8945,3.9238,3.918,3.9141,3.918,3.9062,3.873,3.8945,3.9355,3.9849,4.0404,4.1097,4.2301,4.2589,4.2757,4.31,4.3206,4.3184,4.3184,4.3228,4.3485,4.4379,4.4277,4.4445,4.4888,4.4714,4.4837,4.4917,4.4871,4.5066,4.5688,4.574,4.5849,4.5871,4.5544,4.5653,4.5806,4.5784,4.574,4.5456,4.5129,4.4554,4.3953,4.3221,4.2529,4.2477,4.2511,4.2883,4.3115,4.3184,4.3184,4.3184,4.3023,4.2673,4.2229,4.1664,4.0933,4.0289,3.9786,3.901,3.8184,3.7578,3.7187,3.6986,3.6827,3.7267,3.7863,3.8395,3.8946,3.7241,3.7538,3.7835,3.8182,3.8414,3.8716,3.8848,3.8887,3.9062,3.9141,3.9141,3.9141,3.916,3.9199,3.9141,3.9141,3.916,3.918,3.916,3.918,3.9199,3.918,3.918,3.9375,3.9512,3.9512,3.9551,3.9492,3.9258,3.8984,3.8809,3.8906,3.8691,3.8574,3.8574,3.8574,3.8574,3.8574,3.8574,3.8574,3.8574,3.8574,3.8574,3.8574,3.8574,3.8691,3.8848,3.9101,3.9043,3.8984,3.9023,3.9004,3.8711,3.8769,3.9023,3.9434,3.9908,4.0773,4.192,4.2282,4.2632,4.2892,4.3057,4.3184,4.3184,4.3228,4.3578,4.4495,4.4408,4.4735,4.5287,4.5057,4.4953,4.4965,4.5187,4.5221,4.5543,4.5884,4.598,4.6002,4.6002,4.6002,4.6002,4.5959,4.5893,4.574,4.5456,4.499,4.451,4.3953,4.3355,4.2856,4.2813,4.2953,4.3093,4.3184,4.3184,4.3184,4.3184,4.2953,4.2743,4.2229,4.1502,4.0719,4.0074,3.9106,3.7968,3.7422,3.7168,3.6897,3.6651,3.7327,3.7924,3.8723,3.9339,3.7789,3.8155,3.8155,3.8302,3.8574,3.8574,3.8594,3.8594,3.8613,3.8594,3.8574,3.8613,3.8613,3.8594,3.8633,3.8672,3.8613,3.8574,3.8574,3.8574,3.8574,3.8633,3.875,3.8945,3.9043,3.9043,3.9258,3.9316,3.9141,3.8867,3.8769,3.9023,3.8691,3.8594,3.8574,3.8574,3.8574,3.8574,3.8574,3.8574,3.8574,3.8574,3.8574,3.8574,3.8574,3.8574,3.8633,3.8828,3.8828,3.875,3.8848,3.8828,3.8633,3.8633,3.8848,3.9199,3.9622,4.0085,4.1088,4.1792,4.2314,4.2691,4.2997,4.3184,4.3184,4.3206,4.3578,4.4517,4.4561,4.5041,4.5644,4.5437,4.5319,4.5223,4.5266,4.5159,4.5181,4.5704,4.6002,4.6002,4.6002,4.6002,4.6002,4.6002,4.598,4.5937,4.5718,4.5412,4.4888,4.4342,4.3747,4.311,4.3045,4.3023,4.3115,4.3184,4.3184,4.3184,4.3184,4.3184,4.2953,4.2673,4.2159,4.1381,4.0576,3.9627,3.8706,3.7924,3.7129,3.674,3.6513,3.7327,3.8007,3.8937,3.9773,3.8228,3.8574,3.8574,3.8574,3.8574,3.8574,3.8574,3.8574,3.8574,3.8574,3.8574,3.8574,3.8574,3.8574,3.8574,3.8574,3.8574,3.8574,3.8574,3.8574,3.8574,3.8574,3.8633,3.8652,3.8672,3.8672,3.8848,3.9004,3.9023,3.8769,3.8633,3.8594,3.8613,3.8594,3.8574,3.8574,3.8574,3.8574,3.8574,3.8574,3.8574,3.8574,3.8574,3.8574,3.8574,3.8574,3.8574,3.8652,3.8672,3.8574,3.8672,3.8711,3.8594,3.8574,3.8789,3.9043,3.9258,3.9625,4.029,4.1299,4.2199,4.2669,4.2997,4.3184,4.3184,4.3184,4.3665,4.4364,4.4495,4.5019,4.5609,4.5928,4.5704,4.548,4.5405,4.548,4.548,4.5704,4.6002,4.6002,4.6002,4.6002,4.6002,4.6002,4.6002,4.598,4.5718,4.5412,4.4801,4.4233,4.3752,4.3337,4.3206,4.3184,4.3184,4.3184,4.3184,4.3184,4.3184,4.3184,4.3184,4.2813,4.2603,4.2018,4.1268,4.0318,3.9485,3.8718,3.7838,3.6632,3.6454,3.7325,3.8615,3.9841,4.0574,3.8209,3.8574,3.8574,3.8574,3.8574,3.8574,3.8574,3.8574,3.8574,3.8574,3.8574,3.8574,3.8574,3.8574,3.8574,3.8574,3.8574,3.8574,3.8574,3.8574,3.8574,3.8574,3.8574,3.8574,3.8594,3.8574,3.8594,3.8613,3.875,3.8672,3.8613,3.8574,3.8594,3.8574,3.8574,3.8574,3.8574,3.8574,3.8574,3.8574,3.8574,3.8574,3.8574,3.8574,3.8574,3.8574,3.8574,3.8574,3.8574,3.8574,3.8574,3.8574,3.8574,3.8574,3.8672,3.8867,3.9023,3.9258,3.9637,4.0546,4.1389,4.2258,4.2781,4.3184,4.3184,4.3184,4.3468,4.3971,4.443,4.4888,4.5412,4.5732,4.5853,4.563,4.5555,4.5704,4.5779,4.5853,4.6002,4.6002,4.6002,4.6002,4.6002,4.6002,4.6002,4.598,4.5696,4.5369,4.4757,4.4233,4.3774,4.3359,4.3228,4.3184,4.3184,4.3184,4.3184,4.3184,4.3184,4.3184,4.3184,4.3184,4.2883,4.237,4.1975,4.1108,4.0294,3.9534,3.8577,3.7302,3.7134,3.7589,3.8993,4.0575,4.1229,3.8355,3.8574,3.8574,3.8574,3.8574,3.8574,3.8574,3.8574,3.8574,3.8574,3.8574,3.8574,3.8574,3.8574,3.8574,3.8574,3.8574,3.8574,3.8574,3.8574,3.8574,3.8574,3.8574,3.8574,3.8574,3.8574,3.8574,3.8594,3.8613,3.8711,3.8691,3.8652,3.8691,3.873,3.8574,3.8574,3.8574,3.8574,3.8574,3.8574,3.8574,3.8574,3.8574,3.8574,3.8574,3.8574,3.8574,3.8574,3.8574,3.8574,3.8574,3.8574,3.8574,3.8574,3.8574,3.8672,3.8809,3.9077,3.9465,4.0277,4.11,4.2004,4.2786,4.3115,4.3184,4.3184,4.3425,4.3818,4.4211,4.4626,4.5172,4.5513,4.5797,4.5596,4.5757,4.5853,4.5779,4.5853,4.5928,4.6002,4.6002,4.6002,4.6002,4.6002,4.598,4.598,4.5893,4.5434,4.4757,4.4277,4.3905,4.3512,4.3206,4.3184,4.3184,4.3184,4.3184,4.3184,4.3184,4.3184,4.3184,4.3184,4.3184,4.2813,4.2306,4.1826,4.1278,4.0709,3.9403,3.7957,3.8257,3.8757,3.9404,4.089,4.1467,3.8574,3.8574,3.8574,3.8574,3.8574,3.8574,3.8574,3.8574,3.8574,3.8574,3.8574,3.8574,3.8574,3.8574,3.8574,3.8574,3.8574,3.8574,3.8574,3.8574,3.8574,3.8574,3.8574,3.8574,3.8574,3.8574,3.8574,3.8574,3.8594,3.8828,3.8809,3.875,3.8809,3.8867,3.8594,3.8574,3.8574,3.8574,3.8574,3.8574,3.8574,3.8574,3.8574,3.8574,3.8574,3.8574,3.8574,3.8574,3.8574,3.8574,3.8574,3.8574,3.8574,3.8574,3.8574,3.8594,3.8613,3.8997,3.963,4.0791,4.1501,4.1869,4.2462,4.2953,4.3184,4.3228,4.3316,4.3665,4.3905,4.4364,4.4888,4.5369,4.5535,4.5636,4.5797,4.6002,4.5853,4.5853,4.5928,4.6002,4.6002,4.6002,4.6002,4.6002,4.5959,4.5959,4.598,4.5522,4.4757,4.4277,4.3883,4.3599,4.325,4.325,4.325,4.3206,4.3184,4.3184,4.3184,4.3184,4.3184,4.3184,4.3184,4.3023,4.284,4.2425,4.2144,4.1884,4.0576,3.9412,3.9745,4.0228,4.0647,4.1007,4.164,3.8574,3.8574,3.8574,3.8574,3.8574,3.8574,3.8574,3.8574,3.8574,3.8574,3.8574,3.8574,3.8574,3.8574,3.8574,3.8574,3.8574,3.8574,3.8574,3.8574,3.8574,3.8574,3.8574,3.8574,3.8574,3.8574,3.8574,3.8574,3.8574,3.8828,3.8769,3.8672,3.875,3.8691,3.8613,3.8574,3.8574,3.8574,3.8574,3.8574,3.8574,3.8574,3.8574,3.8574,3.8574,3.8574,3.8574,3.8574,3.8574,3.8574,3.8574,3.8574,3.8574,3.8574,3.8574,3.8647,3.8647,3.8918,3.9878,4.0812,4.1527,4.1778,4.2089,4.2743,4.3115,4.3184,4.3294,4.3447,4.3687,4.4036,4.4277,4.5019,4.5317,4.547,4.5675,4.5915,4.5928,4.5928,4.6002,4.6002,4.6002,4.6002,4.6002,4.5959,4.5915,4.5565,4.5478,4.5216,4.4582,4.4146,4.3774,4.3599,4.3381,4.3337,4.3316,4.325,4.3206,4.3184,4.3184,4.3184,4.3184,4.3184,4.3184,4.3115,4.3184,4.3093,4.27,4.2284,4.1671,4.1151,4.1109,4.0934,4.1038,4.1284,4.1733,3.8574,3.8574,3.8574,3.8574,3.8574,3.8574,3.8574,3.8574,3.8574,3.8574,3.8574,3.8574,3.8574,3.8574,3.8574,3.8574,3.8574,3.8574,3.8574,3.8574,3.8574,3.8574,3.8574,3.8574,3.8574,3.8574,3.8574,3.8574,3.8594,3.873,3.8809,3.8809,3.8652,3.8613,3.8574,3.8574,3.8574,3.8574,3.8574,3.8574,3.8574,3.8574,3.8574,3.8574,3.8574,3.8574,3.8574,3.8574,3.8574,3.8574,3.8574,3.8574,3.8574,3.8574,3.8574,3.8647,3.9228,3.9425,4.0022,4.1167,4.1615,4.1523,4.2018,4.2603,4.3115,4.3184,4.3184,4.3316,4.3512,4.3687,4.3971,4.4735,4.5107,4.526,4.5653,4.5915,4.6002,4.6002,4.6002,4.6002,4.6002,4.6002,4.6002,4.5915,4.5871,4.5391,4.4954,4.4648,4.4408,4.408,4.3845,4.3643,4.3512,4.3468,4.3381,4.3294,4.325,4.3184,4.3184,4.3184,4.3184,4.3184,4.3184,4.3184,4.3184,4.3163,4.3049,4.2661,4.214,4.1893,4.192,4.1743,4.1407,4.1542,4.1784,3.8574,3.8574,3.8574,3.8574,3.8574,3.8574,3.8574,3.8574,3.8574,3.8574,3.8574,3.8574,3.8574,3.8574,3.8574,3.8574,3.8574,3.8574,3.8574,3.8574,3.8574,3.8574,3.8574,3.8574,3.8574,3.8574,3.8574,3.8594,3.8633,3.8906,3.9101,3.9023,3.8789,3.8672,3.8633,3.8574,3.8574,3.8574,3.8574,3.8574,3.8574,3.8574,3.8574,3.8574,3.8574,3.8574,3.8574,3.8574,3.8574,3.8574,3.8574,3.8574,3.8574,3.8574,3.8574,3.9011,3.995,4.0289,4.0218,4.136,4.2018,4.2159,4.2673,4.3115,4.3184,4.3184,4.3184,4.3184,4.3316,4.3534,4.3818,4.4342,4.4845,4.5238,4.5696,4.5871,4.598,4.6002,4.6002,4.6002,4.6002,4.6002,4.6002,4.5937,4.5806,4.5216,4.4735,4.432,4.4102,4.4036,4.3889,4.3889,4.3687,4.3578,4.349,4.3447,4.3294,4.3228,4.3184,4.3184,4.3184,4.3184,4.3184,4.3184,4.3184,4.3163,4.3071,4.294,4.2766,4.2609,4.2275,4.1791,4.1348,4.138,4.1481,3.8574,3.8574,3.8574,3.8574,3.8574,3.8574,3.8574,3.8574,3.8574,3.8574,3.8574,3.8574,3.8574,3.8574,3.8574,3.8574,3.8574,3.8574,3.8574,3.8574,3.8574,3.8574,3.8574,3.8574,3.8574,3.8574,3.8574,3.8594,3.8652,3.8984,3.8984,3.875,3.8867,3.8789,3.8652,3.8574,3.8574,3.8574,3.8574,3.8574,3.8574,3.8574,3.8574,3.8574,3.8574,3.8574,3.8574,3.8574,3.8574,3.8574,3.8574,3.8574,3.8574,3.8574,3.8647,3.8865,4.0218,4.136,4.0933,4.1947,4.2813,4.2743,4.3115,4.3115,4.3184,4.3206,4.3206,4.3184,4.3184,4.3381,4.3665,4.4124,4.4539,4.4954,4.5478,4.5915,4.6002,4.6002,4.6002,4.6002,4.6002,4.6002,4.6002,4.6002,4.5784,4.5107,4.4561,4.4124,4.3796,4.3752,4.3911,4.3911,4.3796,4.3687,4.3709,4.3665,4.3447,4.3294,4.3228,4.3184,4.3184,4.3184,4.3184,4.3184,4.3184,4.3184,4.3184,4.3032,4.2835,4.2464,4.2087,4.1695,4.1301,4.1305,4.1153,3.8574,3.8574,3.8574,3.8574,3.8574,3.8574,3.8574,3.8574,3.8574,3.8574,3.8574,3.8574,3.8574,3.8574,3.8574,3.8574,3.8574,3.8574,3.8574,3.8574,3.8574,3.8574,3.8574,3.8574,3.8574,3.8574,3.8574,3.8574,3.8652,3.875,3.8769,3.8652,3.8887,3.8789,3.8652,3.8574,3.8574,3.8574,3.8574,3.8574,3.8574,3.8574,3.8574,3.8574,3.8574,3.8574,3.8574,3.8574,3.8574,3.8574,3.8574,3.8574,3.8574,3.8574,3.8865,3.9228,4.0361,4.131,4.1523,4.2392,4.3045,4.3184,4.3206,4.3316,4.3316,4.3407,4.325,4.3184,4.3184,4.3272,4.3599,4.3927,4.4277,4.4626,4.5281,4.5937,4.6002,4.6002,4.6002,4.6002,4.6002,4.6002,4.6002,4.6002,4.5718,4.5019,4.4473,4.4102,4.3709,4.3447,4.3714,4.3889,4.3796,4.3752,4.3796,4.3752,4.3468,4.3272,4.3206,4.3184,4.3184,4.3184,4.3184,4.3184,4.3184,4.3184,4.3184,4.301,4.2791,4.242,4.2049,4.161,4.1259,4.1108,4.0869,3.8574,3.8574,3.8574,3.8574,3.8574,3.8574,3.8574,3.8574,3.8574,3.8574,3.8574,3.8574,3.8574,3.8574,3.8574,3.8574,3.8574,3.8574,3.8574,3.8574,3.8574,3.8574,3.8574,3.8574,3.8574,3.8574,3.8574,3.8574,3.8594,3.8711,3.8809,3.8594,3.8711,3.8691,3.8613,3.8574,3.8574,3.8574,3.8574,3.8574,3.8574,3.8574,3.8574,3.8574,3.8574,3.8574,3.8574,3.8574,3.8574,3.8574,3.8574,3.8574,3.8574,3.8793,3.9136,3.9714,4.0719,4.136,4.1947,4.2673,4.311,4.325,4.325,4.3556,4.3665,4.3534,4.3425,4.3599,4.3665,4.3665,4.3927,4.4364,4.4713,4.4997,4.5456,4.5893,4.6002,4.6002,4.6002,4.6002,4.6002,4.6002,4.6002,4.598,4.5784,4.4997,4.4626,4.4277,4.3905,4.3556,4.3599,4.3954,4.3889,4.3796,4.3774,4.3757,4.3403,4.325,4.3206,4.3184,4.3184,4.3184,4.3184,4.3184,4.3184,4.3184,4.3141,4.3032,4.2835,4.2464,4.207,4.1612,4.1306,4.1109,4.076,3.8574,3.8574,3.8574,3.8574,3.8574,3.8574,3.8574,3.8574,3.8574,3.8574,3.8574,3.8574,3.8574,3.8574,3.8574,3.8574,3.8574,3.8574,3.8574,3.8574,3.8574,3.8574,3.8574,3.8574,3.8574,3.8574,3.8574,3.8594,3.8613,3.8789,3.8867,3.8652,3.875,3.8828,3.8594,3.8574,3.8574,3.8574,3.8574,3.8574,3.8574,3.8574,3.8574,3.8594,3.8594,3.8594,3.8594,3.8594,3.8574,3.8574,3.8574,3.8574,3.8574,3.9063,3.9425,3.9858,4.0862,4.1573,4.2159,4.2764,4.3245,4.3578,4.3709,4.4014,4.408,4.384,4.384,4.408,4.4189,4.4167,4.4298,4.4735,4.5129,4.5369,4.5609,4.5806,4.6002,4.6002,4.6002,4.6002,4.6002,4.6002,4.6002,4.5893,4.5653,4.5434,4.5238,4.4932,4.4539,4.4167,4.3927,4.4129,4.3954,4.3911,4.3845,4.3714,4.3381,4.3228,4.3184,4.3184,4.3184,4.3184,4.3184,4.3184,4.3184,4.3184,4.3184,4.3163,4.2922,4.2595,4.2267,4.1896,4.1459,4.1197,4.0782,3.8574,3.8574,3.8574,3.8574,3.8574,3.8574,3.8574,3.8574,3.8574,3.8574,3.8574,3.8574,3.8574,3.8574,3.8574,3.8574,3.8574,3.8574,3.8574,3.8574,3.8574,3.8574,3.8574,3.8574,3.8574,3.8574,3.8574,3.8594,3.8633,3.8711,3.873,3.8633,3.8828,3.8828,3.8574,3.8574,3.8574,3.8574,3.8574,3.8574,3.8574,3.8594,3.8711,3.875,3.8711,3.8711,3.875,3.8711,3.8574,3.8574,3.8574,3.8574,3.872,3.9083,3.959,4.0146,4.1004,4.1877,4.23,4.2786,4.3403,4.3731,4.3883,4.4058,4.4779,4.4604,4.4408,4.4582,4.4451,4.4408,4.4539,4.491,4.515,4.5369,4.5675,4.5937,4.6002,4.6002,4.6002,4.6002,4.6002,4.6002,4.6002,4.6002,4.574,4.5434,4.5325,4.5172,4.4845,4.4757,4.4517,4.4298,4.4239,4.3845,4.3539,4.3425,4.3359,4.325,4.3206,4.3184,4.3184,4.3184,4.3184,4.3184,4.3184,4.3184,4.3184,4.3184,4.3141,4.29,4.2573,4.2223,4.1786,4.1393,4.1087,3.8574,3.8574,3.8574,3.8574,3.8574,3.8574,3.8574,3.8574,3.8574,3.8574,3.8574,3.8574,3.8574,3.8574,3.8574,3.8574,3.8574,3.8574,3.8574,3.8574,3.8574,3.8574,3.8574,3.8574,3.8574,3.8574,3.8574,3.8574,3.8594,3.8652,3.8652,3.8594,3.8574,3.8574,3.8574,3.8574,3.8574,3.8574,3.8574,3.8574,3.8594,3.8633,3.8887,3.8945,3.8965,3.8926,3.9004,3.8984,3.8769,3.8691,3.873,3.8823,3.8891,3.9182,3.9734,4.031,4.1025,4.1806,4.2441,4.2953,4.3442,4.3818,4.3954,4.4342,4.5085,4.5281,4.5085,4.4976,4.4845,4.4845,4.4976,4.5085,4.5303,4.5456,4.5784,4.6002,4.6002,4.6002,4.6002,4.6002,4.6002,4.6002,4.6002,4.6002,4.5828,4.55,4.5303,4.5107,4.4997,4.5085,4.5041,4.4779,4.4582,4.4102,4.3578,4.3381,4.3468,4.3381,4.3337,4.325,4.3184,4.3184,4.3184,4.3184,4.3184,4.3184,4.3184,4.3184,4.3141,4.3119,4.2922,4.2595,4.2245,4.1852,4.1568,3.8574,3.8574,3.8574,3.8574,3.8574,3.8574,3.8574,3.8574,3.8574,3.8574,3.8574,3.8574,3.8574,3.8574,3.8574,3.8574,3.8574,3.8574,3.8574,3.8574,3.8574,3.8574,3.8574,3.8574,3.8574,3.8574,3.8574,3.8574,3.8574,3.8574,3.8574,3.8574,3.8574,3.8574,3.8574,3.8574,3.8574,3.8574,3.8574,3.8574,3.8711,3.8828,3.9082,3.9277,3.9512,3.9375,3.9355,3.9531,3.9375,3.9219,3.9156,3.9323,3.9372,3.9506,3.9947,4.0535,4.1251,4.1806,4.2441,4.2953,4.342,4.4233,4.443,4.4779,4.5369,4.5784,4.5653,4.5653,4.5565,4.5587,4.5653,4.5653,4.5806,4.5806,4.598,4.6002,4.6002,4.6002,4.6002,4.6002,4.6002,4.6002,4.6002,4.6002,4.6002,4.5784,4.5762,4.5587,4.5544,4.5544,4.55,4.5281,4.5019,4.4779,4.443,4.3796,4.3687,4.3578,4.3447,4.3272,4.3184,4.3184,4.3184,4.3184,4.3184,4.3184,4.3184,4.3184,4.3184,4.3163,4.3163,4.2966,4.2617,4.2333,4.207]}]]